     2              OBSERVATION DATA    GPS                 RINEX VERSION / TYPE
TRRINEXO V2.4.6 UX                                          PGM / RUN BY / DATE
                                                            COMMENT
Original Marker Name: cali                                  COMMENT
Campaign Name: STRC 1995                                    COMMENT
4-Character Station Name: CALI                              COMMENT
6-Character Antenna Code: TRMSST                            COMMENT
Vertical Measurement Point: TGP                             COMMENT
Vertical Offset to Rinex Ref. Point: 0.0629                 COMMENT
Radial Measurement Point: NGP                               COMMENT
Radial Offset to Rinex Ref. Point: 0.2334                   COMMENT
Antenna Height from Field Measurement: 1.7190 m             COMMENT
Original XYZ: -2301491.2635 -4823266.8350 3469667.2669      COMMENT
New XYZ position is based on association with SCEC monument COMMENT
E1D0I4J4+0011. Position of that monument is believed to be  COMMENT
valid to within 1 m horizontally; vertical accuracy         COMMENT
should be no worse than 3-times this value.                 COMMENT
                                                            COMMENT
Revised Rinex header created by UCSD GPS archive for        COMMENT
GSAC on 12-Apr-1999 (1999:102) 05:28:52 GMT                 COMMENT
For assistance contact dagnew@ucsd.edu or hjohnson@ucsd.edu COMMENT
                                                            COMMENT
CALIPATRIA 1934 1967                                        MARKER NAME
CALIPATRIA 2 RESET                                          MARKER NUMBER
K. Feaux UNAVCO                                             OBSERVER / AGENCY
1054 TRIMBLE 4000 SST 4.81                                  REC # / TYPE / VERS
272 TR 4000SST L1/L2 GEO                                    ANT # / TYPE
 -2301466.0000 -4823214.0000  3469612.0000                  APPROX POSITION XYZ
        1.6402        0.0000        0.0000                  ANTENNA: DELTA H/E/N
     1     2     0                                          WAVELENGTH FACT L1/2
     3    C1    L1    L2                                    # / TYPES OF OBSERV
    30                                                      INTERVAL
  1995     2    19    16     0   30.000000                  TIME OF FIRST OBS
  1995     2    20     0     0    0.000000                  TIME OF LAST OBS
     0                                                      # OF SATELLITES
                                                            END OF HEADER
 95  2 19 16  0 30.0000000  0  3 25 15 29
  21343620.977          -0.11817
  21739477.148          -0.21516
  22974927.555          -0.34016
 95  2 19 16  1  0.0000000  0  6 25  1 14 15 22 29
  21353346.203       51114.807 7        -0.39619
  24581628.484       60672.221 5
  21223642.250      -77277.829 7        -0.41518
  21750600.500       58451.063 6        -0.24817
  22519082.172      -91608.945 6        -0.39316
  22961923.133      -68339.463 6
 95  2 19 16  1 30.0000000  0  6 25  1 14 15 22 29
  21363150.312      102635.046 7     40145.231 9
  24593181.672      121423.845 5        -0.00614
  21209004.039     -154192.741 7    -59934.118 8
  21761821.594      117396.918 6     45931.557 7
  22501720.305     -182869.130 6    -71112.158 6
  22948944.328     -136560.170 6        -0.00216
 95  2 19 16  1 59.9990000  0  6 25  1 14 15 22 29
  21373031.511      154576.335 7     80618.938 9
  24604756.784      182247.455 4     47394.925 4
  21194439.315     -230748.002 7   -119587.579 8
  21773130.206      176829.376 6     92242.515 7
  22484413.511     -273780.548 6   -141952.209 5
  22935980.792     -204654.043 6    -53060.149 5
 95  2 19 16  2 29.9990000  0  6 25  1 14 15 22 29
  21382998.519      206945.132 7    121425.761 9
  24616350.355      243131.620 5     94837.073 2
  21179940.183     -306935.990 7   -178954.850 8
  21784533.456      236748.450 6    138932.650 7
  22467180.081     -364363.438 6   -212536.254 6
  22923053.089     -272607.781 6   -106011.111 5
 95  2 19 16  2 59.9990000  0  6 25  1 14 15 22 29
  21393042.065      259720.412 7    162549.341 9
  24627939.026      304064.416 5    142317.068 3
  21165511.190     -382753.422 7   -238033.367 8
  21796024.761      297138.049 6    185989.440 6
  22450001.667     -454635.858 6   -282878.361 6
  22910153.190     -340414.722 6   -158847.682 5
 95  2 19 16  3 29.9990000  0  6 25  1 14 15 22 29
  21403162.206      312903.750 7    203990.877 9
  24639545.104      365052.422 5
  21151157.940     -458189.492 7   -296814.725 8
  21807604.425      358002.389 6    233416.170 6
  22432881.261     -544598.652 6   -352979.243 6
  22897280.456     -408048.336 6   -211549.170 5
 95  2 19 16  3 59.9990000  0  6 25  1 14 15 22 29
  21413359.956      366487.373 7    245744.325 9
  24651163.894      426092.686 5
  21136872.190     -533252.768 7   -355305.585 9
  21819276.300      419333.557 6    281206.650 7
  22415823.276     -634250.924 6   -422838.130 6
  22884440.901     -475521.000 6   -264125.279 6
 95  2 19 16  4 29.9990000  0  6 25  1 14 15 22 29
  21423626.628      420441.000 7    287786.101 9
  24662789.081      487190.742 5        -0.28811
  21122658.581     -607949.329 7   -413510.705 9
  21831034.433      481120.814 6    329352.517 6
  22398819.058     -723585.678 5   -492449.611 6
  22871629.315     -542856.028 6   -316594.113 6
 95  2 19 16  4 59.9990000  0  6 25  1 14 15 22 29
  21433964.479      474770.111 7    330120.455 9
  24674430.190      548362.647 5
  21108512.386     -682287.438 7   -471436.508 9
  21842878.612      543362.729 6    377852.674 6
  22381890.839     -812566.960 6   -561785.658 6
  22858832.659     -610070.297 6   -368968.848 6
 95  2 19 16  5 29.9990000  0  6 25  1 14 15 22 29
  21444376.370      529471.415 7    372744.824 9
  24686087.987      609598.412 5
  21094430.737     -756288.257 7   -529099.489 8
  21854803.683      606045.839 6    426696.616 6
  22365025.323     -901181.650 6   -630836.049 6
  22846064.675     -677193.938 6   -421272.985 6
 95  2 19 16  5 59.9990000  0  6 25  1 14 15 22 29
  21454853.729      584537.138 7    415653.156 9
  24697754.019      670907.784 5        -0.35411
  21080416.183     -829944.833 7   -586494.229 8
  21866815.722      669179.077 6    475891.309 6
  22348239.339     -989400.151 6   -699577.747 6
  22833309.104     -744216.878 6   -473498.625 6
 95  2 19 16  6 29.9990000  0  6 25  1 14 15 22 29
  21465398.776      639958.134 7    458838.335 9
  24709428.894      732280.559 5     47822.526 2
  21066464.987     -903255.555 7   -643619.473 9
  21878918.995      732757.442 6    525432.850 6
  22331526.245    -1077221.283 6   -768009.820 6
  22820574.417     -811119.225 6   -525630.321 5
 95  2 19 16  6 59.9990000  0  6 25  1 14 15 22 29
  21476015.636      695744.292 7    502308.057 9
  24721120.190      793712.661 5     95691.633 2
  21052579.987     -976215.309 7   -700471.233 9
  21891102.979      796782.767 6    575322.668 6
  22314890.354    -1164653.232 6   -836138.628 6
  22807870.550     -877880.548 6   -577652.128 5
 95  2 19 16  7 29.9990000  0  5 25 14 15 22 29
  21486697.558      751869.582 7    546042.023 9
  21038766.222    -1048815.506 7   -757042.823 9
  21903364.620      861246.777 6    625554.319 6
  22298319.534    -1251723.914 6   -903985.911 6
  22795195.409     -944494.467 6   -629559.073 6
 95  2 19 16  7 59.9990000  0  5 25 14 15 22 29
  21497438.151      808321.925 7    590030.837 9
  21025021.940    -1121034.856 7   -813317.640 9
  21915719.808      926144.644 6    676124.048 6
  22281813.823    -1338454.059 6   -971567.826 6
  22782551.503    -1010948.314 6   -681341.274 6
 95  2 19 16  8 29.9990000  0  5 25 14 15 22 29
  21508247.042      865116.453 7    634286.296 9
  21011354.745    -1192855.788 7   -869282.004 9
  21928148.144      991472.907 6    727029.140 6
  22265377.073    -1424855.503 6  -1038893.618 6
  22769933.979    -1077246.313 6   -733002.048 6
 95  2 19 16  8 59.9990000  0  5 25 14 15 22 29
  21519116.690      922240.740 7    678798.709 9
  20997760.901    -1264293.699 7   -924947.910 9
  21940662.300     1057215.150 6    778256.811 6
  22248991.972    -1510945.059 6  -1105976.399 6
  22757341.425    -1143424.782 6   -784569.676 6
 95  2 19 16  9 29.9990000  0  5 25 14 15 22 29
  21530049.495      979694.668 7    723567.981 9
  20984238.034    -1335352.759 7   -980318.598 9
  21953249.370     1123368.268 6    829804.652 6
  22232675.386    -1596704.602 6  -1172802.023 6
  22744767.948    -1209503.657 6   -836059.696 5
 95  2 19 16  9 59.9990000  0  5 25 14 15 22 29
  21541052.542     1037509.505 7    768618.480 9
  20970790.394    -1406034.657 7  -1035395.399 9
  21965914.237     1189941.236 6    881679.640 6
  22216421.292    -1682105.892 6  -1239348.482 6
  22732209.987    -1275480.172 6   -887469.963 6
 95  2 19 16 10 29.9990000  0  5 25 14 15 22 29
  21552124.667     1095702.705 7    813963.814 8
  20957408.698    -1476344.656 7  -1090182.406 9
  21978665.604     1256940.286 6    933886.651 6
  22200243.198    -1767118.683 6  -1305592.195 6
  22719677.800    -1341351.569 6   -938798.328 6
 95  2 19 16 10 59.9990000  0  5 25 14 15 22 29
  21563262.120     1154237.695 7    859575.477 8
  20944092.979    -1546322.716 7  -1144710.765 9
  21991494.003     1324335.261 6    986402.169 6
  22184140.058    -1851755.074 6  -1371542.583 7
  22707159.401    -1407146.238 6   -990066.893 6
 95  2 19 16 11 29.9990000  0  5 25 14 15 22 29
  21574470.120     1213123.747 7    905460.686 8
  20930843.800    -1615946.618 7  -1198963.161 9
  22004393.104     1392130.333 6   1039229.447 6
  22168108.628    -1935996.843 6  -1437185.487 7
  22694651.659    -1472842.672 6  -1041258.906 6
 95  2 19 16 11 59.9990000  0  5 25 14 15 22 29
  21585739.800     1272347.471 7    951609.024 8
  20917661.339    -1685214.427 7  -1252938.083 9
  22017366.386     1460313.984 6   1092359.520 6
  22152147.948    -2019856.238 6  -1502530.426 7
  22682173.847    -1538434.416 6  -1092369.339 6
 95  2 19 16 12 29.9990000  0  5 25 14 15 22 29
  21597073.901     1331900.521 7    998013.975 8
  20904549.933    -1754111.857 7  -1306624.392 9
  22030415.081     1528893.599 6   1145798.129 6
  22136262.042    -2103333.609 6  -1567577.692 6
  22669716.620    -1603906.186 6  -1143386.307 6
 95  2 19 16 12 59.9990000  0  5 25 14 15 22 29
  21608465.222     1391769.071 7   1044664.767 8
  20891513.448    -1822633.769 7  -1360018.103 9
  22043542.479     1597867.187 6   1199543.738 6
  22120447.550    -2186444.060 6  -1632339.034 6
  22657279.620    -1669251.912 6  -1194305.057 6
 95  2 19 16 13 29.9990000  0  5 25 14 15 22 29
  21619915.690     1451944.910 7   1091555.009 8
  20878545.315    -1890770.076 7  -1413111.335 9
  22056742.315     1667228.096 6   1253591.155 6
  22104701.081    -2269204.728 6  -1696827.814 6
  22644872.190    -1734472.440 6  -1245126.253 6
 95  2 19 16 13 59.9990000  0  5 25 14 15 22 29
  21631425.362     1512423.544 7   1138681.197 8
  20865653.190    -1958524.611 7  -1465907.079 9
  22070013.151     1736975.384 6   1307939.648 6
  22089016.558    -2351621.104 6  -1761048.325 7
  22632481.706    -1799561.539 6  -1295845.014 6
 95  2 19 16 14 29.9990000  0  5 25 14 15 22 29
  21642992.628     1573204.960 7   1186043.310 8
  20852834.651    -2025891.274 7  -1518400.583 9
  22083358.308     1807106.374 6   1362587.119 6
  22073398.901    -2433691.352 6  -1824999.117 7
  22620121.409    -1864517.866 6  -1346460.310 6
 95  2 19 16 14 59.9990000  0  5 25 14 15 22 29
  21654616.292     1634293.766 7   1233644.947 8
  20840091.425    -2092851.355 7  -1570577.274 9
  22096775.323     1877609.756 6   1417524.782 6
  22057851.526    -2515399.530 6  -1888667.786 7
  22607784.042    -1929351.694 6  -1396980.163 6
 95  2 19 16 15 29.9990000  0  5 25 14 15 22 29
  21666302.073     1695703.470 7   1281496.644 8
  20827430.706    -2159389.207 7  -1622424.961 9
  22110264.229     1948491.034 6   1472756.901 6
  22042378.612    -2596698.293 6  -1952017.425 7
  22595473.722    -1994058.252 6  -1447400.848 6
 95  2 19 16 15 59.9990000  0  5 25 14 15 22 29
  21678047.948     1757437.747 7   1329601.241 8
  20814846.065    -2225512.870 7  -1673949.896 9
  22123826.065     2019748.729 6   1528282.328 6
  22026995.667    -2677556.576 6  -2015023.833 6
  22583183.440    -2058646.667 6  -1497729.469 6
 95  2 19 16 16 29.9990000  0  5 25 14 15 22 29
  21689856.776     1819487.839 7   1377951.938 8
  20802345.362    -2291219.395 7  -1725149.796 9
  22137456.487     2091374.178 6   1584094.322 6
  22011689.495    -2757968.200 6  -2077682.205 6
  22570911.151    -2123130.291 6  -1547976.437 6
 95  2 19 16 16 59.9990000  0  5 25 14 15 22 29
  21701727.026     1881859.722 7   1426553.369 8
  20789918.019    -2356514.641 7  -1776029.213 9
  22151153.112     2163370.550 6   1640195.342 6
  21996477.479    -2837921.865 6  -2139983.760 6
  22558657.362    -2187508.311 6  -1598141.122 6
 95  2 19 16 17 29.9990000  0  5 25 14 15 22 29
  21713652.972     1944531.744 7   1475388.680 8
  20777565.925    -2421431.699 7  -1826613.944 9
  22164924.120     2235729.802 6   1696579.128 6
  21981343.089    -2917442.860 6  -2201948.143 6
  22546426.159    -2251792.777 6  -1648232.891 6
 95  2 19 16 17 59.9990000  0  5 25 14 15 22 29
  21725638.440     2007520.102 7   1524470.487 8
  20765284.347    -2485955.519 7  -1876892.258 9
  22178766.933     2308460.041 6   1753251.991 6
  21966289.448    -2996561.521 6  -2263599.032 6
  22534215.065    -2315966.969 6  -1698238.745 6
 95  2 19 16 18 29.9990000  0  5 25 14 15 22 29
  21737679.604     2070795.718 7   1573776.136 8
  20753079.854    -2550101.457 7
  22192669.401     2381530.347 6   1810189.853 6
  21951297.839    -3075325.740 6  -2324973.732 6
  22522023.901    -2380041.130 6
 95  2 19 16 18 59.9990000  0  5 25 14 15 22 29
  21749777.784     2134371.333 7   1623315.549 8
  20740947.229    -2613857.480 7  -1976556.137 9
  22206641.745     2454952.588 6   1867401.934 6
  21936384.347    -3153718.234 6  -2386058.754 6
  22509848.815    -2444008.761 6  -1798011.546 6
 95  2 19 16 19 29.9990000  0  5 25 14 15 22 29
  21761933.464     2198251.722 7   1673092.443 8
  20728899.034    -2677196.151 7  -2025910.949 9
  22220681.979     2528730.017 6   1924890.785 6
  21921534.854    -3231730.754 6  -2446847.720 6
  22497696.026    -2507856.549 6  -1847763.055 6
 95  2 19 16 19 59.9990000  0  5 25 14 15 22 29
  21774145.761     2262424.253 7   1723096.981 8
  20716920.503    -2740119.357 7  -2074942.029 9
  22234782.448     2602840.596 6   1982639.233 6
  21906765.159    -3309365.318 6  -2507342.183 6
  22485571.729    -2571595.401 6  -1897429.668 6
 95  2 19 16 20 29.9990000  0  5 25 14 15 22 29
  21786407.745     2326871.740 7   1773315.780 8
  20705025.776    -2802630.159 7  -2123651.748 9
  22248951.894     2677282.465 6   2040645.827 6
  21892069.081    -3386585.396 6  -2567513.672 6
  22473457.323    -2635235.471 6  -1947019.344 6
 95  2 19 16 20 59.9990000  0  5 25 14 15 22 29
  21798727.011     2391598.556 7   1823752.223 8
  20693212.870    -2864712.860 7  -2172027.878 8
  22263180.683     2752065.237 6   2098918.064 6
  21877460.784    -3463360.278 6  -2627338.242 6
  22461367.159    -2698776.771 6  -1996532.034 6
 95  2 19 16 21 29.9990000  0  5 25 14 15 22 29
  21811094.894     2456602.324 7   1874404.474 8
  20681482.261    -2926362.251 7  -2220066.372 9
  22277477.315     2827189.116 6   2157456.101 6
  21862935.854    -3539686.128 6  -2686812.915 7
  22449297.417    -2762203.551 6  -2045955.494 6
 95  2 19 16 21 59.9990000  0  5 25 14 15 22 29
  21823514.128     2521862.705 7   1925256.694 8
  20669825.269    -2987608.043 7  -2267790.377 9
  22291831.636     2902631.099 6   2216242.014 6
  21848495.183    -3615569.212 6  -2745942.576 7
  22437245.558    -2825541.467 6  -2095309.717 6
 95  2 19 16 22 29.9990000  0  5 25 14 15 22 29
  21835984.769     2587390.066 7   1976316.940 8
  20658250.261    -3048442.580 7  -2315193.915 9
  22306249.347     2978396.597 6   2275280.023 6
  21834141.401    -3691001.896 6  -2804721.273 7
  22425210.823    -2888778.234 6  -2144585.109 6
 95  2 19 16 22 59.9990000  0  5 25 14 15 22 29
  21848509.940     2653213.997 7   2027608.280 8
  20646754.964    -3108848.912 7  -2362263.793 9
  22320734.253     3054498.029 6   2334579.780 6
  21819874.878    -3765982.713 6  -2863147.878 7
  22413201.612    -2951885.891 6  -2193759.909 6
 95  2 19 16 23 29.9990000  0  5 25 14 15 22 29
  21861093.034     2719339.872 7   2079134.896 8
  20635341.433    -3168837.340 7  -2409008.026 9
  22335274.550     3130926.165 6   2394134.124 6
  21805684.550    -3840525.394 6  -2921233.089 6
  22401217.394    -3014867.059 6  -2242836.130 6
 95  2 19 16 23 59.9990000  0  5 25 14 15 22 29
  21873735.534     2785768.056 7   2130897.075 8
  20624004.597    -3228399.261 7  -2455419.916 8
  22349879.550     3207677.199 6   2453940.084 6
  21791588.698    -3914624.316 6  -2978972.498 7
  22389253.729    -3077727.213 6  -2291818.066 6
 95  2 19 16 24 29.9990000  0  5 25 14 15 22 29
  21886427.894     2852473.488 7   2182875.299 8
  20612750.026    -3287541.947 7  -2501505.130 9
  22364543.386     3284730.544 6   2513981.592 6
  21777564.261    -3988305.275 6  -3036386.225 7
  22377315.878    -3140480.843 6  -2340716.996 6
 95  2 19 16 24 59.9990000  0  5 25 14 15 22 29
  21899174.120     2919450.865 7   2235065.415 8
  20601577.261    -3346257.071 7  -2547257.182 9
  22379267.269     3362085.206 6   2574257.893 6
  21763627.722    -4061555.324 6  -3093464.171 7
  22365390.831    -3203131.322 6  -2389535.525 6
 95  2 19 16 25 29.9990000  0  5 25 14 15 22 29
  21911968.386     2986691.878 7   2287460.977 8
  20590488.706    -3404526.383 7  -2592661.840 9
  22394043.401     3439745.305 6   2634772.204 6
  21749770.847    -4134360.260 6  -3150195.272 7
  22353490.854    -3265671.232 6  -2438267.919 6
 95  2 19 16 25 59.9990000  0  5 25 14 15 22 29
  21924810.323     3054177.118 7   2340046.834 8
  20579484.315    -3462350.088 7  -2637719.286 9
  22408877.269     3517703.655 6   2695518.911 6
  21736003.495    -4206720.728 6  -3206580.049 7
  22341610.394    -3328102.784 6  -2486915.886 6
 95  2 19 16 26 29.9990000  0  5 25 14 15 22 29
  21937700.394     3121907.635 7   2392823.821 8
  20568567.628    -3519731.516 7  -2682432.082 9
  22423768.331     3595960.535 6   2756498.245 6
  21722319.722    -4278632.347 6  -3262615.064 7
  22329750.019    -3390418.885 6  -2535473.868 6
 95  2 19 16 26 59.9990000  0  5 25 14 15 22 29
  21950634.847     3189883.494 7   2445791.979 8
  20557729.159    -3576679.308 7  -2726806.997 9
  22438715.542     3674512.975 6   2817707.891 6
  21708719.729    -4350095.151 6  -3318300.364 7
  22317916.097    -3452628.616 6  -2583948.979 6
 95  2 19 16 27 29.9990000  0  5 25 14 15 22 29
  21963619.081     3258111.573 7   2498956.685 8
  20546975.956    -3633184.485 7  -2770837.002 9
  22453722.487     3753364.527 6   2879150.600 6
  21695211.362    -4421097.928 7  -3373627.205 7
  22306096.698    -3514719.423 6  -2632331.422 6
 95  2 19 16 27 59.9990000  0  5 25 14 15 22 29
  21976651.136     3326606.561 7   2552329.365 8
  20536309.237    -3689245.246 7  -2814520.722 9
  22468786.800     3832517.642 6   2940828.309 5
  21681786.519    -4491618.563 7  -3428578.347 7
  22294305.323    -3576691.197 6  -2680621.118 6
 95  2 19 16 28 29.9990000  0  5 25 14 15 22 29
  21989736.112     3395361.595 7   2605904.675 7
  20525722.026    -3744877.810 7  -2857870.777 9
  22483901.870     3911952.450 6   3002725.517 5
  21668459.644    -4561661.267 7  -3483157.060 7
  22282532.550    -3638558.562 6  -2728829.458 6
 95  2 19 16 28 59.9990000  0  5 25 14 15 22 29
  22002868.495     3464376.457 7   2659682.447 7
  20515219.206    -3800069.125 7  -2900876.998 9
  22499070.870     3991670.780 6   3064843.638 6
  21655223.972    -4631222.552 6  -3537360.644 7
  22270782.503    -3700311.538 6  -2776948.656 6
 95  2 19 16 29 29.9990000  0  5 25 14 15 22 29
  22016051.597     3533645.390 7   2713658.193 7
  20504804.589    -3854803.965 7  -2943527.535 9
  22514295.151     4071666.979 6   3127178.273 6
  21642075.565    -4700298.262 6  -3591185.857 7
  22259055.612    -3761950.499 6  -2824979.010 6
 95  2 19 16 29 59.9990000  0  5 25 14 15 22 29
  22029277.253     3603159.802 7   2767825.234 7
  20494475.972    -3909079.787 7  -2985820.395 9
  22529569.128     4151935.354 6   3189725.007 6
  21629024.472    -4768906.114 6  -3644646.514 7
  22247341.628    -3823492.919 6  -2872934.146 6
 95  2 19 16 30 29.9990000  0  5 25 14 15 22 29
  22042552.940     3672912.359 7   2822177.832 7
  20484237.323    -3962877.231 7  -3027740.493 9
  22544897.769     4232486.217 6   3252491.858 6
  21616055.683    -4837055.596 6  -3697749.992 7
  22235653.800    -3884924.325 6  -2920802.758 6
 95  2 19 16 30 59.9990000  0  5 25 14 15 22 29
  22055870.901     3742896.810 7   2876711.136 7
  20474094.058    -4016194.031 7  -3069286.061 9
  22560280.995     4313317.379 6   3315477.123 6
  21603169.589    -4904756.718 7  -3750504.102 7
  22223982.159    -3946249.689 6  -2968588.760 6
 95  2 19 16 31 29.9990000  0  5 25 14 15 22 29
  22069230.823     3813112.757 7   2931424.807 7
  20464036.995    -4069043.675 7  -3110467.603 9
  22575712.269     4394412.409 6   3378667.998 6
  21590372.479    -4972014.286 7  -3802912.588 7
  22212326.886    -4007490.370 6  -3016308.752 6
 95  2 19 16 31 59.9990000  0  5 25 14 15 22 29
  22082638.175     3883565.479 7   2986322.993 7
  20454064.612    -4121434.960 7  -3151291.993 9
  22591195.831     4475771.111 6   3442064.326 5
  21577659.706    -5038823.002 6  -3854971.307 7
  22200694.511    -4068627.460 6  -3063948.051 6
 95  2 19 16 32 29.9990000  0  5 25 14 15 22 29
  22096092.972     3954271.775 7   3041418.773 7
  20444181.081    -4173381.664 7  -3191769.955 9
  22606724.456     4557389.021 6   3505662.635 6
  21565032.964    -5105161.828 6  -3906663.874 7
  22189085.503    -4129646.026 6  -3111494.975 6
 95  2 19 16 32 59.9990000  0  5 25 14 15 22 29
  22109601.542     4025255.735 7   3096730.904 7
  20434379.667    -4224879.680 7  -3231898.284 9
  22622304.722     4639267.442 6   3569463.931 6
  21552509.761    -5170998.526 7  -3957965.177 7
  22177496.636    -4190536.223 6  -3158941.875 6
 95  2 19 16 33 29.9990000  0  5 25 14 15 22 29
  22123160.542     4096512.372 7   3152255.512 7
  20424670.558    -4275904.870 7  -3271658.184 9
  22637936.362     4721412.043 6   3633472.641 6
  21540084.401    -5236304.001 7  -4008852.536 7
  22165930.472    -4251286.820 6  -3206280.000 6
 95  2 19 16 33 59.9990000  0  5 25 14 15 22 29
  22136767.323     4168007.369 7   3207965.849 7
  20415049.511    -4326463.247 7  -3311054.335 9
  22653613.534     4803806.965 6   3697676.400 6
  21527750.253    -5301091.788 7  -4059336.516 7
  22154402.573    -4311912.296 6  -3253520.634 6
 95  2 19 16 34 29.9990000  0  5 25 14 15 22 29
  22150413.417     4239725.956 7   3263850.419 7
  20405522.440    -4376540.884 7  -3350075.885 9
  22669339.659     4886447.948 5   3762071.894 6
  21515521.104    -5365356.268 7  -4109412.721 7
  22142880.933    -4372430.246 6  -3300677.477 6
 95  2 19 16 34 59.9990000  0  5 25 14 15 22 29
  22164098.104     4311636.309 7   3319884.410 7
  20396088.487    -4426107.559 7  -3388699.280 9
  22685113.440     4969336.746 5   3826660.512 6
  21503390.948    -5429105.029 7  -4159087.070 7
  22131382.503    -4432853.447 6  -3347760.488 7
 95  2 19 16 35 29.9990000  0  6 25 18 14 15 22 29
  22177818.011     4383733.896 7   3376064.298 7
  24521047.073          -0.79013
  20386754.315    -4475146.586 7  -3426911.523 9
  22700937.019     5052480.079 5   3891447.452 6
  21491359.894    -5492347.858 7  -4208367.174 7
  22119902.550    -4493191.796 6  -3394777.378 6
 95  2 19 16 35 59.9990000  0  6 25 18 14 15 22 29
  22191574.526     4456023.788 7   3432394.029 7
  24504681.917      -86053.121 3        -0.02011
  20377521.339    -4523680.607 7  -3464730.256 9
  22716807.472     5135868.380 5   3956425.269 6
  21479412.878    -5555109.314 7  -4257272.191 7
  22108437.003    -4553446.465 6  -3441729.073 7
 95  2 19 16 36 29.9990000  0  6 25 18 14 15 22 29
  22205365.589     4528497.326 7   3488866.872 7
  24488305.120     -172079.329 3    -67033.437 1
  20368380.886    -4571730.002 7  -3502171.362 9
  22732719.019     5219485.055 5   4021581.051 6
  21467560.175    -5617391.963 7  -4305804.100 7
  22096981.698    -4613625.459 6  -3488621.781 7
 95  2 19 16 36 59.9990000  0  6 25 18 14 15 22 29
  22219195.065     4601176.592 7   3545500.011 7
  24471952.472     -258051.232 4   -134024.547 1
  20359325.542    -4619302.791 7  -3539241.084 9
  22748671.495     5303334.670 6   4086918.331 6
  21455802.901    -5679176.194 7  -4353947.630 7
  22085548.940    -4673712.416 6  -3535442.785 7
 95  2 19 16 37 29.9990000  0  6 25 18 14 15 22 29
  22233069.362     4674085.197 7   3602311.856 7
  24455597.534     -343974.045 3   -200977.402 1
  20350358.190    -4666413.849 7  -3575951.008 9
  22764672.862     5387413.386 6   4152434.146 5
  21444148.815    -5740440.234 7  -4401685.827 7
  22074138.815    -4733678.251 6  -3582169.405 7
 95  2 19 16 37 59.9990000  0  6 25 18 14 15 22 29
  22246989.776     4747238.303 7   3659314.226 7
  24439259.933     -429831.128 4   -267879.042 2
  20341482.394    -4713057.823 7  -3612296.970 9
  22780717.534     5471730.197 5   4218135.488 5
  21432596.144    -5801144.054 7  -4448987.491 7
  22062759.065    -4793484.852 6  -3628771.959 7
 95  2 19 16 38 29.9990000  0  6 25 18 14 15 22 29
  22260957.620     4820626.312 7   3716499.642 7
  24422932.190     -515641.344 4   -334744.161 1
  20332694.862    -4759233.815 7  -3648278.280 9
  22796803.964     5556270.469 5   4284010.935 5
  21421156.433    -5861271.005 7  -4495839.648 7
  22051399.659    -4853158.793 6  -3675271.130 7
 95  2 19 16 38 59.9990000  0  6 25 18 14 15 22 29
  22274967.011     4894253.353 6   3773871.309 7
  24406606.456     -601415.774 3   -401581.390 1
  20324000.026    -4804925.537 7  -3683882.227 9
  22812934.206     5641030.826 5   4350057.885 5
  21409821.979    -5920834.863 7
  22040069.823    -4912696.129 6
 95  2 19 16 39 29.9990000  0  6 25 18 14 15 22 29
  22289024.511     4968130.771 6   3831438.064 7
  24390287.401     -687159.415 3   -468394.636 1
  20315404.503    -4850103.859 7  -3719086.125 9
  22829110.245     5726028.514 5   4416289.782 5
  21398591.284    -5979841.036 7  -4588231.834 7
  22028772.323    -4972080.291 6  -3767937.237 7
 95  2 19 16 39 59.9990000  0  6 25 18 14 15 22 29
  22303127.628     5042241.876 7   3889186.925 7
  24373978.519     -772880.820 3   -535190.573 1
  20306901.542    -4894779.805 7  -3753898.566 9
  22845325.472     5811247.463 5   4482694.085 5
  21387465.729    -6038321.158 7  -4633800.740 8
  22017496.378    -5031342.479 6  -3814115.562 6
 95  2 19 16 40 29.9990000  0  6 25 18 14 15 22 29
  22317274.847     5116582.889 7   3947114.928 7
  24357672.331     -858567.035 3   -601959.031 1
  20298498.229    -4938936.239 7  -3788306.189 9
  22861585.480     5896689.954 5   4549272.561 5
  21376432.284    -6096284.135 7  -4678966.681 7
  22006242.073    -5090487.083 6  -3860202.268 7
 95  2 19 16 40 59.9990000  0  6 25 18 14 15 22 29
  22331459.714     5191126.258 6   4005200.618 7
  24341375.933     -944210.078 4   -668693.875 1
  20290191.612    -4982589.807 7  -3822321.970 9
  22877883.917     5982343.307 5   4616015.380 5
  21365494.628    -6153763.552 7  -4723755.830 8
  21995010.511    -5149507.475 6  -3906192.191 7
 95  2 19 16 41 29.9990000  0  6 25 18 14 15 22 29
  22345685.526     5265887.500 6   4063456.076 7
  24325089.761    -1029784.815 3   -735375.523 1
  20281985.800    -5025713.747 7  -3855925.060 9
  22894225.183     6068227.303 5   4682937.901 5
  21354657.347    -6210717.130 7  -4768135.218 7
  21983804.565    -5208384.949 6  -3952070.749 6
 95  2 19 16 41 59.9990000  0  6 25 18 14 15 22 29
  22359946.011     5340830.851 6   4121853.434 7
  24308814.769    -1115302.589 3   -802012.676 2
  20273878.690    -5068320.350 7  -3889125.028 9
  22910607.909     6154311.180 5   4750016.179 5
  21343917.800    -6267142.604 7  -4812103.100 8
  21972622.011    -5267151.948 7  -3997863.220 7
 95  2 19 16 42 29.9990000  0  6 25 18 14 15 22 29
  22374242.706     5415950.274 6   4180387.990 6
  24292560.854    -1200753.406 4   -868597.734 1
  20265874.925    -5110381.999 7  -3921900.345 8
  22927030.167     6240600.921 5   4817254.866 5
  21333284.300    -6323026.844 7  -4855649.232 8
  21961462.292    -5325797.682 6  -4043561.197 7
 95  2 19 16 42 59.9990000  0  6 25 18 14 15 22 29
  22388568.909     5491236.978 6   4239052.887 7
  24276298.339    -1286161.990 3   -935149.851 1
  20257973.245    -5151910.025 7  -3954259.859 8
  22943487.644     6327080.840 5   4884641.736 5
  21322751.511    -6378382.893 7  -4898783.808 7
  21950322.315    -5384334.572 6  -4089174.358 7
 95  2 19 16 43 29.9990000  0  6 25 18 14 15 22 29
  22402932.948     5566718.305 6   4297869.455 7
  24260058.081    -1371520.088 3  -1001662.646 1
  20250177.144    -5192882.907 7  -3986186.795 8
  22959982.229     6413765.545 5   4952188.170 5
  21312322.761    -6433171.701 7  -4941476.377 7
  21939207.808    -5442748.117 6  -4134691.395 7
 95  2 19 16 43 59.9990000  0  6 25 18 14 15 22 29
  22417330.190     5642385.840 6   4356831.101 6
  24243825.269    -1456830.057 3  -1068137.950 2
  20242478.589    -5233331.986 7  -4017705.564 8
  22976515.089     6500639.548 6   5019882.131 5
  21302001.800    -6487413.090 7  -4983742.377 8
  21928113.128    -5501045.356 7  -4180117.816 7
 95  2 19 16 44 29.9990000  0  6 25 18 14 15 22 29
  22431765.940     5718239.844 6   4415938.058 6
  24227600.128    -1542101.446 2  -1134583.161 3
  20234877.378    -5273278.541 7  -4048832.761 9
  22993078.729     6587691.958 5   5087715.104 5
  21291781.183    -6541123.580 7  -5025594.689 8
  21917042.714    -5559225.328 7  -4225452.855 7
 95  2 19 16 44 59.9990000  0  6 25 18 14 15 22 29
  22446244.237     5794318.896 6   4475220.384 6
  24211386.026    -1627314.102 2  -1200982.599 2
  20227371.542    -5312726.658 7  -4079571.565 9
  23009679.729     6674933.663 5   5155695.588 5
  21281668.245    -6594262.884 7  -5067001.920 8
  21905999.870    -5617269.160 7  -4270681.811 7
 95  2 19 16 45 29.9990000  0  6 25 18 14 15 22 29
  22460767.339     5870644.311 6   4534694.667 7
  24195181.573    -1712447.433 2  -1267320.216 2
  20219964.214    -5351663.847 7  -4109912.238 9
  23026320.159     6762380.904 5   5223836.220 5
  21271669.698    -6646802.097 7  -5107941.556 8
  21894978.839    -5675159.966 7  -4315791.525 7
 95  2 19 16 45 59.9990000  0  6 25 18 14 15 22 29
  22475333.511     5947183.399 6   4594335.445 6
  24178992.050    -1797522.299 3  -1333612.319 3
  20212646.081    -5390095.894 7  -4139859.289 9
  23042997.323     6850010.371 5   5292118.830 5
  21261781.659    -6698767.801 7  -5148434.298 8
  21883992.409    -5732924.584 7  -4360802.916 7
 95  2 19 16 46 29.9990000  0  6 25 18 14 15 22 29
  22489933.354     6023903.255 7   4654117.099 6
  24162811.792    -1882572.401 3  -1399885.095 2
  20205430.120    -5428020.819 7  -4169411.186 9
  23059705.800     6937802.058 5   5360527.869 5
  21252001.323    -6750174.587 7  -5188491.526 8
  21873018.753    -5790588.288 7  -4405735.678 7
 95  2 19 16 46 59.9990000  0  6 25 18 14 15 22 29
  22504569.409     6100813.891 6   4714047.408 6
  24146628.198    -1967587.085 3  -1466130.255 3
  20198318.972    -5465397.893 7  -4198536.192 9
  23076443.362     7025775.107 5   5429078.236 5
  21242327.315    -6801009.084 7  -5228102.808 8
  21862065.433    -5848131.581 7  -4450574.611 7
 95  2 19 16 47 29.9990000  0  6 25 18 14 15 22 29
  22519232.972     6177879.219 6   4774098.229 7
  24130454.065    -2052584.332 3  -1532361.845 2
  20191314.753    -5502214.783 7  -4227224.679 8
  23093216.737     7113919.943 5   5497762.426 5
  21232753.550    -6851298.262 7  -5267289.179 8
  21851138.792    -5905554.462 7  -4495319.706 7
 95  2 19 16 47 59.9990000  0  6 25 18 14 15 22 29
  22533926.925     6255093.056 6   4834264.782 6
  24114290.636    -2137548.794 3  -1598567.845 2
  20184415.144    -5538456.044 7  -4255464.634 8
  23110023.354     7202231.976 5   5566576.903 5
  21223291.050    -6901039.077 7  -5306048.245 7
  21840241.495    -5962842.620 7  -4539959.821 7
 95  2 19 16 48 29.9990000  0  6 25 18 14 15 22 29
  22548660.229     6332504.849 6   4894585.600 6
  24098132.440    -2222435.196 3  -1664713.033 2
  20177631.300    -5574099.193 7  -4283238.536 8
  23126864.495     7290741.797 5   5635545.517 4
  21213939.823    -6950193.404 7  -5344350.314 8
  21829371.909    -6019950.689 7  -4584459.626 7
 95  2 19 16 48 59.9990000  0  6 25 18 14 15 22 29
  22563429.253     6410129.536 6   4955072.311 6
  24082001.776    -2307227.990 3  -1730785.315 3
  20170961.315    -5609162.861 7  -4310560.884 9
  23143744.284     7379440.825 5   5704661.550 5
  21204700.019    -6998752.472 7  -5382188.540 7
  21818535.933    -6076880.157 7  -4628820.251 7
 95  2 19 16 49 29.9990000  0  6 25 18 14 15 22 29
  22578239.409     6487953.618 6   5015714.390 6
  24065881.675    -2391933.460 4  -1796789.516 2
  20164396.948    -5643680.978 7  -4337458.130 8
  23160655.808     7468309.682 5   5773909.926 5
  21195569.308    -7046712.193 7  -5419559.752 8
  21807732.589    -6133650.087 7  -4673056.553 7
 95  2 19 16 49 59.9990000  0  6 25 18 14 15 22 29
  22593082.245     6565963.863 6   5076501.521 6
  24049782.136    -2476565.774 3  -1862736.735 3
  20157920.112    -5677687.147 7  -4363956.454 8
  23177595.659     7557325.628 5   5843272.919 5
  21186557.894    -7094090.053 7  -5456477.561 8
  21796952.136    -6190300.172 7  -4717199.478 7
 95  2 19 16 50 29.9990000  0  6 25 18 14 15 22 29
  22607964.706     6644166.083 6   5137438.257 6
  24033688.636    -2561135.889 3  -1928635.487 2
  20151545.050    -5711190.676 7  -4390063.108 8
  23194562.847     7646490.777 5   5912752.159 5
  21177652.714    -7140883.339 7  -5492939.857 8
  21786191.464    -6246845.544 7  -4761260.810 7
 95  2 19 16 50 59.9990000  0  6 25 18 14 15 22 29
  22622880.253     6722545.753 6   5198513.245 6
  24017599.401    -2645652.161 4  -1994492.309 2
  20145273.229    -5744171.197 7  -4415762.229 9
  23211559.565     7735811.022 5   5982352.260 5
  21168857.792    -7187088.875 7  -5528944.163 8
  21775448.808    -6303286.764 7  -4805240.984 7
 95  2 19 16 51 29.9990000  0  6 25 18 14 15 22 29
  22637824.362     6801084.406 6   5259712.133 6
  24001522.245    -2730135.666 5  -2060323.606 3
  20139091.456    -5776620.343 7  -4441047.282 9
  23228583.339     7825277.902 5   6052066.614 5
  21160177.026    -7232719.625 7  -5564500.586 8
  21764732.698    -6359625.036 7  -4849140.931 7
 95  2 19 16 51 59.9990000  0  6 25 18 14 15 22 29
  22652804.987     6879789.395 6   5321040.640 6
  23985455.315    -2814586.068 4  -2126129.125 3
  20133026.308    -5808516.912 7  -4465901.764 9
  23245636.245     7914894.447 5   6121897.594 5
  21151601.690    -7277770.582 7  -5599605.219 8
  21754030.901    -6415850.218 7  -4892952.761 7
 95  2 19 16 52 29.9990000  0  6 25 18 14 15 22 29
  22667810.987     6958659.914 6   5382498.126 6
  23969387.269    -2899008.066 3  -2191912.469 4
  20127060.323    -5839844.806 7  -4490313.119 9
  23262719.128     8004660.233 5   6191844.845 5
  21143144.276    -7322224.492 7  -5634244.632 8
  21743360.550    -6471946.257 7  -4936663.963 7
 95  2 19 16 52 59.9990000  0  6 25 18 14 15 22 29
  22682850.698     7037690.753 6   5444080.522 6
  23953332.753    -2983390.336 4  -2257664.869 4
  20121214.433    -5870596.415 7  -4514275.420 9
  23279832.675     8094574.222 5   6261907.585 4
  21134795.979    -7366073.680 7  -5668412.831 8
  21732710.456    -6527898.702 7  -4980263.278 7
 95  2 19 16 53 29.9990000  0  6 25 18 14 15 22 29
  22697918.354     7116882.481 6   5505788.317 6
  23937282.300    -3067730.945 4  -2323384.773 3
  20115462.792    -5900794.004 7  -4537806.025 9
  23296968.401     8184619.369 5   6332072.546 5
  21126571.597    -7409318.147 7  -5702109.821 8
  21722090.909    -6583719.080 7  -5023759.682 7
 95  2 19 16 53 59.9990000  0  6 25 18 14 15 22 29
  22713025.956     7196260.311 6   5567641.131 6
  23921247.401    -3151985.995 5  -2389038.082 2
  20109833.237    -5930404.803 7  -4560879.389 9
  23314129.323     8274820.152 5   6402358.755 5
  21118460.011    -7451932.262 7  -5735315.617 8
  21711495.011    -6639383.150 7  -5067134.278 7
 95  2 19 16 54 29.9990000  0  6 25 18 14 15 22 29
  22728159.300     7275799.159 6   5629619.387 6
  23905228.120    -3236170.790 5  -2454636.586 1
  20104300.136    -5959456.080 7  -4583516.759 9
  23331321.167     8365148.858 5   6472744.679 5
  21110469.089    -7493943.806 7  -5768051.881 8
  21700928.511    -6694912.238 7  -5110403.686 7
 95  2 19 16 54 59.9990000  0  6 25 18 14 15 22 29
  22743326.581     7355494.155 6   5691719.300 6
  23889223.839    -3320283.565 5  -2520179.019 2
  20098882.456    -5987945.764 7  -4605716.517 9
  23348530.315     8455598.355 5   6543224.720 5
  21102585.659    -7535360.972 7  -5800325.002 8
  21690383.355    -6750312.467 7  -5153572.688 7
 95  2 19 16 55 29.9990000  0  6 25 18 14 15 22 29
  22758523.214     7435346.165 6   5753941.584 6
  23873228.112    -3404338.689 5  -2585676.450 2
  20093570.058    -6015868.469 7  -4627474.481 9
  23365763.354     8546162.483 5   6613794.088 4
  21094812.745    -7576192.723 7  -5832141.944 8
  21679867.987    -6805585.975 7  -5196642.964 7
 95  2 19 16 55 59.9990000  0  6 25 18 14 15 22 29
  22773747.683     7515355.286 6   5816286.307 6
  23857241.776    -3488335.997 5  -2651128.884 1
  20088364.026    -6043206.419 7  -4648776.784 8
  23383022.628     8636853.400 5   6684462.236 5
  21087160.058    -7616429.248 7  -5863495.072 8
  21669376.190    -6860711.114 7  -5239597.609 7
 95  2 19 16 56 29.9990000  0  6 25 18 14 15 22 29
  22788996.690     7595500.368 6   5878736.963 6
  23841263.722    -3572310.997 5  -2716563.897 1
  20083273.050    -6069983.077 7  -4669641.725 9
  23400302.097     8727653.914 5   6755215.779 5
  21079612.081    -7656080.539 7  -5894392.175 8
  21658910.948    -6915696.982 7  -5282443.728 7
 95  2 19 16 56 59.9990000  0  6 25 18 14 15 22 29
  22804274.167     7675772.825 6   5941286.870 6
  23825289.831    -3656258.565 4  -2781977.519 1
  20078282.073    -6096199.177 7  -4690069.866 8
  23417602.456     8818564.091 5   6826054.792 3
  21072180.925    -7695139.393 7  -5924827.648 8
  21648478.519    -6970541.338 7  -5325179.587 7
 95  2 19 16 57 29.9990000  0  6 25 18 14 15 22 29
  22819572.511     7756168.824 6   6003933.037 6
  23809309.628    -3740182.647 4  -2847372.897 1
  20073391.808    -6121881.015 7  -4710081.701 8
  23434919.831     8909570.521 5   6896968.816 4
  21064859.065    -7733615.247 7  -5954808.830 8
  21638066.894    -7025253.280 7  -5367812.271 7
 95  2 19 16 57 59.9990000  0  6 25 18 14 15 22 29
  22834896.425     7836694.852 6   6066680.520 6
  23793355.378    -3824051.993 3  -2912725.636 1
  20068611.065    -6147015.413 7  -4729666.958 8
  23452258.651     9000681.665 5   6967964.465 2
  21057648.229    -7771488.988 7  -5984320.832 8
  21627681.089    -7079837.469 7  -5410345.416 8
 95  2 19 16 58 29.9990000  0  6 25 18 14 15 22 29
  22850244.534     7917354.084 6   6129531.798 6
  23777416.956    -3907840.086 4  -2978015.071 1
  20063938.206    -6171589.829 7  -4748815.868 8
  23469616.315     9091895.331 5   7039039.925 2
  21050558.120    -7808745.045 7  -6013351.526 8
  21617312.456    -7134300.475 7  -5452784.112 8
 95  2 19 16 58 59.9990000  0  6 25 18 14 15 22 29
  22865622.565     7998157.347 6   6192495.310 6
  23761485.503    -3991528.348 3  -3043226.673 3
  20059367.464    -6195597.623 7  -4767523.262 8
  23486992.323     9183205.800 4   7110190.816 4
  21043588.495    -7845380.633 7  -6041898.737 8
  21606973.550    -7188654.053 7  -5495137.541 8
 95  2 19 16 59 29.9990000  0  6 25 18 14 15 22 29
  22881022.964     8079100.895 6   6255568.137 6
  23745579.979    -4075129.584 3  -3108370.450 2
  20054906.183    -6219030.332 7  -4785782.528 8
  23504385.175     9274602.488 4   7181408.923 4
  21036735.808    -7881407.785 7  -6069971.834 8
  21596647.558    -7242909.759 7  -5537414.718 7
 95  2 19 16 59 59.9990000  0  6 25 18 14 15 22 29
  22896454.097     8160179.008 6   6318745.829 6
  23729690.050    -4158645.248 3  -3173447.566 1
  20050559.511    -6241868.618 7  -4803578.611 8
  23521791.730     9366090.242 4   7252697.977 4
  21029997.628    -7916816.433 7  -6097562.982 8
  21586345.698    -7297049.699 7  -5579601.691 7
 95  2 19 17  0 29.9990000  0  6 25 18 14 15 22 29
  22911909.034     8241399.718 6   6382034.612 6
  23713808.948    -4242099.329 3  -3238476.704 2
  20046327.644    -6264114.424 7  -4820913.017 9
  23539217.190     9457669.089 4   7324058.001 5
  21023374.792    -7951605.070 7  -6124671.010 8
  21576071.636    -7351046.161 7  -5621676.858 8
 95  2 19 17  0 59.9990000  0  6 25 18 14 15 22 29
  22927393.901     8322766.542 6   6445437.265 6
  23697935.308    -4325527.000 3  -3303485.255 2
  20042204.558    -6285783.390 7  -4837797.936 9
  23556665.011     9549329.152 4   7395481.322 4
  21016863.956    -7985803.097 7  -6151318.816 8
  21565824.901    -7404902.906 7  -5663643.159 8
 95  2 19 17  1 29.9990000  0  6 25 18 14 15 22 29
  22942900.401     8404250.374 6   6508931.111 6
  23682055.097    -4408956.395 4  -3368495.165 3
  20038191.589    -6306887.960 7  -4854243.064 9
  23574115.354     9641058.966 4   7466958.990 4
  21010469.159    -8019413.245 7  -6177508.545 8
  21555601.995    -7458616.840 7  -5705498.173 8
 95  2 19 17  1 59.9990000  0  6 25 18 14 15 22 29
  22958429.190     8485858.046 6   6572521.434 6
  23666179.987    -4492382.347 4  -3433502.356 2
  20034284.245    -6327423.649 7  -4870244.907 9
  23591588.651     9732862.084 5   7538493.777 5
  21004192.081    -8052407.755 7  -6203218.543 8
  21545407.206    -7512170.039 7  -5747227.940 8
 95  2 19 17  2 29.9990000  0  6 25 18 14 15 22 29
  22973983.659     8567602.701 6   6636218.484 6
  23650311.034    -4575791.369 4  -3498496.383 5
  20030485.878    -6347380.807 7  -4885795.951 9
  23609073.292     9824740.530 5   7610087.284 3
  20998029.198    -8084781.695 7  -6228444.988 8
  21535247.870    -7565568.571 7  -5788837.185 8
 95  2 19 17  2 59.9990000  0  6 25 18 14 15 22 29
  22989566.026     8649485.069 6   6700022.848 6
  23634442.229    -4659151.831 5  -3563452.564 4
  20026800.698    -6366745.556 7  -4900885.375 9
  23626573.089     9916701.350 5   7681744.971 4
  20991991.503    -8116513.565 7  -6253171.116 8
  21525117.503    -7618815.684 7  -5830328.443 8
 95  2 19 17  3 29.9990000  0  6 25 18 14 15 22 29
  23005170.073     8731491.894 6   6763924.218 6
  23618595.245    -4742449.997 5  -3628360.182 4
  20023228.659    -6385514.745 7  -4915510.730 9
  23644088.370    10008736.432 5   7753460.535 4
  20986079.831    -8147585.865 7  -6277383.293 8
  21515012.698    -7671904.619 7  -5871696.458 8
 95  2 19 17  3 59.9990000  0  6 25 18 14 15 22 29
  23020801.605     8813631.714 6   6827929.227 6
  23602753.065    -4825677.581 5  -3693212.811 5
  20019767.542    -6403702.223 7  -4929682.802 8
  23661611.815    10100834.245 5   7825224.940 3
  20980287.159    -8178014.218 7  -6301093.693 8
  21504940.151    -7724847.705 7  -5912950.811 8
 95  2 19 17  4 29.9990000  0  6 25 18 14 15 22 29
  23036454.511     8895881.718 6   6892020.092 6
  23586927.714    -4908851.171 5  -3758023.369 5
  20016411.776    -6421336.739 7  -4943423.993 8
  23679144.104    10192975.410 5   7897023.162 2
  20974614.542    -8207831.655 7  -6324328.051 9
  21494888.354    -7777672.879 7  -5954113.286 8
 95  2 19 17  4 59.9990000  0  6 25 18 14 15 22 29
  23052125.987     8978233.164 6   6956189.969 6
  23571112.034    -4991968.698 5  -3822790.234 4
  20013161.597    -6438412.282 7  -4956729.623 8
  23696689.972    10285162.923 5   7968857.522 2
  20969057.995    -8237031.048 7  -6347080.826 9
  21484860.034    -7830361.152 7  -5995169.079 8
 95  2 19 17  5 29.9990000  0  6 25 18 14 15 22 29
  23067813.151     9060671.172 6   7020427.292 6
  23555303.870    -5075054.260 5  -3887532.219 4
  20010014.847    -6454946.131 7  -4969613.146 8
  23714234.065    10377376.704 5   8040712.298 4
  20963616.784    -8265647.556 7  -6369379.402 8
  21474856.737    -7882925.015 7  -6036127.946 8
 95  2 19 17  5 59.9990000  0  6 25 18 14 15 22 29
  23083518.104     9143210.214 6   7084743.372 6
  23539500.519    -5158093.675 5  -3952238.222 3
  20006974.995    -6470917.424 7  -4982058.329 8
  23731785.862    10469633.038 5   8112600.265 3
  20958286.729    -8293670.857 7  -6391215.735 9
  21464877.761    -7935360.005 7  -6076986.373 8
 95  2 19 17  6 29.9990000  0  6 25 18 14 15 22 29
  23099245.229     9225851.388 6   7149139.058 6
  23523707.589    -5241081.884 5  -4016904.338 4
  20004048.151    -6486298.255 7  -4994043.404 8
  23749359.128    10561941.140 5   8184528.568 3
  20953068.214    -8321085.688 7  -6412577.932 8
  21454928.292    -7987650.631 7  -6117732.305 8
 95  2 19 17  6 59.9990000  0  6 25 18 14 15 22 29
  23114989.558     9308578.895 6   7213602.015 5
  23507922.026    -5324036.735 5  -4081544.446 4
  20001233.347    -6501104.077 7  -5005580.423 8
  23766927.644    10654271.347 5   8256474.111 3
  20947959.276    -8347908.234 7  -6433478.614 8
  21445001.245    -8039822.944 7  -6158386.052 8
 95  2 19 17  7 29.9990000  0  6 25 18 14 15 22 29
  23130752.550     9391418.042 6   7278151.941 6
  23492146.862    -5406936.790 5  -4146141.863 4
  19998526.979    -6515320.824 7  -5016658.423 8
  23784504.183    10746635.714 4   8328446.245 3
  20942971.159    -8374107.150 7  -6453893.338 9
  21435095.284    -8091883.849 7  -6198952.989 8
 95  2 19 17  7 59.9990000  0  6 25 18 14 15 22 29
  23146535.519     9474361.885 6   7342783.425 5
  23476383.159    -5489785.203 5  -4210699.022 4
  19995930.706    -6528945.884 7  -5027275.374 8
  23802086.597    10839030.818 4   8400442.315 4
  20938112.487    -8399659.178 7  -6473804.007 9
  21425208.144    -8143839.674 7  -6239438.047 8
 95  2 19 17  8 29.9990000  0  7 25 18 14 15 22 29 19
  23162340.628     9557420.581 6   7407504.419 5
  23460625.714    -5572570.654 5  -4275207.156 3
  19993453.433    -6541968.616 7  -5037422.971 8
  23819675.112    10931466.300 4   8472469.830 4
  20933379.995    -8424549.592 7  -6493199.137 9
  21415342.909    -8195674.547 7  -6279828.846 8
  24436859.222          -0.66613
 95  2 19 17  8 59.9990000  0  7 25 18 14 15 22 29 19
  23178163.519     9640561.735 6   7472289.666 5
  23444883.276    -5655313.841 5  -4339682.341 2
  19991088.245    -6554414.163 7  -5047120.826 8
  23837270.495    11023916.458 5   8544508.795 4
  20928760.339    -8448810.167 7  -6512103.471 9
  21405495.925    -8247418.019 7  -6320148.433 8
  24418659.667      -95670.001 3        -0.31211
 95  2 19 17  9 29.9990000  0  7 25 18 14 15 22 29 19
  23193996.362     9723786.363 5   7537139.968 5
  23429144.081    -5738017.775 5  -4404126.941 3
  19988832.112    -6566266.245 7  -5056356.234 8
  23854868.526    11116391.842 5   8616567.426 3
  20924266.112    -8472434.244 7  -6530511.834 9
  21395671.706    -8299044.514 7  -6360376.863 8
  24400483.628     -191176.597 3    -74421.021 1
 95  2 19 17  9 59.9990000  0  7 25 18 14 15 22 29 19
  23209851.886     9807093.643 6   7602054.692 5
  23413410.472    -5820690.635 5  -4468547.352 4
  19986687.948    -6577528.684 7  -5065132.165 8
  23872468.339    11208887.508 5   8688641.829 5
  20919887.815    -8495443.681 7  -6548441.261 9
  21385874.729    -8350534.791 7  -6400499.146 8
  24382337.854     -286530.557 3   -148722.818 1
 95  2 19 17 10 29.9990000  0  7 25 18 14 15 22 29 19
  23225721.753     9890483.724 6   7667033.942 5
  23397688.565    -5903320.499 5  -4532934.210 3
  19984657.503    -6588205.023 7  -5073451.405 8
  23890073.761    11301399.295 5   8760728.824 3
  20915619.089    -8517855.979 7  -6565905.384 9
  21376106.237    -8401879.454 7  -6440507.969 8
  24364226.815     -381713.297 4   -222891.185 2
 95  2 19 17 10 59.9990000  0  7 25 18 14 15 22 29 19
  23241606.362     9973955.152 6   7732076.554 5
  23381971.019    -5985903.429 5  -4597284.531 5
  19982734.479    -6598296.928 7  -5081315.249 8
  23907678.472    11393922.698 5   8832824.885 3
  20911470.847    -8539670.179 7  -6582903.456 9
  21366363.886    -8453070.087 7  -6480396.779 8
  24346147.034     -476720.824 3   -296923.018 2
 95  2 19 17 11 29.9990000  0  7 25 18 14 15 22 29 19
  23257510.847    10057533.555 6   7797202.516 5
  23366267.315    -6068426.346 5  -4661588.084 5
  19980930.542    -6607794.475 7  -5088715.942 8
  23925288.894    11486464.929 4   8904935.580 2
  20907438.511    -8560861.011 7  -6599415.780 9
  21356652.495    -8504093.351 7  -6520155.176 8
  24328103.909     -571533.286 3   -370802.870 1
 95  2 19 17 11 59.9990000  0  7 25 18 14 15 22 29 19
  23273431.237    10141192.474 5   7862391.190 5
  23350578.933    -6150897.356 5  -4725851.175 2
  19979227.722    -6616730.817 7  -5095679.345 8
  23942898.136    11578995.624 4   8977037.314 1
  20903517.651    -8581454.520 7  -6615462.671 9
  21346970.144    -8554988.446 7  -6559813.692 8
  24310098.198     -666157.850 3   -444536.318 2
 95  2 19 17 12 29.9990000  0  7 25 18 14 15 22 29 19
  23289368.120    10224941.886 6   7927650.406 5
  23334892.534    -6233295.824 5  -4790057.737 3
  19977642.636    -6625073.711 7  -5102180.310 8
  23960508.558    11671535.606 4   9049146.264 2
  20899721.050    -8601414.194 7  -6631015.659 9
  21337311.573    -8605741.902 7  -6599361.851 8
  24292134.964     -760556.765 3   -518093.879 1
 95  2 19 17 12 59.9990000  0  7 25 18 14 15 22 29 19
  23305317.651    10308756.200 6   7992960.201 5
  23319223.409    -6315659.106 5  -4854236.907 4
  19976162.644    -6632845.733 7  -5108236.447 8
  23978111.808    11764057.293 4   9121240.944 3
  20896040.440    -8620751.536 7  -6646083.720 9
  21327670.612    -8656391.972 7  -6638829.444 8
  24274205.995     -854764.570 3   -591502.543 2
 95  2 19 17 13 29.9990000  0  7 25 18 14 15 22 29 19
  23321278.956    10392649.639 6   8058331.661 5
  23303558.776    -6397972.505 5  -4918377.184 4
  19974795.886    -6640028.358 7  -5113833.310 8
  23995719.753    11856571.978 3   9193330.190 1
  20892483.901    -8639444.117 7  -6660649.363 9
  21318054.065    -8706934.168 7  -6678212.969 8
  24256321.448     -948769.938 3   -664753.450 2
 95  2 19 17 13 59.9990000  0  7 25 18 14 15 22 29 19
  23337255.440    10476600.852 5   8123748.141 5
  23287901.862    -6480241.668 5  -4982483.018 4
  19973539.019    -6646625.550 7  -5118974.001 8
  24013326.198    11949074.498 3   9265409.914 1
  20889049.495    -8657495.111 7  -6674715.063 9
  21308459.886    -8757365.640 7  -6717510.223 8
  24238464.019    -1042583.639 3   -737855.031 1
 95  2 19 17 14 29.9990000  0  7 25 18 14 15 22 29 19
  23353242.831    10560594.046 6   8189197.283 6
  23272249.097    -6562490.832 5  -5046573.241 4
  19972397.151    -6652637.691 7  -5123658.806 8
  24030917.831    12041547.379 3   9337466.612 1
  20885732.925    -8674919.802 7  -6688292.734 9
  21298880.776    -8807688.248 7  -6756722.655 8
  24220644.933    -1136236.539 4   -810831.259 2
 95  2 19 17 14 59.9990000  0  7 25 18 14 15 22 29 19
  23369237.089    10644661.851 6   8254704.573 5
  23256609.120    -6644686.220 5  -5110621.555 4
  19971364.261    -6658044.811 7  -5127872.163 8
  24048510.284    12134005.900 3   9409512.030 1
  20882538.425    -8691714.003 7  -6701379.121 9
  21289332.698    -8857871.209 7  -6795826.267 8
  24202854.894    -1229704.867 3   -883663.692 2
 95  2 19 17 15 29.9990000  0  7 25 18 14 15 22 29 19
  23385249.800    10728806.992 6   8320272.144 5
  23240978.042    -6726822.605 5  -5174623.895 4
  19970453.089    -6662846.512 7  -5131613.756 8
  24066105.800    12226450.011 3   9481546.262 1
  20879458.331    -8707880.579 7  -6713976.450 9
  21279813.519    -8907893.767 7  -6834804.886 8
  24185111.612    -1322981.260 3   -956346.543 2
 95  2 19 17 15 59.9990000  0  7 25 18 14 15 22 29 19
  23401268.776    10812986.913 6   8385866.826 5
  23225353.956    -6808946.366 5  -5238616.390 5
  19969646.026    -6667087.822 7  -5134918.695 8
  24083684.401    12318840.277 3   9553538.632 1
  20876497.276    -8723463.983 7  -6726119.362 9
  21270318.097    -8957784.115 7  -6873680.482 9
  24167389.206    -1416097.647 3  -1028904.689 1
 95  2 19 17 16 29.9990000  0  7 25 18 14 15 22 29 19
  23417301.034    10897229.348 6   8451510.220 6
  23209730.144    -6891036.927 5  -5302583.026 5
  19968945.769    -6670750.809 7  -5137772.987 8
  24101261.940    12411192.499 4   9625501.237 1
  20873644.925    -8738449.808 7  -6737796.628 9
  21260855.440    -9007518.745 7  -6912434.734 8
  24149701.354    -1509032.093 4  -1101321.072 4
 95  2 19 17 16 59.9990000  0  7 25 18 14 15 22 29 19
  23433342.667    10981542.603 5   8517208.782 5
  23194119.964    -6973080.649 5  -5366513.164 4
  19968360.206    -6673843.924 7  -5140183.226 8
  24118830.550    12503516.753 4   9697442.126 1
  20870909.792    -8752808.011 7  -6748984.840 9
  21251423.339    -9057090.753 7  -6951062.286 8
  24132052.581    -1601771.406 4  -1173585.438 4
 95  2 19 17 17 29.9990000  0  7 25 18 14 15 22 29 19
  23449396.831    11065894.063 5   8582937.118 5
  23178509.620    -7055110.969 5  -5430432.888 5
  19967876.925    -6676392.490 7  -5142169.134 8
  24136389.979    12595788.082 5   9769341.746 3
  20868296.347    -8766539.531 7  -6759684.722 9
  21242014.854    -9106531.735 7  -6989587.724 8
  24114437.972    -1694357.264 3  -1245730.194 3
 95  2 19 17 17 59.9990000  0  7 25 18 14 15 22 29 19
  23465456.636    11150302.026 6   8648709.474 6
  23162905.636    -7137111.608 5  -5494329.443 3
  19967497.761    -6678375.426 7  -5143714.297 8
  24153939.308    12688011.363 5   9841203.934 3
  20865808.120    -8779644.491 7  -6769896.386 9
  21232627.042    -9155847.523 7  -7028015.618 8
  24096847.050    -1786779.088 3  -1317747.148 4
 95  2 19 17 18 29.9990000  0  7 25 18 14 15 22 29 19
  23481534.854    11234789.120 6   8714543.510 5
  23147312.628    -7219051.635 5  -5558178.784 5
  19967229.808    -6679767.917 7  -5144799.375 8
  24171479.995    12780201.928 5   9913040.638 3
  20863435.706    -8792105.218 7  -6779606.040 9
  21223270.073    -9205026.174 7  -7066336.646 8
  24079295.409    -1879019.951 3  -1389623.085 3
 95  2 19 17 18 59.9990000  0  7 25 18 14 15 22 29 19
  23497624.323    11319347.078 6   8780432.767 5
  23131730.206    -7300940.569 5  -5621988.305 5
  19967078.612    -6680573.726 7  -5145427.292 8
  24189015.855    12872348.010 5   9984842.656 5
  20861185.011    -8803923.666 7  -6788815.221 9
  21213933.644    -9254084.489 7  -7104563.908 8
  24061772.722    -1971087.630 3  -1461364.078 3
 95  2 19 17 19 29.9990000  0  7 25 18 14 15 22 29 19
  23513733.042    11403986.231 5   8846385.309 5
  23116157.456    -7382765.151 5  -5685747.707 5
  19967043.167    -6680766.863 7
  24206544.354    12964454.746 5  10056614.019 5
  20859053.433    -8815109.232 7  -6797531.250 9
  21204626.519    -9303009.491 7  -7142687.289 8
  24044291.354    -2062972.700 4  -1532962.788 4
 95  2 19 17 19 59.9990000  0  7 25 18 14 15 22 29 19
  23529845.034    11488678.691 5   8912379.377 5
  23100596.112    -7464536.762 5  -5749465.820 5
  19967120.675    -6680364.883 7
  24224060.909    13056505.764 5  10128341.960 4
  20857041.800    -8825677.513 7  -6805766.272 9
  21195340.808    -9351800.633 7  -7180706.357 8
  24026839.870    -2154667.317 4  -1604413.068 5
 95  2 19 17 20 29.9990000  0  7 25 18 14 15 22 29 19
  23545969.698    11573394.913 5   8978391.958 5
  23085042.097    -7546269.115 5  -5813153.362 5
  19967308.386    -6679381.919 7  -5144498.675 8
  24241565.558    13148490.785 5  10200018.493 3
  20855150.308    -8835620.298 7  -6813513.899 9
  21186081.894    -9400453.740 7  -7218617.863 8
  24009429.245    -2246179.122 4  -1675720.926 3
 95  2 19 17 20 59.9990000  0  7 25 18 14 15 22 29 19
  23562094.081    11658128.529 5   9044418.070 5
  23069498.628    -7627971.313 5  -5876817.371 5
  19967608.128    -6677812.701 7  -5143275.925 8
  24259059.534    13240407.276 3  10271641.607 4
  20853380.284    -8844940.284 7  -6820776.220 9
  21176850.940    -9448968.045 7  -7256421.220 8
  23992051.894    -2337499.504 4  -1746879.641 4
 95  2 19 17 21 29.9990000  0  7 25 18 14 15 22 29 19
  23578223.683    11742891.486 5   9110467.072 5
  23053954.644    -7709629.837 5  -5940447.384 5
  19968021.456    -6675631.826 7  -5141576.560 8
  24276537.745    13332274.478 3  10343226.301 2
  20851727.175    -8853620.497 7  -6827540.021 9
  21167648.370    -9497328.635 7  -7294104.781 8
  23974715.612    -2428595.483 4  -1817863.469 3
 95  2 19 17 21 59.9990000  0  7 25 18 14 15 22 29 19
  23594356.479    11827660.340 5   9176520.660 5
  23038423.167    -7791274.938 5  -6004066.944 5
  19968542.847    -6672872.398 7  -5139426.377 8
  24294006.597    13424060.470 2  10414747.761 2
  20850193.628    -8861680.836 7  -6833820.803 9
  21158463.808    -9545581.561 7  -7331704.467 8
  23957417.542    -2519488.946 4  -1888689.503 4
 95  2 19 17 22 29.9990000  0  6 25 18 14 22 29 19
  23610490.675    11912456.271 5   9242595.330 5
  23022891.987    -7872890.169 5  -6067663.192 5
  19969185.769    -6669519.115 7  -5136813.447 8
  20848778.097    -8869124.848 7  -6839621.330 9
  21149303.472    -9593727.771 7  -7369220.983 8
  23940161.792    -2610181.102 5  -1959358.698 2
 95  2 19 17 22 59.9990000  0  6 25 18 14 22 29 19
  23626633.050    11997288.762 5   9308698.490 5
  23007364.784    -7954469.588 5  -6131231.561 5
  19969933.026    -6665573.748 7  -5133739.155 8
  20847479.870    -8875951.762 7  -6844940.993 9
  21140161.128    -9641766.650 7  -7406653.873 8
  23922941.620    -2700671.294 5  -2029870.508 2
 95  2 19 17 23 29.9990000  0  6 25 18 14 22 29 19
  23642781.058    12082150.266 5   9374824.280 5
  22991848.222    -8036009.864 5  -6194769.404 5
  19970797.683    -6661048.180 7  -5130212.759 7
  20846299.401    -8882154.062 7  -6849773.950 9
  21131040.761    -9689695.613 7  -7444001.115 8
  23905756.409    -2790975.538 5  -2100237.420 2
 95  2 19 17 23 59.9990000  0  6 25 18 14 22 29 19
  23658940.222    12167053.636 5   9440982.698 4
  22976345.276    -8117476.687 5  -6258250.017 5
  19971770.175    -6655934.774 7  -5126228.296 8
  20845238.503    -8887718.267 7  -6854109.691 9
  21121949.589    -9737474.865 7  -7481231.709 8
  23888610.214    -2881086.739 4  -2170453.927 2
 95  2 19 17 24 29.9990000  0  6 25 18 14 22 29 19
  23675098.425    12251970.608 5   9507151.708 5
  22960853.222    -8198892.880 5  -6321691.190 5
  19972854.229    -6650243.157 7  -5121793.307 8
  20844297.940    -8892658.704 7  -6857959.375 9
  21112887.573    -9785095.726 7  -7518338.869 8
  23871496.050    -2971013.888 4  -2240526.998 2
 95  2 19 17 24 59.9990000  0  7 25 18 14 15 22 29 19
  23691264.534    12336918.289 5   9573344.653 4
  22945372.144    -8280248.023 5  -6385084.788 5
  19974051.198    -6643944.344 7  -5116885.159 8
  24398514.370       91346.493 3
  20843481.276    -8896945.524 7  -6861299.752 9
  21103858.714    -9832546.668 7  -7555313.629 8
  23854424.487    -3060733.307 5  -2310438.223 1
 95  2 19 17 25 29.9990000  0  7 25 18 14 15 22 29 19
  23707434.464    12421894.290 5   9639559.636 4
  22929903.229    -8361540.177 5  -6448429.294 5
  19975363.573    -6637037.548 7  -5111503.263 8
  24415881.917      182611.710 3
  20842787.972    -8900591.603 7  -6864140.849 9
  21094859.925    -9879833.890 7  -7592160.811 8
  23837389.854    -3150242.633 5  -2380185.719 1
 95  2 19 17 25 59.9990000  0  7 25 18 14 15 22 29 19
  23723610.870    12506908.396 5   9705804.295 4
  22914443.526    -8442770.722 5  -6511725.797 5
  19976793.729    -6629523.546 7  -5105648.214 8
  24433230.050      273792.036 4        -0.43011
  20842219.011    -8903603.466 7  -6866487.759 9
  21085891.386    -9926960.576 7  -7628882.910 8
  23820400.683    -3239543.279 4  -2449770.581 3
 95  2 19 17 26 29.9990000  0  7 25 18 14 15 22 29 19
  23739803.214    12591997.008 5   9772107.022 5
  22899005.737    -8523912.986 5  -6574953.503 5
  19978343.245    -6621370.480 7  -5099295.205 8
  24450570.698      364914.117 5     71003.696 1
  20841772.565    -8905950.874 7  -6868316.912 9
  21076956.136    -9973915.301 7  -7665471.003 9
  23803447.472    -3328610.788 4  -2519173.796 2
 95  2 19 17 26 59.9990000  0  7 25 18 14 15 22 29 19
  23756011.331    12677165.068 5   9838471.664 5
  22883586.620    -8604943.850 5  -6638094.414 5
  19980018.183    -6612591.667 7  -5092454.589 8
  24467896.948      455971.993 5    141957.810 1
  20841448.253    -8907639.329 7  -6869632.588 9
  21068050.714   -10020712.516 7  -7701936.360 9
  23786544.019    -3417463.019 4  -2588409.282 3
 95  2 19 17 27 29.9990000  0  7 25 18 14 15 22 29 19
  23772232.940    12762413.378 5   9904898.868 5
  22868187.222    -8685862.470 5  -6701147.847 5
  19981804.144    -6603212.396 7  -5085146.089 8
  24485214.136      546968.820 5
  20841249.089    -8908671.430 7  -6870436.815 9
  21059178.237   -10067335.780 7  -7738266.173 8
  23769670.620    -3506118.192 4  -2657491.235 2
 95  2 19 17 27 59.9990000  0  7 25 18 14 15 22 29 19
  23788466.440    12847720.334 5   9971371.756 4
  22852803.183    -8766697.112 5  -6764135.848 5
  19983696.901    -6593245.354 7  -5077379.581 8
  24502516.104      637887.644 5        -0.29511
  20841179.479    -8909057.934 7
  21050338.042   -10113791.039 7  -7774465.077 8
  23752832.792    -3594598.854 4  -2726437.164 2
 95  2 19 17 28 29.9990000  0  7 25 18 14 15 22 29 19
  23804715.933    12933109.923 5  10037909.038 4
  22837445.854    -8847416.136 5  -6827033.767 5
  19985713.323    -6582649.052 7  -5069122.739 8
  24519811.870      728761.737 4     70810.646 1
  20841235.815    -8908769.618 7
  21041537.956   -10160036.029 7  -7810500.135 9
  23736030.894    -3682862.880 3  -2795214.310 2
 95  2 19 17 28 59.9990000  0  7 25 18 14 15 22 29 19
  23820982.995    13018592.824 5  10104519.015 4
  22822103.440    -8928025.392 5  -6889846.154 5
  19987854.253    -6571416.092 7  -5060369.811 8
  24537093.323      819592.877 4    141588.132 1
  20841416.042    -8907799.444 7  -6869757.345 9
  21032781.136   -10206051.118 7  -7846356.051 9
  23719281.698    -3770897.172 3  -2863812.425 2
 95  2 19 17 29 29.9990000  0  6 25 18 14 22 29 19
  23837270.253    13104183.429 5  10171212.892 5
  22806782.151    -9008541.515 5  -6952585.963 5
  19990115.636    -6559524.801 7  -5051103.886 8
  20841734.081    -8906136.530 7  -6868461.570 9
  21024075.722   -10251810.159 7  -7882012.453 8
  23702584.229    -3858660.685 4  -2932199.587 3
 95  2 19 17 29 59.9990000  0  6 25 18 14 22 29 19
  23853576.401    13189885.235 5  10237993.445 5
  22791483.151    -9088952.487 5  -7015243.837 5
  19992507.151    -6546949.360 7  -5041304.861 8
  20842186.620    -8903770.195 7  -6866617.671 9
  21015414.706   -10297318.506 7  -7917473.505 9
  23685936.401    -3946121.445 5  -3000350.772 4
 95  2 19 17 30 29.9990000  0  6 25 18 14 22 29 19
  23869914.081    13275717.774 5  10304875.841 5
  22776204.604    -9169228.183 5  -7077796.305 5
  19995035.159    -6533681.690 7  -5030966.433 8
  20842771.597    -8900677.276 7  -6864207.605 9
  21006802.011   -10342579.516 7  -7952741.832 9
  23669360.487    -4033254.350 5  -3068246.513 3
 95  2 19 17 30 59.9990000  0  6 25 18 14 22 29 19
  23886275.565    13361706.189 5  10371879.699 5
  22760960.761    -9249335.024 5  -7140217.199 5
  19997691.370    -6519704.591 7  -5020075.216 8
  20843510.628    -8896814.977 7  -6861198.016 9
  20998238.964   -10387575.928 7  -7987803.967 9
  23652848.526    -4120031.022 5  -3135864.693 3
 95  2 19 17 31 29.9990000  0  6 25 18 14 22 29 19
  23902669.378    13447861.693 5  10439013.778 5
  22745757.136    -9329233.251 5  -7202475.537 5
  20000496.378    -6504983.079 7  -5008603.928 8
  20844395.042    -8892139.485 7  -6857554.775 9
  20989730.511   -10432289.224 7  -8022645.497 9
  23636404.870    -4206427.410 4  -3203186.514 4
 95  2 19 17 31 59.9990000  0  6 25 18 14 22 29 19
  23919095.979    13534184.992 5  10506278.602 5
  22730599.542    -9408890.264 5  -7264545.907 5
  20003437.886    -6489505.491 7  -4996543.489 8
  20845448.612    -8886633.933 7  -6853264.734 9
  20981277.065   -10476711.599 7  -8057260.332 9
  23620036.401    -4292461.341 5  -3270225.910 4
 95  2 19 17 32 29.9990000  0  6 25 18 14 22 29 19
  23935553.800    13620679.271 5  10573676.685 5
  22715489.378    -9488297.389 5  -7326421.565 5
  20006532.175    -6473268.873 7  -4983891.597 8
  20846647.933    -8880305.658 7  -6848333.608 9
  20972883.495   -10520818.651 7  -8091629.459 9
  23603731.745    -4378133.740 5  -3336983.606 3
 95  2 19 17 32 59.9990000  0  6 25 18 14 22 29 19
  23952046.597    13707343.915 5  10641207.505 5
  22700424.776    -9567452.119 5  -7388100.551 5
  20009765.870    -6456254.148 7  -4970633.388 8
  20848014.245    -8873146.566 7  -6842755.095 9
  20964554.886   -10564584.851 7  -8125732.992 9
  23587498.245    -4463433.748 5  -3403451.103 5
 95  2 19 17 33 29.9990000  0  6 25 18 14 22 29 19
  23968573.901    13794191.179 4  10708880.592 5
  22685416.159    -9646335.699 6  -7449568.249 5
  20013157.229    -6438435.397 7  -4956748.677 8
  20849532.690    -8865156.167 7  -6836528.808 9
  20956297.206   -10607979.088 7  -8159546.681 9
  23571342.683    -4548342.529 5  -3469613.749 3
 95  2 19 17 33 59.9990000  0  6 25 18 14 22 29 19
  23985140.519    13881256.532 3  10776723.584 5
  22670458.394    -9724930.339 6  -7510810.798 5
  20016704.987    -6419802.283 7  -4942229.382 8
  20851209.026    -8856337.445 7  -6829657.077 9
  20948117.112   -10650964.265 7  -8193041.626 9
  23555263.464    -4632830.436 5  -3535448.456 4
 95  2 19 17 34 29.9990000  0  6 25 18 14 22 29 19
  24001758.604    13968575.955 3  10844764.574 5
  22655564.081    -9803204.813 6  -7571803.864 5
  20020408.448    -6400323.046 7  -4927050.777 8
  20853054.386    -8846662.547 7  -6822118.187 9
  20940018.948   -10693522.529 7  -8226203.919 9
  23539274.636    -4716851.020 5  -3600918.985 4
 95  2 19 17 34 59.9990000  0  6 25 18 14 22 29 19
  24018426.448    14056157.961 5  10913010.196 5
  22640730.253    -9881149.296 6  -7632539.785 5
  20024283.901    -6379978.750 7  -4911198.112 8
  20855057.081    -8836116.232 7  -6813900.281 9
  20932002.604   -10735651.373 7  -8259031.587 9
  23523375.222    -4800400.044 5  -3666022.086 5
 95  2 19 17 35 29.9990000  0  6 25 18 14 22 29 19
  24035147.315    14144043.858 5  10981492.616 5
  22625965.269    -9958732.613 6  -7692994.291 5
  20028323.519    -6358745.797 7  -4894652.977 8
  20857233.151    -8824682.681 7  -6804991.014 9
  20924076.394   -10777310.463 7  -8291493.203 9
  23507570.058    -4883451.454 5  -3730737.423 5
 95  2 19 17 35 59.9990000  0  6 25 18 14 22 29 19
  24051941.581    14232282.085 5  11050249.581 5
  22611277.690   -10035926.795 6  -7753145.568 5
  20032537.159    -6336587.629 7  -4877386.899 8
  20859588.925    -8812316.481 7  -6795355.011 9
  20916242.331   -10818467.900 7  -8323563.935 9
  23491869.800    -4965961.184 5  -3795030.683 4
 95  2 19 17 36 29.9990000  0  6 25 18 14 22 29 19
  24068794.979    14320878.873 5  11119285.932 5
  22596665.097   -10112717.888 6  -7812982.774 5
  20036939.222    -6313477.328 7  -4859378.894 8
  20862123.105    -8798988.442 7  -6784969.517 9
  20908507.948   -10859117.027 7  -8355238.580 9
  23476276.558    -5047911.385 5  -3858887.926 4
 95  2 19 17 36 59.9990000  0  6 25 18 14 22 29 19
  24085738.401    14409871.368 5  11188630.634 4
  22582136.597   -10189072.549 6  -7872479.877 5
  20041522.956    -6289378.980 7  -4840600.990 8
  20864853.269    -8784648.043 7  -6773795.188 9
  20900882.651   -10899186.691 7  -8386461.694 9
  23460799.894    -5129244.211 4  -3922264.112 3
 95  2 19 17 37 29.9990000  0  6 25 18 14 22 29 19
  24102750.737    14499285.472 4  11258303.855 4
  22567694.206   -10264964.064 6  -7931616.081 5
  20046294.831    -6264287.227 7  -4821048.999 8
  20867782.019    -8769264.127 7  -6761807.717 9
  20893372.308   -10938656.463 7  -8417217.365 9
  23445447.433    -5209920.873 5  -3985129.001 3
 95  2 19 17 37 59.9990000  0  6 25 18 14 22 29 19
  24119854.472    14589143.588 4  11328323.053 4
  22553347.979   -10340355.716 6  -7990362.806 5
  20051269.026    -6238163.877 7  -4800693.161 8
  20870911.604    -8752799.495 7  -6748978.134 9
  20885978.651   -10977512.931 7  -8447495.123 9
  23430224.464    -5289912.752 5  -4047460.288 4
 95  2 19 17 38 29.9990000  0  6 25 18 14 22 29 19
  24137044.253    14679476.925 4  11398712.609 2
  22539103.933   -10415196.347 6  -8048680.157 5
  20056445.058    -6210969.581 7  -4779502.828 8
  20874258.120    -8735214.963 7  -6735275.900 9
  20878705.229   -11015728.802 7  -8477273.719 9
  23415138.417    -5369186.376 5  -4109231.924 4
 95  2 19 17 38 59.9990000  0  6 25 18 14 22 29 19
  24154323.440    14770292.938 5  11469478.273 1
  22524970.792   -10489476.209 6  -8106560.545 5
  20061820.644    -6182715.566 7  -4757486.743 8
  20877818.870    -8716514.062 7  -6720703.777 9
  20871556.964   -11053296.574 7  -8506547.300 9
  23400189.292    -5447749.816 5  -4170450.169 3
 95  2 19 17 39 29.9990000  0  6 25 18 14 22 29 19
  24171716.675    14861685.455 5  11540693.137 1
  22510958.565   -10563111.638 6  -8163938.775 5
  20067413.519    -6153314.008 7  -4734576.458 8
  20881605.425    -8696625.779 7  -6705206.426 9
  20864541.948   -11090158.343 7  -8535270.762 9
  23385384.089    -5525556.673 5  -4231078.877 4
 95  2 19 17 39 59.9990000  0  6 25 18 14 22 29 19
  24189215.534    14953656.907 5  11612359.095 1
  22497066.964   -10636110.420 6  -8220820.909 5
  20073227.331    -6122762.629 7  -4710770.211 8
  20885612.886    -8675559.699 7  -6688791.310 9
  20857659.831   -11126326.191 7  -8563453.494 9
  23370719.886    -5602626.989 5  -4291133.646 3
 95  2 19 17 40 29.9990000  0  6 25 18 14 22 29 19
  24206834.784    15046251.808 5  11684510.885 2
  22483303.862   -10708435.484 6  -8277178.089 5
  20079268.089    -6091034.618 7  -4686047.118 8
  20889853.464    -8653271.645 7  -6671424.018 9
  20850917.558   -11161756.369 7  -8591061.428 9
  23356195.909    -5678920.658 5  -4350583.232 3
 95  2 19 17 40 59.9990000  0  6 25 18 14 22 29 19
  24224574.737    15139477.914 5  11757154.533 4
  22469673.065   -10780068.292 6  -8332995.849 5
  20085532.526    -6058110.551 7  -4660392.022 8
  20894327.417    -8629748.791 7  -6653094.536 9
  20844323.237   -11196406.183 7  -8618061.282 9
  23341832.136    -5754417.042 5  -4409411.595 2
 95  2 19 17 41 29.9990000  0  6 25 18 14 22 29 19
  24242441.464    15233363.750 5  11830312.251 4
  22456179.917   -10850972.164 6  -8388245.588 6
  20092034.870    -6023947.882 7  -4633771.787 8
  20899046.081    -8604949.298 7  -6633770.276 9
  20837884.761   -11230240.234 7  -8644425.480 9
  23327629.503    -5829065.584 5  -4467579.274 3
 95  2 19 17 41 59.9990000  0  6 25 18 14 22 29 19
  24260429.995    15327884.495 5  11903964.693 5
  22442828.183   -10921143.090 6  -8442924.206 6
  20098769.894    -5988553.709 7  -4606191.937 8
  20904007.058    -8578878.605 7  -6613455.469 9
  20831605.120   -11263247.256 7  -8670145.241 9
  23313588.089    -5902844.454 5  -4525069.285 3
 95  2 19 17 42 29.9990000  0  6 25 18 14 22 29 19
  24278535.284    15423046.864 5  11978117.077 4
  22429618.214   -10990558.067 6  -8497013.772 6
  20105746.886    -5951899.499 7  -4577630.231 8
  20909213.683    -8551516.969 7  -6592134.730 9
  20825490.644   -11295376.499 7  -8695181.014 9
  23299720.151    -5975725.192 5  -4581859.427 4
 95  2 19 17 42 59.9990000  0  6 25 18 14 22 29 19
  24296759.331    15518792.007 5  12052723.572 3
  22416544.159   -11059259.272 6  -8550547.160 6
  20112954.097    -5914023.136 7  -4548116.211 8
  20914656.331    -8522918.106 7  -6569849.922 9
  20819536.886   -11326667.619 7  -8719563.698 9
  23286014.167    -6047752.460 5  -4637984.566 3
 95  2 19 17 43 29.9990000  0  6 25 18 14 22 29 19
  24315090.472    15615138.212 3  12127798.432 3
  22403609.245   -11127240.689 6  -8603519.672 5
  20120395.386    -5874917.200 7  -4517644.075 8
  20920336.542    -8493072.667 7  -6546593.748 8
  20813739.448   -11357127.439 7  -8743298.620 9
  23272467.542    -6118935.919 5  -4693452.163 4
 95  2 19 17 43 59.9990000  0  6 25 18 14 22 29 19
  24333531.229    15712049.804 4  12203313.848 2
  22390800.284   -11194540.233 6  -8655960.855 6
  20128064.081    -5834614.946 7  -4486239.748 9
  20926244.878    -8462021.623 7  -6522398.143 9
  20808096.237   -11386790.815 7  -8766412.937 9
  23259072.604    -6189320.857 5  -4748297.529 4
 95  2 19 17 44 29.9990000  0  5 18 14 22 29 19
  22378119.831   -11261196.833 6  -8707901.031 6
  20135956.331    -5793148.222 7  -4453928.047 8
  20932378.839    -8429791.541 7  -6497283.803 8
  20802593.847   -11415698.666 7  -8788938.531 9
  23245822.761    -6258949.187 5  -4802553.315 5
 95  2 19 17 44 59.9990000  0  5 18 14 22 29 19
  22365549.815   -11327224.889 6  -8759351.448 6
  20144062.706    -5750538.024 7  -4420725.320 8
  20938733.144    -8396391.436 7  -6471257.758 8
  20797230.698   -11443889.665 7  -8810905.541 9
  23232713.628    -6327837.348 5  -4856232.338 4
 95  2 19 17 45 29.9990000  0  5 18 14 22 29 19
  22353091.308   -11392702.893 6  -8810373.254 5
  20152374.854    -5706860.117 7  -4386690.610 8
  20945299.136    -8361889.089 7  -6444372.824 9
  20791988.112   -11471435.587 7  -8832369.886 9
  23219737.612    -6396038.078 5  -4909375.719 4
 95  2 19 17 45 59.9990000  0  5 18 14 22 29 19
  22340713.144   -11457750.920 6  -8861059.987 6
  20160863.776    -5662246.732 7  -4351926.965 9
  20952053.136    -8326404.216 7  -6416722.282 9
  20786844.620   -11498458.529 7  -8853426.719 9
  23206871.206    -6463652.670 5  -4962062.353 5
 95  2 19 17 46 29.9990000  0  5 18 14 22 29 19
  22328410.214   -11522407.061 6  -8911441.376 6
  20169523.503    -5616746.901 7  -4316472.576 8
  20958984.847    -8289978.323 7  -6388338.474 9
  20781793.073   -11525003.072 7  -8874110.781 9
  23194108.526    -6530716.816 5  -5014320.092 5
 95  2 19 17 46 59.9990000  0  5 18 14 22 29 19
  22316167.964   -11586728.768 6  -8961562.155 6
  20178332.073    -5570437.726 7  -4280387.534 8
  20966081.565    -8252692.700 7  -6359284.746 9
  20776821.362   -11551135.225 7  -8894473.500 9
  23181438.776    -6597289.137 5  -5066194.538 5
 95  2 19 17 47 29.9990000  0  5 18 14 22 29 19
  22303977.948   -11650795.690 6  -9011484.397 6
  20187281.019    -5523412.163 7  -4243744.260 8
  20973324.378    -8214639.291 7  -6329632.753 8
  20771913.644   -11576926.262 7  -8914570.409 9
  23168849.769    -6663458.527 5  -5117755.056 5
 95  2 19 17 47 59.9990000  0  5 18 14 22 29 19
  22291829.315   -11714645.747 6  -9061237.658 6
  20196358.394    -5475709.973 7  -4206573.756 8
  20980701.112    -8175867.188 7  -6299420.737 8
  20767062.089   -11602419.058 7  -8934434.927 9
  23156317.714    -6729296.784 5  -5169057.518 5
 95  2 19 17 48 29.9990000  0  5 18 14 22 29 19
  22279706.479   -11778340.548 6  -9110869.934 6
  20205559.550    -5427377.128 7  -4168911.824 8
  20988200.526    -8136445.492 7  -6268702.549 8
  20762261.183   -11627651.898 7  -8954096.880 9
  23143841.964    -6794863.848 5  -5220148.687 5
 95  2 19 17 48 59.9990000  0  5 18 14 22 29 19
  22267607.956   -11841924.777 6  -9160416.063 6
  20214865.917    -5378457.841 7  -4130792.926 8
  20995817.479    -8096416.217 7  -6237510.920 8
  20757503.542   -11652657.126 7  -8973581.471 9
  23131407.917    -6860200.420 5  -5271060.254 4
 95  2 19 17 49 29.9990000  0  5 18 14 22 29 19
  22255517.315   -11905459.470 6  -9209923.575 6
  20224276.847    -5328997.365 7  -4092252.324 8
  21003546.151    -8055818.923 7  -6205876.673 9
  20752778.823   -11677475.454 7  -8992920.430 9
  23119010.026    -6925360.337 5  -5321834.167 5
 95  2 19 17 49 59.9990000  0  5 18 14 22 29 19
  22243429.370   -11968977.382 6  -9259418.026 6
  20233787.604    -5279019.388 7  -4053308.475 9
  21011375.659    -8014679.514 7  -6173820.010 8
  20748089.089   -11702129.540 7  -9012131.402 9
  23106637.097    -6990368.175 5  -5372489.578 5
 95  2 19 17 50 29.9990000  0  5 18 14 22 29 19
  22231343.120   -12032496.391 6  -9308913.324 6
  20243393.886    -5228554.217 7  -4013984.998 8
  21019299.519    -7973016.962 7  -6141355.684 8
  20743422.573   -11726644.500 7  -9031233.977 9
  23094294.315    -7055231.272 5  -5423032.192 5
 95  2 19 17 50 59.9990000  0  5 18 14 22 29 19
  22219249.925   -12096039.764 6  -9358427.610 6
  20253081.175    -5177639.149 7  -3974310.942 8
  21027324.925    -7930851.493 7  -6108499.481 8
  20738774.612   -11751069.398 7  -9050266.371 9
  23081970.808    -7119986.788 5  -5473490.982 5
 95  2 19 17 51 29.9990000  0  5 18 14 22 29 19
  22207155.026   -12159608.104 6  -9407961.360 6
  20262856.401    -5126267.123 7  -3934280.817 8
  21035444.909    -7888189.325 7  -6075256.254 8
  20734142.870   -11775408.198 7  -9069231.665 9
  23069668.308    -7184648.724 5  -5523876.858 5
 95  2 19 17 51 59.9990000  0  5 18 14 22 29 19
  22195046.440   -12223226.994 6  -9457534.472 6
  20272715.917    -5074472.242 7  -3893921.194 8
  21043645.151    -7845075.248 7  -6041660.879 8
  20729518.651   -11799709.027 7  -9088167.377 9
  23057374.136    -7249250.898 5  -5574216.167 5
 95  2 19 17 52 29.9990000  0  5 18 14 22 29 19
  22182931.347   -12286908.266 6  -9507156.224 6
  20282646.323    -5022262.808 7  -3853238.551 8
  21051936.940    -7801529.661 7  -6007729.272 8
  20724896.589   -11823999.736 7  -9107095.194 9
  23045093.229    -7313789.545 5  -5624505.972 5
 95  2 19 17 52 59.9990000  0  5 18 14 22 29 19
  22170801.448   -12350647.219 6  -9556822.901 6
  20292666.175    -4969626.645 7  -3812223.384 8
  21060304.269    -7757549.372 7  -5973458.926 8
  20720280.323   -11848262.019 7  -9126000.873 9
  23032827.909    -7378253.960 5  -5674737.945 4
 95  2 19 17 53 29.9990000  0  5 18 14 22 29 19
  22158654.464   -12414470.130 6  -9606555.004 6
  20302757.503    -4916593.410 7  -3770898.809 8
  21068746.456    -7713173.189 7  -5938880.099 8
  20715665.940   -11872509.130 7  -9144894.726 9
  23020569.089    -7442665.086 5  -5724928.387 5
 95  2 19 17 53 59.9990000  0  5 18 14 22 29 19
  22146493.745   -12478382.376 6  -9656356.717 6
  20312920.753    -4863170.220 7  -3729270.372 8
  21077269.354    -7668411.084 7  -5904000.553 8
  20711054.706   -11896740.109 7  -9163776.004 9
  23008325.245    -7507016.893 5  -5775072.604 5
 95  2 19 17 54 29.9990000  0  5 18 14 22 29 19
  22134320.237   -12542368.851 6  -9706216.269 6
  20323168.354    -4809338.961 7  -3687323.961 8
  21085862.573    -7623245.019 7  -5868806.216 8
  20706455.065   -11920913.863 7  -9182612.691 9
  22996091.831    -7571292.602 5  -5825157.523 5
 95  2 19 17 54 59.9990000  0  5 18 14 22 29 19
  22122122.495   -12606451.076 6
  20333479.651    -4755144.148 7  -3645094.263 8
  21094531.245    -7577699.629 7  -5833316.298 8
  20701862.792   -11945041.102 7  -9201413.135 9
  22983865.456    -7635545.143 5
 95  2 19 17 55 29.9990000  0  5 18 14 22 29 19
  22109915.737   -12670599.383 6
  20343864.245    -4700568.948 7  -3602568.159 8
  21103274.925    -7531746.642 7  -5797508.789 8
  20697284.722   -11969102.748 7  -9220162.482 9
  22971650.331    -7699755.083 5
 95  2 19 17 55 59.9990000  0  5 18 14 22 29 19
  22097698.784   -12734808.687 6
  20354324.433    -4645603.484 7  -3559737.953 8
  21112094.261    -7485366.999 7  -5761368.830 8
  20692718.808   -11993096.910 7  -9238859.225 9
  22959437.425    -7763909.514 5
 95  2 19 17 56 29.9990000  0  5 18 14 22 29 19
  22085470.261   -12799058.590 6  -9906234.113 6
  20364856.300    -4590249.043 7  -3516604.656 8
  21121007.878    -7438542.437 7  -5724882.169 8
  20688162.870   -12017036.590 7  -9257513.512 9
  22947240.065    -7828004.941 5  -6025192.889 5
 95  2 19 17 56 59.9990000  0  5 18 14 22 29 19
  22073237.558   -12863345.728 6  -9956327.956 6
  20375465.089    -4534515.106 7  -3473175.640 8
  21130001.136    -7391265.208 7  -5688042.785 8
  20683615.925   -12040943.001 7  -9276141.870 9
  22935057.550    -7892035.127 5  -6075086.482 5
 95  2 19 17 57 29.9990000  0  5 18 14 22 29 19
  22060995.565   -12927679.655 6 -10006458.265 6
  20386144.026    -4478380.087 7  -3429434.100 8
  21139087.800    -7343541.226 7  -5650855.275 8
  20679070.229   -12064828.431 7  -9294753.889 9
  22922886.354    -7955989.713 5  -6124921.149 5
 95  2 19 17 57 59.9990000  0  5 18 14 22 29 19
  22048748.659   -12992040.017 6 -10056609.171 6
  20396913.112    -4421811.912 7  -3385355.028 8
  21148253.628    -7295361.734 7  -5613312.840 8
  20674529.081   -12088681.965 7  -9313341.049 9
  22910733.995    -8019850.670 5  -6174682.872 5
 95  2 19 17 58 29.9990000  0  5 18 14 22 29 19
  22036492.378   -13056442.208 6 -10106792.673 6
  20407753.104    -4364828.869 7  -3340952.691 8
  21157508.112    -7246744.590 7  -5575429.364 8
  20669998.479   -12112503.828 7  -9331903.532 9
  22898592.894    -8083641.632 5  -6224390.040 5
 95  2 19 17 58 59.9990000  0  5 18 14 22 29 19
  22024224.683   -13120899.817 6 -10157019.349 6
  20418678.433    -4307420.934 7  -3296219.261 8
  21166840.284    -7197698.633 7  -5537211.753 8
  20665473.245   -12136276.096 7  -9350427.389 9
  22886469.253    -8147359.898 5  -6274040.580 5
 95  2 19 17 59 29.9990000  0  5 18 14 22 29 19
  22011955.823   -13185393.397 6 -10207274.058 6
  20429691.495    -4249556.780 7  -3251130.345 8
  21176255.995    -7148209.907 7  -5498649.131 8
  20660965.831   -12159961.624 7  -9368883.656 9
  22874361.190    -8210991.203 5  -6323623.351 5
 95  2 19 17 59 59.9990000  0  5 18 14 22 29 19
  21999679.925   -13249906.513 6 -10257544.005 6
  20440781.370    -4191263.460 7  -3205707.006 8
  21185761.159    -7098271.497 7  -5459736.104 9
  20656477.112   -12183551.297 7  -9387265.217 9
  22862269.729    -8274540.505 5  -6373142.211 5
 95  2 19 18  0 29.9990000  0  5 18 14 22 29 19
  21987398.831   -13314419.789 6 -10307814.073 6
  20451957.972    -4132542.749 7  -3159950.636 8
  21195350.534    -7047862.518 7  -5420456.411 9
  20652012.706   -12207014.855 7  -9405548.507 9
  22850195.526    -8337987.795 5  -6422581.596 5
 95  2 19 18  0 59.9990000  0  5 18 14 22 29 19
  21975129.425   -13378909.267 6 -10358065.579 6
  20463212.589    -4073387.116 7  -3113855.379 8
  21205034.964    -6996990.041 7  -5380815.547 9
  20647570.886   -12230351.506 7  -9423732.911 9
  22838141.565    -8401325.970 5  -6471935.936 5
 95  2 19 18  1 29.9990000  0  5 18 14 22 29 19
  21962865.089   -13443365.046 6 -10408290.825 6
  20474551.636    -4013804.301 7  -3067427.232 8
  21214803.128    -6945658.610 7  -5340817.052 8
  20643153.745   -12253553.180 7  -9441812.133 9
  22826109.323    -8464557.458 5  -6521207.168 5
 95  2 19 18  1 59.9990000  0  5 18 14 22 29 19
  21950600.300   -13507812.153 6 -10458509.323 6
  20485966.706    -3953830.866 7  -3020694.720 8
  21224650.253    -6893895.271 7  -5300482.002 8
  20638761.386   -12276647.411 7  -9459807.643 9
  22814092.565    -8527703.086 5  -6570411.507 5
 95  2 19 18  2 29.9990000  0  5 18 14 22 29 19
  21938334.370   -13572265.250 6 -10508732.497 6
  20497454.425    -3893445.225 7  -2973641.006 8
  21234586.206    -6841699.097 7  -5259809.686 8
  20634388.854   -12299622.245 7  -9477710.112 9
  22802097.167    -8590738.639 5  -6619530.066 5
 95  2 19 18  2 59.9990000  0  5 18 14 22 29 19
  21926066.565   -13636726.018 6 -10558961.640 6
  20509026.542    -3832632.681 7  -2926254.641 8
  21244602.175    -6789053.756 7  -5218787.365 8
  20630043.464   -12322459.598 7  -9495505.452 9
  22790124.581    -8653652.689 5  -6668553.953 5
 95  2 19 18  3 29.9990000  0  5 18 14 22 29 19
  21913794.690   -13701217.900 6 -10609215.020 6
  20520680.815    -3771410.852 7  -2878549.349 8
  21254705.597    -6735952.963 7  -5177410.148 8
  20625721.464   -12345172.862 7  -9513204.095 9
  22778173.503    -8716455.634 5  -6717491.265 5
 95  2 19 18  3 59.9990000  0  5 18 14 22 29 19
  21901524.870   -13765706.399 6 -10659465.758 6
  20532408.972    -3709762.505 7  -2830511.714 8
  21264906.870    -6682361.672 7  -5135650.717 8
  20621426.081   -12367747.815 7  -9530794.963 9
  22766248.003    -8779126.471 6  -6766325.654 5
 95  2 19 18  4 29.9990000  0  5 18 14 22 29 19
  21889251.597   -13830196.033 6 -10709717.406 6
  20544217.894    -3647694.546 7  -2782147.107 8
  21275192.933    -6628306.679 7  -5093529.968 8
  20617152.128   -12390207.499 7  -9548296.012 9
  22754340.542    -8841692.427 5  -6815078.288 5
 95  2 19 18  4 59.9990000  0  5 18 14 22 29 19
  21876987.651   -13894641.606 6 -10759934.711 6
  20556112.034    -3585191.521 7  -2733443.487 8
  21285567.808    -6573780.706 7  -5051042.223 8
  20612901.104   -12412549.569 7  -9565705.411 9
  22742458.144    -8904148.671 5  -6863745.458 5
 95  2 19 18  5 29.9990000  0  5 18 14 22 29 19
  21864739.394   -13959008.915 6 -10810091.029 6
  20568094.659    -3522232.618 7  -2684384.633 8
  21296030.370    -6518788.932 7  -5008191.505 8
  20608672.448   -12434765.785 7  -9583016.736 9
  22730597.534    -8966467.784 6  -6912305.764 5
 95  2 19 18  5 59.9990000  0  5 18 14 22 29 19
  21852508.948   -14023281.934 6 -10860173.868 6
  20580169.878    -3458788.681 7  -2634947.832 8
  21306584.331    -6463334.535 7  -4964980.308 8
  20604473.495   -12456834.523 7  -9600213.145 9
  22718772.261    -9028612.713 5  -6960730.337 5
 95  2 19 18  6 29.9990000  0  5 18 14 22 29 19
  21840288.659   -14087497.393 6 -10910211.861 6
  20592330.636    -3394884.179 7  -2585152.161 8
  21317219.331    -6407449.524 7  -4921433.569 8
  20600298.292   -12478769.393 7  -9617305.250 9
  22706977.987    -9090589.823 5  -7009024.151 5
 95  2 19 18  6 59.9990000  0  5 18 14 22 29 19
  21828082.292   -14151636.533 6 -10960190.399 6
  20604577.706    -3330512.312 7  -2534992.304 9
  21327944.644    -6351098.643 7  -4877523.805 8
  20596156.073   -12500539.648 7  -9634269.083 9
  22695222.698    -9152369.257 5  -7057163.934 5
 95  2 19 18  7 29.9990000  0  5 18 14 22 29 19
  21815891.698   -14215706.409 6 -11010114.955 6
  20616916.159    -3265672.444 7  -2484467.765 9
  21338757.378    -6294270.686 7  -4833242.305 8
  20592045.839   -12522141.055 7  -9651101.335 9
  22683500.636    -9213955.217 5  -7105152.959 5
 95  2 19 18  7 59.9990000  0  5 18 14 22 29 19
  21803710.034   -14279714.525 6 -11059991.378 6
  20629339.050    -3200389.705 7  -2433598.126 8
  21349660.300    -6236964.320 7  -4788588.012 8
  20587967.315   -12543577.241 7  -9667804.862 9
  22671815.417    -9275374.391 5  -7153012.033 5
 95  2 19 18  8 29.9990000  0  5 18 14 22 29 19
  21791541.097   -14343664.981 6 -11109822.885 6
  20641842.940    -3134684.782 7  -2382399.529 9
  21360654.862    -6179186.341 7  -4743566.231 8
  20583918.776   -12564850.953 7  -9684381.776 9
  22660152.464    -9336660.583 6  -7200767.475 5
 95  2 19 18  8 59.9990000  0  5 18 14 22 29 19
  21779385.604   -14407545.911 6 -11159600.210 6
  20654432.565    -3068539.345 7  -2330857.663 9
  21371738.331    -6120937.754 7  -4698177.742 8
  20579902.769   -12585950.072 7  -9700822.643 9
  22648514.183    -9397813.734 6  -7248419.250 5
 95  2 19 18  9 29.9990000  0  5 18 14 22 29 19
  21767243.769   -14471363.238 6 -11209327.976 6
  20667104.722    -3001940.518 7  -2278962.508 9
  21382914.386    -6062218.761 7  -4652422.705 8
  20575925.980   -12606849.869 7  -9717108.181 9
  22636906.753    -9458817.238 6  -7295954.429 5
 95  2 19 18  9 59.9990000  0  5 18 14 22 29 19
  21755109.823   -14535121.710 6 -11259009.883 6
  20679863.636    -2934885.524 7  -2226711.897 9
  21394178.042    -6003027.813 7  -4606299.914 8
  20571990.628   -12627527.830 7  -9733220.879 9
  22625328.175    -9519662.933 6  -7343366.637 6
 95  2 19 18 10 29.9990000  0  5 18 14 22 29 19
  21742980.261   -14598850.581 6 -11308668.733 6
  20692708.995    -2867379.252 7  -2174109.651 9
  21405528.315    -5943385.670 7  -4559825.547 8
  20568091.925   -12648014.833 7  -9749184.783 9
  22613777.339    -9580359.322 5  -7390662.484 6
 95  2 19 18 10 59.9990000  0  5 18 14 22 29 19
  21730863.534   -14662537.276 6 -11358294.703 7
  20705645.300    -2799396.415 7  -2121136.045 9
  21416969.862    -5883272.406 7  -4512984.067 8
  20564228.714   -12668314.470 7  -9765002.691 9
  22602261.620    -9640882.878 6  -7437823.645 6
 95  2 19 18 11 29.9990000  0  5 18 14 22 29 19
  21718755.105   -14726157.571 6 -11407868.941 7
  20718673.144    -2730929.214 7  -2067785.030 9
  21428501.073    -5822662.284 7  -4465755.422 7
  20560403.987   -12688419.981 7  -9780669.316 9
  22590777.323    -9701229.447 6  -7484846.924 6
 95  2 19 18 11 59.9990000  0  5 18 14 22 29 19
  21706663.776   -14789703.199 6 -11457385.000 7
  20731793.659    -2661990.082 7  -2014066.265 9
  21440128.136    -5761564.452 7  -4418146.747 8
  20556607.979   -12708364.402 7  -9796210.427 9
  22579323.847    -9761419.583 6  -7531748.282 5
 95  2 19 18 12 29.9990000  0  5 18 14 22 29 19
  21694587.722   -14853161.929 6 -11506833.342 7
  20745001.245    -2592584.081 7  -1959983.706 9
  21451846.800    -5699980.606 7  -4370159.364 8
  20552842.792   -12728149.060 7  -9811627.050 9
  22567900.261    -9821453.026 6  -7578527.574 5
 95  2 19 18 12 59.9990000  0  5 18 14 22 29 19
  21682532.667   -14916502.205 6 -11556189.387 7
  20758298.245    -2522713.528 7  -1905539.164 9
  21463658.511    -5637903.217 7  -4321787.397 8
  20549116.573   -12747734.028 7  -9826888.064 9
  22556507.839    -9881325.335 6  -7625181.270 6
 95  2 19 18 13 29.9990000  0  5 18 14 22 29 19
  21670504.972   -14979728.027 7 -11605456.248 7
  20771674.378    -2452420.465 7  -1850765.395 9
  21475558.542    -5575361.057 7  -4273053.279 8
  20545428.542   -12767111.757 7  -9841987.594 9
  22545139.628    -9941048.913 6  -7671719.085 6
 95  2 19 18 13 59.9990000  0  5 18 14 22 29 19
  21658494.894   -15042828.508 6 -11654625.436 7
  20785131.229    -2381697.478 7  -1795656.616 9
  21487547.714    -5512356.942 7  -4223959.198 8
  20541785.526   -12786270.244 7  -9856916.298 9
  22533807.940   -10000605.512 6  -7718126.764 6
 95  2 19 18 14 29.9990000  0  5 18 14 22 29 19
  21646512.019   -15105799.986 7 -11703694.095 7
  20798674.011    -2310542.454 7  -1740211.196 8
  21499623.433    -5448903.367 7  -4174514.882 8
  20538179.081   -12805202.179 7  -9871668.453 9
  22522510.464   -10059983.116 6  -7764394.981 6
 95  2 19 18 14 59.9990000  0  5 18 14 22 29 19
  21634556.058   -15168635.394 6 -11752656.732 7
  20812297.284    -2238944.142 7  -1684420.343 8
  21511787.073    -5384990.424 7  -4124712.621 8
  20534621.456   -12823904.339 7  -9886241.569 9
  22511248.354   -10119156.311 6  -7810503.910 6
 95  2 19 18 15 29.9990000  0  5 18 14 22 29 19
  21622618.534   -15231356.100 7 -11801529.986 7
  20826005.729    -2166903.323 7  -1628284.689 8
  21524035.269    -5320616.715 7  -4074551.323 8
  20531103.019   -12842400.715 7  -9900654.331 9
  22500027.472   -10178123.957 6  -7856452.675 5
 95  2 19 18 15 59.9990000  0  5 18 14 22 29 19
  21610705.495   -15293962.869 6 -11850314.452 7
  20839804.159    -2094398.441 7  -1571787.426 8
  21536377.628    -5255761.229 7  -4024014.614 8
  20527623.409   -12860689.426 7  -9914905.277 9
  22488845.761   -10236880.540 6  -7902236.984 5
 95  2 19 18 16 29.9990000  0  6 28 18 14 22 29 19
  24627481.628          -0.60513
  21598813.534   -15356458.651 7 -11899012.451 7
  20853689.925    -2021424.715 7  -1514924.827 8
  21548813.003    -5190419.718 7  -3973099.187 8
  20524186.761   -12878744.626 7  -9928974.270 9
  22477707.073   -10295420.898 6  -7947852.785 6
 95  2 19 18 16 59.9990000  0  6 28 18 14 22 29 19
  24615280.089      -64165.433 3
  21586938.917   -15418863.035 7 -11947639.227 7
  20867661.698    -1947994.888 7  -1457706.834 8
  21561340.964    -5124585.918 7  -3921800.156 8
  20520794.065   -12896567.412 7  -9942862.165 9
  22466598.917   -10353773.110 6  -7993321.995 6
 95  2 19 18 17 29.9990000  0  6 28 18 14 22 29 19
  24603085.269     -128276.850 4        -0.38213
  21575082.729   -15481162.690 7 -11996184.389 7
  20881724.433    -1874100.867 7  -1400127.129 8
  21573965.011    -5058256.446 7  -3870114.895 8
  20517450.534   -12914143.521 7  -9956557.835 9
  22455533.229   -10411945.033 6  -8038650.718 6
 95  2 19 18 17 59.9990000  0  6 28 18 14 22 29 19
  24590886.933     -192350.246 3    -49927.568 2
  21563246.612   -15543363.735 7 -12044652.710 7
  20895870.081    -1799756.152 6  -1342196.234 8
  21586673.651    -4991471.036 7  -3818074.346 8
  20514150.815   -12931484.932 7  -9970070.632 9
  22444496.128   -10469953.545 6  -8083852.123 5
 95  2 19 18 18 29.9990000  0  6 28 18 14 22 29 19
  24578702.737     -256360.468 3    -99805.524 2
  21551433.519   -15605444.882 7 -12093027.611 7
  20910107.534    -1724948.534 7  -1283904.636 8
  21599469.792    -4924219.111 7  -3765670.275 8
  20510896.706   -12948587.106 7  -9983397.011 9
  22433490.854   -10527773.949 6  -8128906.936 6
 95  2 19 18 18 59.9990000  0  6 28 18 14 22 29 19
  24566537.987     -320295.327 3   -149624.771 2
  21539646.519   -15667386.984 7 -12141294.166 7
  20924431.573    -1649677.058 7  -1225251.577 8
  21612359.683    -4856489.286 7  -3712893.817 8
  20507683.722   -12965462.652 7  -9996546.796 9
  22422524.933   -10585392.419 6  -8173804.412 6
 95  2 19 18 19 29.9990000  0  6 28 18 14 22 29 19
  24554384.925     -384170.525 3   -199397.526 1
  21527884.784   -15729192.812 7 -12189454.535 7
  20938838.784    -1573967.379 7  -1166257.063 7
  21625329.487    -4788320.494 7  -3659775.306 8
  20504514.651   -12982122.343 7 -10009528.360 9
  22411598.472   -10642809.931 6  -8218545.285 6
 95  2 19 18 19 59.9990000  0  6 28 18 14 22 29 19
  24542243.862     -447984.677 3   -249122.686 2
  21516147.128   -15790866.673 7 -12237512.069 7
  20953327.534    -1497830.941 7  -1106930.015 8
  21638386.019    -4719707.278 7  -3606310.492 8
  20501385.831   -12998562.300 7 -10022338.719 9
  22400714.714   -10700020.592 6  -8263124.994 6
 95  2 19 18 20 29.9990000  0  6 28 18 14 22 29 19
  24530111.862     -511727.707 4   -298792.468 3
  21504438.284   -15852410.847 7 -12285468.554 7
  20967897.761    -1421268.894 7  -1047271.325 7
  21651529.815    -4650630.227 7  -3552484.256 8
  20498303.112   -13014767.777 7 -10034966.362 9
  22389863.667   -10757027.118 6  -8307545.619 6
 95  2 19 18 20 59.9990000  0  6 28 18 14 22 29 19
  24517998.511     -575399.375 4   -348406.637 2
  21492750.315   -15913818.920 6 -12333318.980 7
  20982545.886    -1344285.151 7   -987284.046 7
  21664760.362    -4581110.372 7  -3498312.973 8
  20495267.472   -13030714.989 7 -10047392.763 9
  22379052.300   -10813856.121 6  -8351827.925 6
 95  2 19 18 21 29.9990000  0  6 28 18 14 22 29 19
  24505883.495     -638988.664 2   -397956.628 3
  21481092.604   -15975081.256 6 -12381055.840 7
  20997276.753    -1266867.371 7   -926958.552 8
  21678075.464    -4511144.390 7  -3443794.057 8
  20492286.433   -13046385.061 7 -10059603.217 9
  22368272.073   -10870503.242 6  -8395968.496 6
 95  2 19 18 21 59.9990000  0  6 28 18 14 22 29 19
  24493811.862     -702483.490 3   -447432.900 2
  21469463.745   -16036198.605 7 -12428679.727 7
  21012094.229    -1189001.709 7   -866284.067 7
  21691478.151    -4440717.683 7  -3388916.130 8
  20489356.917   -13061780.759 7 -10071599.866 9
  22357527.245   -10926963.689 6  -8439963.608 6
 95  2 19 18 22 29.9990000  0  6 28 18 14 22 29 19
  24481747.511     -765895.772 3   -496844.937 2
  21457858.526   -16097181.483 7 -12476198.841 7
  21026997.128    -1110693.656 7   -805264.849 7
  21704959.354    -4369869.036 7  -3333709.414 8
  20486475.253   -13076921.272 7 -10083397.663 9
  22346816.144   -10983262.532 6  -8483832.807 6
 95  2 19 18 22 59.9990000  0  6 28 18 14 22 29 19
  24469699.612     -829215.228 4   -546184.648 2
  21446283.495   -16158018.148 7 -12523604.013 7
  21041982.737    -1031945.665 7   -743902.824 7
  21718522.464    -4298590.847 7  -3278167.997 8
  20483642.120   -13091804.100 7 -10094994.664 9
  22336137.167   -11039376.129 6  -8527557.664 6
 95  2 19 18 23 29.9990000  0  6 28 18 14 22 29 19
  24457659.206     -892457.699 3   -595464.369 1
  21434728.151   -16218740.612 7 -12570920.209 7
  21057050.183     -952775.714 7   -682212.004 7
  21732168.417    -4226877.652 7  -3222287.620 8
  20480851.558   -13106465.228 7 -10106418.925 9
  22325494.073   -11095300.883 6  -8571135.362 6
 95  2 19 18 23 59.9990000  0  6 28 18 14 22 29 19
  24445640.276     -955614.159 3   -644677.024 1
  21423194.511   -16279342.087 7 -12618142.112 7
  21072193.792     -873180.673 7   -620189.935 7
  21745898.222    -4154723.384 7  -3166063.552 8
  20478107.323   -13120898.598 7 -10117665.693 9
  22314886.940   -11151029.169 6  -8614559.971 6
 95  2 19 18 24 29.9990000  0  6 28 18 14 22 29 19
  24433642.815    -1018676.465 3   -693816.363 2
  21411688.487   -16339802.166 7 -12665253.849 7
  21087420.729     -793161.205 7   -557837.166 7
  21759717.862    -4082118.985 7  -3109488.725 8
  20475405.229   -13135092.139 7 -10128725.609 9
  22304322.644   -11206553.330 6  -8657825.500 6
 95  2 19 18 24 59.9990000  0  6 28 18 14 22 29 19
  24421663.784    -1081625.955 3   -742867.730 1
  21400213.683   -16400091.887 7 -12712232.835 7
  21102727.058     -712718.444 7   -495154.551 8
  21773625.089    -4009034.747 7  -3052540.000 8
  20472751.847   -13149033.581 7 -10139589.074 9
  22293803.206   -11261848.169 6  -8700912.364 6
 95  2 19 18 25 29.9990000  0  6 28 18 14 22 29 19
  24409701.831    -1144477.876 3   -791843.103 2
  21388775.503   -16460212.045 7 -12759079.702 7
  21118116.409     -631867.731 7   -432154.052 7
  21787617.690    -3935499.369 7  -2995239.740 8
  20470144.417   -13162738.187 7 -10150267.984 9
  22283317.472   -11316942.211 6  -8743842.752 6
 95  2 19 18 25 59.9990000  0  6 28 18 14 22 29 19
  24397759.597    -1207236.599 4   -840745.854 2
  21377371.261   -16520150.190 7 -12805784.737 7
  21133575.526     -550626.542 7   -368849.271 8
  21801688.612    -3861541.842 7  -2937610.533 8
  20467582.698   -13176202.123 7 -10160759.367 9
  22272869.331   -11371840.033 6  -8786620.238 6
 95  2 19 18 26 29.9990000  0  6 28 18 14 22 29 19
  24385836.339    -1269861.078 3   -889544.008 2
  21366005.136   -16579875.291 7 -12852323.765 7
  21149112.894     -468965.381 7   -305217.254 7
  21815852.612    -3787123.214 7  -2879622.028 8
  20465073.253   -13189382.277 7 -10171029.620 9
  22262469.644   -11426503.854 6  -8829215.391 6
 95  2 19 18 26 59.9990000  0  6 28 18 14 22 29 19
  24373943.394    -1332378.230 3   -938258.517 2
  21354671.136   -16639436.238 7 -12898734.873 7
  21164726.862     -386916.949 7   -241283.456 7
  21830093.933    -3712291.770 7  -2821311.845 7
  20462614.417   -13202307.945 7 -10181101.569 9
  22252104.394   -11480972.437 6  -8871658.405 6
 95  2 19 18 27 29.9990000  0  6 28 18 14 22 29 19
  24362068.979    -1394778.815 3   -986882.187 2
  21343364.440   -16698856.458 7 -12945036.321 7
  21180419.987     -304463.752 7   -177034.269 7
  21844406.800    -3637055.577 7  -2762686.280 7
  20460205.378   -13214969.976 7 -10190968.102 9
  22241771.550   -11535248.691 6  -8913951.551 6
 95  2 19 18 27 59.9990000  0  6 28 18 14 22 29 19
  24350222.136    -1457049.826 4  -1035404.877 3
  21332080.292   -16758143.831 7 -12991234.259 7
  21196185.972     -221589.367 7   -112456.875 7
  21858806.573    -3561410.589 7  -2703742.172 8
  20457847.214   -13227353.983 7 -10200617.989 8
  22231483.222   -11589333.781 6  -8956095.718 6
 95  2 19 18 28 29.9990000  0  6 28 18 14 22 29 19
  24338390.526    -1519200.572 4  -1083833.881 3
  21320821.112   -16817314.334 7 -13037341.133 7
  21212035.683     -138300.191 7    -47556.266 8
  21873275.933    -3485368.553 7  -2644488.683 7
  20455541.714   -13239476.039 7 -10210063.761 9
  22221221.597   -11643263.150 6  -8998118.584 6
 95  2 19 18 28 59.9990000  0  6 28 18 14 22 29 19
  24326591.886    -1581230.877 4  -1132169.017 4
  21309587.245   -16876350.944 7 -13083343.663 8
  21227969.612      -54588.333 7     17673.704 8
  21887816.112    -3408939.173 6  -2584933.364 7
  20453286.214   -13251337.023 7 -10219306.079 9
  22210984.237   -11697042.474 6  -9040024.495 6
 95  2 19 18 29 29.9990000  0  6 28 18 14 22 29 19
  24314810.808    -1643132.227 5  -1180403.660 4
  21298382.894   -16935222.944 7 -13129217.921 8
  21243978.612       29546.685 7     83233.398 8
  21902440.581    -3332097.048 6  -2525056.420 7
  20451079.292   -13262923.452 7 -10228334.477 8
  22200782.894   -11750660.909 6  -9081805.053 6
 95  2 19 18 29 59.9990000  0  6 28 18 14 22 29 19
  24303061.628    -1704890.094 5  -1228526.516 4
  21287220.917   -16993891.638 7 -13174933.769 8
  21260068.737      114104.984 7    149122.935 8
  21917146.901    -3254816.597 6  -2464837.914 7
  20448930.308   -13274220.438 7 -10237137.317 8
  22190614.136   -11804093.964 6  -9123441.150 6
 95  2 19 18 30 29.9990000  0  6 28 18 14 22 29 19
  24291328.159    -1766519.856 4  -1276549.561 4
  21276089.339   -17052371.011 7 -13220502.089 8
  21276233.706      199051.862 7    215315.250 8
  21931935.448    -3177106.445 6  -2404284.599 7
  20446831.972   -13285253.201 7 -10245734.285 9
  22180481.331   -11857340.669 6  -9164932.038 6
 95  2 19 18 30 59.9990000  0  6 28 18 14 22 29 19
  24279630.815    -1828007.362 4  -1324461.722 4
  21265000.534   -17110657.091 7 -13265919.798 8
  21292474.542      284391.687 6    281813.763 8
  21946803.370    -3098961.662 6  -2343392.597 7
  20444781.979   -13296014.515 7 -10254119.745 8
  22170391.550   -11910371.710 6  -9206254.879 6
 95  2 19 18 31 29.9990000  0  6 28 18 14 22 29 19
  24267958.901    -1889346.827 5  -1372258.573 2
  21253942.706   -17168764.070 7 -13311197.954 8
  21308786.222      370123.548 6    348617.762 8
  21961758.151    -3020382.294 6  -2282161.962 7
  20442786.956   -13306506.887 7 -10262295.625 8
  22160340.050   -11963184.479 6  -9247407.653 6
 95  2 19 18 31 59.9990000  0  6 28 18 14 22 29 19
  24256313.878    -1950546.644 5  -1419946.609 3
  21242914.933   -17226717.353 7 -13356356.339 8
  21325177.198      456245.264 6    415725.538 8
  21976788.917    -2941393.670 6  -2220612.432 7
  20440836.472   -13316752.676 7 -10270279.365 8
  22150333.198   -12015788.314 6  -9288397.610 6
 95  2 19 18 32 29.9990000  0  6 28 18 14 22 29 19
  24244702.878    -2011568.527 5  -1467495.975 4
  21231921.987   -17284485.489 7 -13401370.452 8
  21341647.269      542800.943 6    483171.454 8
  21991901.550    -2861974.668 6  -2158727.545 7
  20438940.823   -13326718.761 7 -10278045.151 8
  22140362.964   -12068153.974 6  -9329201.981 6
 95  2 19 18 32 59.9990000  0  6 28 18 14 22 29 19
  24233117.644    -2072447.060 4  -1514933.677 3
  21220957.386   -17342102.595 7 -13446266.884 8
  21358194.948      629757.255 6    550929.554 8
  22007086.917    -2782179.365 6  -2096549.422 7
  20437092.456   -13336427.171 7 -10285610.159 9
  22130436.948   -12120324.481 6  -9369854.287 6
 95  2 19 18 33 29.9990000  0  6 28 18 14 22 29 19
  24221557.776    -2133173.979 3  -1562253.224 4
  21210023.136   -17399561.317 7 -13491039.904 8
  21374820.714      717115.837 6    619001.117 8
  22022346.362    -2701989.173 6  -2034063.605 7
  20435296.620   -13345864.506 7 -10292963.930 9
  22120547.745   -12172297.997 6  -9410353.113 6
 95  2 19 18 33 59.9990000  0  6 28 18 14 22 29 19
  24210029.479    -2193753.410 3  -1609457.871 3
  21199121.214   -17456861.869 7 -13535689.680 8
  21391512.589      804843.917 6    687360.601 8
  22037679.698    -2621413.876 7  -1971277.714 7
  20433552.823   -13355027.031 7 -10300103.555 9
  22110695.229   -12224071.872 6  -9450696.369 6
 95  2 19 18 34 29.9990000  0  6 28 18 14 22 29 19
  24198531.878    -2254171.232 3  -1656536.578 4
  21188248.612   -17513986.158 7 -13580202.106 8
  21408272.167      892926.963 6    755996.680 7
  22053089.151    -2540447.176 7  -1908186.820 7
  20431866.815   -13363885.503 7 -10307006.266 8
  22100883.886   -12275635.477 6  -9490875.771 6
 95  2 19 18 34 59.9990000  0  6 28 18 14 22 29 19
  24187067.722    -2314417.180 4  -1703481.363 4
  21177414.237   -17570924.138 7 -13624569.345 8
  21425105.011      981365.064 6    824909.420 8
  22068569.347    -2459084.102 6  -1844787.070 7
  20430241.948   -13372421.714 7 -10313657.864 8
  22091108.308   -12326988.618 6  -9530891.184 6
 95  2 19 18 35 29.9990000  0  6 28 18 14 22 29 19
  24175634.229    -2374500.117 4  -1750299.148 3
  21166617.526   -17627668.440 7 -13668785.684 8
  21441996.229     1070140.960 6    894085.382 7
  22084127.886    -2377326.466 6  -1781079.877 7
  20428678.198   -13380654.862 7 -10320073.315 8
  22081375.761   -12378145.786 6  -9570753.878 6
 95  2 19 18 35 59.9990000  0  6 28 18 14 22 29 19
  24164238.472    -2434396.788 5  -1796971.775 3
  21155860.487   -17684184.915 7 -13712824.476 8
  21458959.979     1159279.434 6    963543.872 7
  22099761.089    -2295176.997 6  -1717067.348 7
  20427171.683   -13388560.162 7 -10326233.289 9
  22071683.558   -12429080.709 6  -9610443.413 6
 95  2 19 18 36 29.9990000  0  6 28 18 14 22 29 19
  24152872.440    -2494129.449 5  -1843516.664 3
  21145147.558   -17740493.033 7 -13756700.911 8
  21475990.401     1248779.580 6   1033284.185 7
  22115461.987    -2212669.786 6  -1652776.066 7
  20425724.940   -13396164.460 7 -10332158.718 9
  22062023.386   -12479831.559 6  -9649989.509 6
 95  2 19 18 36 59.9990000  0  6 28 18 14 22 29 19
  24141538.276    -2553687.787 5  -1889925.680 4
  21134472.237   -17796581.796 7 -13800406.433 8
  21493095.761     1338662.937 6   1103323.092 7
  22131231.948    -2129796.372 6  -1588199.409 7
  20424336.073   -13403465.022 7 -10337847.473 9
  22052405.284   -12530396.886 6  -9689391.048 6
 95  2 19 18 37 29.9990000  0  6 28 18 14 22 29 19
  24130237.159    -2613056.413 5  -1936186.867 4
  21123841.995   -17852447.512 7 -13843938.150 8
  21510271.339     1428931.010 6   1173661.804 7
  22147074.323    -2046537.383 6  -1523322.315 7
  20423004.354   -13410460.518 7 -10343298.508 9
  22042818.284   -12580756.543 6  -9728632.314 6
 95  2 19 18 37 59.9990000  0  6 28 18 14 22 29 19
  24118978.026    -2672220.063 5  -1982288.320 5
  21113251.026   -17908102.930 7 -13887305.999 8
  21527525.784     1519596.937 6   1244310.510 7
  22162993.159    -1962891.438 6  -1458143.707 7
  20421734.206   -13417137.353 7 -10348501.247 9
  22033275.690   -12630909.273 6  -9767712.337 6
 95  2 19 18 38 29.9990000  0  6 28 18 14 22 29 19
  24107759.159    -2731182.531 5  -2028233.014 5
  21102698.620   -17963563.435 7 -13930521.964 8
  21544851.089     1610646.813 6   1315258.414 7
  22178982.198    -1878856.614 6  -1392662.079 7
  20420522.144   -13423510.338 7 -10353467.219 8
  22023766.183   -12680878.979 6  -9806649.740 6
 95  2 19 18 38 59.9990000  0  6 28 18 14 22 29 19
  24096575.526    -2789951.634 5  -2074027.034 5
  21092179.573   -18018840.548 7 -13973595.021 8
  21562247.690     1702064.412 6   1386492.853 6
  22195048.917    -1794444.193 6  -1326886.207 7
  20419360.948   -13429601.951 7 -10358213.943 8
  22014293.378   -12730667.870 6  -9845446.253 6
 95  2 19 18 39 29.9990000  0  6 28 18 14 22 29 19
  24085431.886    -2848525.376 5  -2119668.830 5
  21081693.698   -18073933.921 7 -14016524.920 8
  21579716.136     1793850.444 7   1458014.388 7
  22211178.448    -1709666.813 6  -1260825.953 7
  20418256.081   -13435418.254 7 -10362746.133 8
  22004856.612   -12780267.369 6  -9884095.192 6
 95  2 19 18 39 59.9990000  0  6 28 18 14 22 29 19
  24074317.839    -2906920.745 5  -2165171.643 5
  21071245.284   -18128850.965 7 -14059317.409 8
  21597247.776     1885990.155 6   1529811.517 6
  22227377.698    -1624556.166 6  -1194505.996 7
  20417199.417   -13440966.047 7 -10367069.093 8
  21995445.495   -12829698.443 6  -9922612.868 6
 95  2 19 18 40 29.9990000  0  6 28 18 14 22 29 19
  24063247.331    -2965108.959 5  -2210513.048 4
  21060834.190   -18183545.049 7 -14101936.165 8
  21614854.362     1978500.859 6   1601897.717 6
  22243640.120    -1539089.735 6  -1127908.831 7
  20416201.808   -13446218.361 7 -10371161.803 8
  21986084.159   -12878914.565 6  -9960963.048 6
 95  2 19 18 40 59.9990000  0  6 28 18 14 22 29 19
  24052216.214    -3023080.846 5  -2255685.890 5
  21050472.644   -18238003.895 7 -14144371.630 8
  21632526.089     2071375.914 6   1674267.833 6
  22259974.144    -1453255.335 6  -1061024.936 7
  20415260.433   -13451154.112 7 -10375007.851 8
  21976758.222   -12927906.343 6  -9999138.431 6
 95  2 19 18 41 29.9990000  0  6 28 18 14 22 29 19
  24041221.229    -3080850.540 5  -2300701.145 5
  21040150.862   -18292246.846 7 -14186638.852 8
  21650262.487     2164578.841 6   1746893.439 6
  22276376.370    -1367058.793 6   -993858.831 7
  20414381.753   -13455765.410 7 -10378601.067 8
  21967474.886   -12976700.415 6 -10037159.744 6
 95  2 19 18 41 59.9990000  0  7 28 18 14 31 22 29 19
  24030265.253    -3138406.907 4  -2345550.184 5
  21029873.644   -18346262.282 7 -14228728.792 8
  21668059.792     2258107.788 6   1819773.083 6
  24547815.839          -0.84213
  22292850.854    -1280486.899 6   -926400.246 7
  20413570.300   -13460034.463 7 -10381927.602 9
  21958224.386   -13025300.227 6 -10075029.681 6
 95  2 19 18 42 29.9990000  0  7 28 18 14 31 22 29 19
  24019359.378    -3195723.667 4  -2390212.539 4
  21019641.433   -18400025.136 7 -14270621.908 8
  21685924.073     2351982.918 6   1892922.481 6
  24532414.542      -80917.287 3        -0.04411
  22309400.933    -1193516.991 6   -858631.529 7
  20412827.886   -13463944.749 7 -10384974.592 8
  21949020.644   -13073684.449 6 -10112731.632 6
 95  2 19 18 42 59.9990000  0  7 28 18 14 31 22 29 19
  24008490.573    -3252808.848 4  -2434694.446 3
  21009457.628   -18453551.781 7 -14312330.976 8
  21703851.769     2446195.438 6   1966334.769 7
  24517008.144     -161891.207 3    -63096.372 2
  22326021.644    -1106167.868 6   -790567.311 7
  20412147.456   -13467505.587 7 -10387749.278 9
  21939846.659   -13121873.532 6 -10150281.525 6
 95  2 19 18 43 29.9990000  0  7 28 18 14 31 22 29 19
  23997679.862    -3309667.779 5  -2479000.066 3
  20999312.964   -18506842.056 7 -14353855.862 8
  21721845.605     2540750.681 6   2040014.127 7
  24501581.034     -242949.092 3   -126258.169 2
  22342710.526    -1018465.199 6   -722227.617 7
  20411534.120   -13470742.291 7 -10390271.396 9
  21930719.675   -13169853.706 6 -10187668.632 6
 95  2 19 18 43 59.9990000  0  7 28 18 14 31 22 29 19
  23986898.769    -3366323.154 4  -2523147.028 4
  20989217.190   -18559914.524 7 -14395211.016 8
  21739899.815     2635631.993 6   2113947.567 7
  24486137.269     -324126.508 3   -189513.081 1
  22359461.229     -930447.684 6   -653642.592 7
  20410968.362   -13473706.431 7 -10392581.124 8
  21921623.433   -13217636.306 6 -10224901.790 6
 95  2 19 18 44 29.9990000  0  7 28 18 14 31 22 29 19
  23976157.565    -3422747.196 5  -2567113.749 3
  20979161.386   -18612748.575 7 -14436380.399 8
  21758022.003     2730860.363 6   2188151.417 7
  24470670.276     -405394.984 3   -252839.012 1
  22376272.620     -842093.560 6   -584795.267 7
  20410461.073   -13476377.326 7 -10394662.349 8
  21912579.753   -13265185.566 6 -10261953.131 6
 95  2 19 18 44 59.9990000  0  7 28 18 14 31 22 29 19
  23965469.308    -3478923.561 5  -2610887.482 4
  20969156.206   -18665333.695 7 -14477355.808 8
  21776210.894     2826449.070 6   2262636.073 7
  24455191.940     -486722.671 2   -316211.097 1
  22393157.347     -753374.902 6   -515663.899 6
  20410014.362   -13478735.877 7 -10396500.175 8
  21903574.815   -13312494.219 6 -10298816.979 6
 95  2 19 18 45 29.9990000  0  7 28 18 14 31 22 29 19
  23954826.940    -3534873.869 5  -2654485.114 4
  20959191.979   -18717696.044 7 -14518157.643 8
  21794467.190     2922370.900 6   2337380.287 7
  24439705.808     -568113.337 3
  22410105.479     -664302.667 6   -446256.996 7
  20409616.558   -13480808.201 7 -10398114.997 9
  21894610.097   -13359599.311 6 -10335522.226 6
 95  2 19 18 45 59.9990000  0  7 28 18 14 31 22 29 19
  23944221.394    -3590570.610 5  -2697885.127 2
  20949271.292   -18769822.654 7 -14558775.782 8
  21812783.605     3018641.175 6   2412396.017 7
  24424210.214     -649509.489 2        -0.24511
  22427128.815     -574852.505 6   -376555.625 7
  20409285.776   -13482551.149 7 -10399473.135 9
  21885685.823   -13406504.500 6 -10372071.697 6
 95  2 19 18 46 29.9990000  0  7 28 18 14 31 22 29 19
  23933665.870    -3646038.357 4  -2741106.687 4
  20939391.948   -18821747.757 7 -14599236.896 8
  21831165.894     3115228.847 6   2487659.080 7
  24408720.144     -730928.657 3    -63443.584 2
  22444215.534     -485058.533 6   -306586.334 7
  20409016.847   -13483971.578 7 -10400579.965 9
  21876787.511   -13453253.593 6 -10408499.535 6
 95  2 19 18 46 59.9990000  0  7 28 18 14 31 22 29 19
  23923166.167    -3701249.167 4  -2784128.053 4
  20929552.073   -18873448.566 7 -14639523.243 8
  21849609.276     3212151.738 6   2563183.344 7
  24393224.362     -812353.536 3   -126891.398 3
  22461370.722     -394906.985 6   -236338.440 7
  20408810.823   -13485045.398 7 -10401416.712 9
  21867927.698   -13499828.478 6 -10444791.619 6
 95  2 19 18 47 29.9990000  0  7 28 18 14 31 22 29 19
  23912700.440    -3756218.903 4  -2826961.542 4
  20919754.081   -18924928.383 7 -14679637.388 8
  21868108.667     3309375.312 6   2638941.924 7
  24377724.058     -893814.269 3   -190367.196 3
  22478584.620     -304441.537 6   -165845.942 6
  20408668.503   -13485795.211 7 -10402000.990 9
  21859098.503   -13546231.605 6 -10480949.886 6
 95  2 19 18 47 59.9990000  0  7 28 18 14 31 22 29 19
  23902284.698    -3810942.777 4  -2869603.462 5
  20910004.917   -18976176.771 7 -14719571.197 8
  21886668.714     3406893.440 6   2714930.022 7
  24362217.183     -975325.162 3   -253882.007 3
  22495859.401     -213669.026 6    -95114.144 6
  20408589.909   -13486217.403 7
  21850300.612   -13592448.245 6 -10516962.825 6
 95  2 19 18 48 29.9990000  0  7 28 18 14 31 22 29 19
  23891925.581    -3865401.844 5  -2912039.047 5
  20900299.331   -19027171.490 7 -14759307.338 8
  21905280.440     3504716.898 6   2791156.034 7
  24346693.479    -1056892.391 3   -317440.739 2
  22513195.183     -122574.305 6    -24131.281 6
  20408574.175   -13486305.527 7
  21841546.995   -13638440.709 6 -10552801.081 6
 95  2 19 18 48 59.9990000  0  7 28 18 14 31 22 29 19
  23881611.159    -3919611.215 5  -2954280.069 5
  20890643.050   -19077913.235 7 -14798846.365 8
  21923949.706     3602820.322 6   2867600.203 7
  24331161.300    -1138523.643 3   -381049.336 2
  22530587.308      -31176.878 6     47087.427 6
  20408614.628   -13486081.149 7
  21832838.425   -13684218.081 6 -10588471.740 6
 95  2 19 18 49 29.9990000  0  7 28 18 14 31 22 29 19
  23871337.690    -3973580.781 5  -2996334.212 4
  20881033.823   -19128408.789 7 -14838193.544 8
  21942671.347     3701196.978 6   2944257.285 6
  24315608.097    -1220216.992 3   -444706.323 2
  22548033.597       60507.979 6    118530.133 6
  20408717.800   -13485543.494 7 -10401804.870 9
  21824166.823   -13729793.262 6 -10623984.836 6
 95  2 19 18 49 59.9990000  0  7 28 18 14 31 22 29 19
  23861120.526    -4027276.021 5  -3038174.624 4
  20871473.136   -19178652.578 7 -14877344.544 8
  21961453.339     3799894.041 6   3021164.028 6
  24300060.292    -1301933.946 3   -508381.679 2
  22565541.440      152511.556 6    190221.175 6
  20408887.620   -13484649.352 7 -10401108.141 9
  21815536.745   -13775140.199 6 -10659320.083 7
 95  2 19 18 50 29.9990000  0  7 28 18 14 31 22 29 19
  23850955.651    -4080699.964 5  -3079803.649 3
  20861961.706   -19228648.096 7 -14916302.090 9
  21980294.409     3898908.156 6   3098317.820 6
  24284509.362    -1383661.755 2   -572065.492 1
  22583107.253      244819.491 6    262149.387 6
  20409128.058   -13483391.681 7 -10400128.152 9
  21806947.120   -13820270.049 6 -10694486.177 7
 95  2 19 18 50 59.9990000  0  7 28 18 14 31 22 29 19
  23840844.347    -4133842.681 5  -3121213.532 4
  20852496.839   -19278382.413 7 -14955056.095 9
  21999199.964     3998246.420 6   3175724.203 6
  24268960.495    -1465386.123 3   -635746.607 2
  22600732.495      337443.064 6    334323.555 6
  20409436.409   -13481759.451 7 -10398856.308 9
  21798395.503   -13865198.025 6 -10729494.968 7
 95  2 19 18 51 29.9990000  0  7 28 18 14 31 22 29 19
  23830782.394    -4186713.527 5  -3162411.569 4
  20843078.909   -19327871.403 7 -14993618.937 9
  22018159.948     4097896.853 6   3253373.822 6
  24253405.854    -1547130.413 3   -699443.272 1
  22618418.589      430381.127 6    406742.761 6
  20409817.972   -13479758.882 7 -10397297.421 9
  21789884.815   -13909933.630 6 -10764353.849 7
 95  2 19 18 51 59.9990000  0  7 28 18 14 31 22 29 19
  23820778.565    -4239291.194 5  -3203381.179 4
  20833714.073   -19377087.316 7 -15031968.986 9
  22037186.214     4197876.277 6   3331279.814 6
  24237845.019    -1628884.433 3   -763147.541 1
  22636168.104      523665.278 6    479431.654 6
  20410270.190   -13477386.480 7 -10395448.802 9
  21781411.214   -13954457.385 6 -10799047.645 7
 95  2 19 18 52 29.9990000  0  7 28 18 14 31 22 29 19
  23810820.034    -4291593.326 5  -3244136.082 2
  20824400.604   -19426025.593 7 -15070102.710 9
  22056268.519     4298153.188 6   3409417.612 6
  24222283.659    -1710671.456 5   -826877.413 2
  22653985.120      617277.302 6    552376.039 6
  20410784.315   -13474678.240 7 -10393338.503 9
  21772973.972   -13998799.581 6 -10833599.985 7
 95  2 19 18 52 59.9990000  0  7 28 18 14 31 22 29 19
  23800924.362    -4343606.740 5  -3284666.008 4
  20815144.425   -19474673.681 7 -15108010.294 9
  22075407.745     4398733.063 6   3487791.482 6
  24206713.058    -1792484.854 4   -890627.935 2
  22671862.144      711230.685 6    625586.423 6
  20411364.886   -13471632.254 7 -10390965.011 9
  21764574.339   -14042941.205 6 -10867996.023 6
 95  2 19 18 53 29.9990000  0  7 28 18 14 31 22 29 19
  23791084.214    -4395326.681 5  -3324967.276 4
  20805941.120   -19523037.263 7 -15145696.193 9
  22094606.511     4499615.150 6   3566400.847 6
  24191143.784    -1874300.603 4   -954380.277 3
  22689801.769      805511.843 6    699052.199 6
  20412008.448   -13468245.874 7 -10388326.287 9
  21756214.659   -14086871.527 6 -10902227.418 6
 95  2 19 18 53 59.9990000  0  7 28 18 14 31 22 29 19
  23781299.831    -4446760.596 5  -3365045.666 5
  20796786.706   -19571132.815 7 -15183173.241 9
  22113858.167     4600788.143 6   3645236.885 6
  24175575.222    -1956112.721 4  -1018129.798 4
  22707799.542      900091.914 6    772750.888 6
  20412714.073   -13464537.152 7 -10385436.391 9
  21747891.175   -14130618.216 6 -10936315.728 6
 95  2 19 18 54 29.9990000  0  7 28 18 14 31 22 29 19
  23771566.901    -4497872.985 5  -3404873.499 5
  20787688.745   -19618935.237 7 -15220421.880 9
  22133169.644     4702272.444 6   3724315.499 6
  24160016.120    -2037876.031 3  -1081841.280 2
  22725860.472      994992.726 6    846699.534 6
  20413489.511   -13460464.701 7 -10382263.056 9
  21739606.612   -14174156.622 6 -10970241.743 6
 95  2 19 18 54 59.9990000  0  7 28 18 14 31 22 29 19
  23761891.792    -4548698.893 5  -3444478.081 5
  20778641.386   -19666491.127 7 -15257478.416 9
  22152531.651     4804022.168 6   3803600.940 6
  24144463.308    -2119620.773 4  -1145538.317 2
  22743975.503     1090175.728 6    920868.047 6
  20414328.487   -13456045.807 7 -10378819.774 9
  21731354.854   -14217515.706 6 -11004028.021 6
 95  2 19 18 55 29.9990000  0  7 28 18 14 31 22 29 19
  23752282.042    -4599229.008 5  -3483852.185 5
  20769639.894   -19713800.373 7 -15294342.765 9
  22171946.362     4906043.530 6   3883098.041 6
  24128911.026    -2201356.231 4  -1209228.153 3
  22762139.511     1185640.147 6    995255.841 6
  20415238.011   -13451274.554 7 -10375101.922 9
  21723134.636   -14260693.792 6 -11037673.274 6
 95  2 19 18 55 59.9990000  0  7 28 18 14 31 22 29 19
  23742723.144    -4649456.309 5  -3522990.320 5
  20760684.503   -19760847.104 7 -15331002.554 9
  22191414.753     5008333.912 6   3962804.778 6
  24113349.597    -2283105.175 3  -1272928.505 2
  22780356.386     1281388.974 6   1069865.254 6
  20416215.308   -13446138.858 7 -10371100.097 9
  21714960.425   -14303681.526 6 -11071170.187 6
 95  2 19 18 56 29.9990000  0  7 28 18 14 31 22 29 19
  23733224.269    -4699360.556 5  -3561876.745 5
  20751791.495   -19807598.513 7 -15367432.223 9
  22210931.901     5110906.452 6   4042731.370 6
  24097790.425    -2364852.990 4  -1336628.030 2
  22798638.378     1377443.132 6   1144712.598 6
  20417268.104   -13440604.786 7 -10366787.838 9
  21706819.659   -14346441.737 6 -11104489.813 7
 95  2 19 18 56 59.9990000  0  7 28 18 14 31 22 29 19
  23723789.581    -4748950.370 5  -3600518.133 5
  20742949.245   -19854056.459 7 -15403633.232 9
  22230501.401     5213756.426 6   4122874.157 6
  24082235.808    -2446603.006 4  -1400329.266 1
  22816971.487     1473778.465 6   1219779.037 6
  20418396.550   -13434681.280 7 -10362172.122 9
  21698727.769   -14388972.598 6 -11137630.728 6
 95  2 19 18 57 29.9990000  0  7 28 18 14 31 22 29 19
  23714415.604    -4798210.277 5  -3638902.468 5
  20734169.394   -19900201.872 7 -15439590.702 9
  22250130.050     5316905.547 6   4203250.022 6
  24066684.261    -2528327.632 4  -1464010.730 2
  22835355.784     1570403.041 6   1295070.857 6
  20419598.050   -13428360.516 7 -10357246.859 9
  21690677.894   -14431268.290 6 -11170588.390 6
 95  2 19 18 57 59.9990000  0  7 28 18 14 31 22 29 19
  23705101.901    -4847143.071 5  -3677031.909 5
  20725446.870   -19946031.706 7 -15475302.258 9
  22269815.589     5420339.972 6   4283848.217 6
  24051145.487    -2609997.417 5  -1527649.492 2
  22853799.886     1667318.097 6   1370589.000 6
  20420876.081   -13421645.652 7 -10352014.509 9
  21682674.628   -14473335.207 6 -11203367.788 6
 95  2 19 18 58 29.9990000  0  7 28 18 14 31 22 29 19
  23695848.651    -4895753.612 5  -3714910.206 5
  20716783.550   -19991558.398 7 -15510777.594 9
  22289549.855     5524056.136 6   4364665.936 6
  24035616.870    -2691595.575 3  -1591232.443 2
  22872296.761     1764520.507 6   1446331.065 6
  20422224.542   -13414557.410 7 -10346491.215 9
  21674709.183   -14515175.548 6 -11235970.644 6
 95  2 19 18 58 59.9990000  0  7 28 18 14 31 22 29 19
  23686663.440    -4944047.291 5  -3752541.596 5
  20708173.620   -20036795.433 7 -15546027.237 9
  22309335.659     5628037.700 6   4445690.476 6
  24020099.933    -2773129.866 3  -1654765.619 2
  22890847.706     1861996.132 6   1522286.054 6
  20423640.683   -13407121.902 7 -10340697.324 9
  21666792.331   -14556810.733 6 -11268413.627 7
 95  2 19 18 59 29.9990000  0  7 28 18 14 31 22 29 19
  23677535.206    -4992020.729 5  -3789923.453 5
  20699621.042   -20081745.901 7 -15581053.562 9
  22329171.229     5732266.670 6   4526907.797 6
  24004596.745    -2854613.381 3  -1718259.190 3
  22909449.901     1959751.720 6   1598459.191 6
  20425119.823   -13399341.554 7 -10334634.730 9
  21658905.683   -14598247.210 6 -11300701.783 7
 95  2 19 18 59 59.9990000  0  7 28 18 14 31 22 29 19
  23668467.769    -5039666.528 5  -3827050.009 5
  20691123.620   -20126406.156 7 -15615853.769 9
  22349050.167     5836727.636 6   4608305.897 6
  23989096.183    -2936053.401 3  -1781718.889 3
  22928106.214     2057782.291 6   1674846.592 6
  20426666.214   -13391216.836 7 -10328303.789 9
  21651056.901   -14639478.532 6 -11332830.074 7
 95  2 19 19  0 29.9990000  0  7 28 18 14 31 22 29 19
  23659464.354    -5086980.856 5  -3863918.267 5
  20682679.729   -20170777.168 7 -15650428.580 9
  22368974.175     5941419.969 6   4689884.264 6
  23973606.636    -3017461.381 4  -1845153.621 3
  22946807.394     2156082.693 6   1751444.233 6
  20428279.300   -13382744.772 7 -10321702.192 9
  21643245.683   -14680514.083 6 -11364805.808 7
 95  2 19 19  0 59.9990000  0  7 28 18 14 31 22 29 19
  23650525.565    -5133966.151 5  -3900530.144 5
  20674290.065   -20214869.257 7 -15684786.041 9
  22388937.104     6046329.562 6   4771631.932 6
  23958119.675    -3098846.774 4  -1908570.749 3
  22965561.237     2254633.716 6   1828237.171 6
  20429961.487   -13373909.534 7 -10314817.611 9
  21635472.269   -14721371.949 6 -11396643.087 7
 95  2 19 19  1 29.9990000  0  7 28 18 14 31 22 29 19
  23641654.073    -5180598.027 5  -3936866.626 5
  20665954.784   -20258664.472 7 -15718912.187 9
  22408947.136     6151484.488 6   4853570.758 6
  23942642.784    -3180182.129 5  -1971948.888 3
  22984370.159     2353459.078 6   1905243.890 6
  20431715.433   -13364681.869 7 -10307627.242 9
  21627738.206   -14762019.142 6 -11428316.215 7
 95  2 19 19  1 59.9990000  0  7 28 18 14 31 22 29 19
  23632845.589    -5226890.584 5  -3972938.707 4
  20657675.222   -20302172.925 7 -15752814.878 9
  22429004.956     6256886.663 6   4935702.256 6
  23927174.964    -3261466.120 5  -2035286.979 3
  23003225.206     2452544.505 6   1982453.252 6
  20433545.183   -13355077.391 7 -10300143.239 9
  21620037.987   -14802471.723 7 -11459837.704 7
 95  2 19 19  2 29.9990000  0  7 28 18 14 31 22 29 19
  23624095.651    -5272844.293 5  -4008746.755 5
  20649453.401   -20345384.512 7 -15786486.248 9
  22449110.378     6362546.509 6   5018034.537 6
  23911715.245    -3342695.079 5  -2098582.212 2
  23022128.433     2551887.734 6   2059863.482 6
  20435443.222   -13345092.795 7 -10292363.047 9
  21612380.347   -14842726.168 6 -11491204.805 7
 95  2 19 19  2 59.9990000  0  7 28 18 14 31 22 29 19
  23615410.792    -5318470.684 5  -4044299.756 5
  20641287.597   -20388298.472 7 -15819925.699 8
  22469264.104     6468452.843 6   5100558.884 6
  23896269.425    -3423887.578 5  -2161848.986 2
  23041076.151     2651464.071 6   2137455.362 6
  20437414.604   -13334738.057 7 -10284294.441 9
  21604755.925   -14882780.602 6 -11522416.027 7
 95  2 19 19  3 29.9990000  0  7 28 18 14 31 22 29 19
  23606799.487    -5363734.391 5  -4079570.142 5
  20633185.597   -20430860.988 7 -15853091.289 9
  22489471.433     6574645.182 6   5183306.086 6
  23880829.253    -3505009.178 4  -2225060.531 3
  23060079.433     2751321.064 6   2215265.929 6
  20439459.151   -13323988.499 7 -10275918.172 9
  21597179.933   -14922603.469 7 -11553446.824 7
 95  2 19 19  3 59.9990000  0  7 28 18 14 31 22 29 19
  23598258.089    -5408642.912 5  -4114563.785 5
  20625151.753   -20473076.237 7 -15885986.293 8
  22509729.972     6681109.621 5   5266265.330 5
  23865401.519    -3586071.523 3  -2288225.889 3
  23079129.347     2851438.786 6   2293279.650 6
  20441580.323   -13312847.852 7 -10267237.161 9
  21589642.589   -14962224.732 7 -11584320.535 7
 95  2 19 19  4 29.9990000  0  7 28 18 14 31 22 29 19
  23589774.651    -5453209.914 5  -4149291.305 5
  20617183.151   -20514966.670 7 -15918628.186 9
  22530036.940     6787814.965 5   5349412.266 6
  23849983.683    -3667098.953 5  -2351364.000 3
  23098228.597     2951794.062 6   2371478.494 6
  20443771.269   -13301332.310 7 -10258264.027 9
  21582133.073   -15001664.226 7 -11615052.591 7
 95  2 19 19  4 59.9990000  0  7 28 18 14 31 22 29 19
  23581359.151    -5497419.787 5  -4183740.540 5
  20609271.940   -20556532.482 7 -15951017.119 9
  22550388.659     6894763.201 5   5432748.471 6
  23834576.761    -3748069.627 5  -2414457.911 5
  23117373.308     3052403.114 6   2449875.058 6
  20446036.698   -13289427.022 7 -10248987.197 9
  21574667.503   -15040918.572 7 -11645640.383 7
 95  2 19 19  5 29.9990000  0  7 28 18 14 31 22 29 19
  23573020.620    -5541268.657 5  -4217908.477 5
  20601421.948   -20597786.460 7 -15983163.075 9
  22570782.886     7001938.734 6   5516261.809 6
  23819184.292    -3828966.492 5  -2477494.317 4
  23136569.214     3153274.377 6   2528475.970 6
  20448375.058   -13277140.230 7 -10239413.096 9
  21567227.862   -15079996.596 7 -11676090.780 7
 95  2 19 19  5 59.9990000  0  7 28 18 14 31 22 29 19
  23564743.964    -5584746.421 5  -4251787.263 5
  20593631.175   -20638725.826 7 -16015063.887 9
  22591218.183     7109328.464 6   5599942.048 5
  23803806.339    -3909770.266 5  -2540458.194 5
  23155813.651     3254401.362 6   2607276.132 6
  20450786.378   -13264466.519 7 -10229537.488 9
  21559830.120   -15118876.857 7 -11706387.083 7
 95  2 19 19  6 29.9990000  0  7 28 18 14 31 22 29 19
  23556539.753    -5627848.379 5  -4285373.168 5
  20585900.815   -20679335.690 7 -16046707.941 9
  22611692.964     7216920.296 6   5683779.753 5
  23788448.253    -3990467.091 5  -2603338.741 4
  23175106.925     3355793.775 6   2686283.127 6
  20453271.784   -13251406.695 7 -10219361.009 9
  21552477.347   -15157533.252 7 -11736508.941 7
 95  2 19 19  6 59.9990000  0  7 28 18 14 31 22 29 19
  23548409.894    -5670581.018 5  -4318671.312 6
  20578237.019   -20719614.546 7 -16078094.056 9
  22632204.519     7324702.719 6   5767765.984 5
  23773116.417    -4071057.036 5  -2666135.995 4
  23194448.558     3457436.605 6   2765485.228 6
  20455830.050   -13237966.469 7 -10208888.131 9
  21545161.136   -15195975.078 7 -11766463.604 7
 95  2 19 19  7 29.9990000  0  7 28 18 14 31 22 29 19
  23540345.394    -5712948.735 5  -4351685.127 6
  20570638.714   -20759560.980 7 -16109221.155 9
  22652750.159     7432668.771 6   5851895.310 5
  23757792.729    -4151552.022 4  -2728859.271 4
  23213835.261     3559316.052 6   2844871.707 6
  20458457.315   -13224155.439 7 -10198126.303 9
  21537883.144   -15234202.106 7 -11796250.898 7
 95  2 19 19  7 59.9990000  0  8 28 18 14 31 22 29 19 27
  23532357.925    -5754941.250 5  -4384406.519 5
  20563103.511   -20799161.000 7 -16140078.308 9
  22673332.503     7540835.874 6   5936181.274 5
  23742498.972    -4231939.155 5  -2791498.521 2
  23233266.784     3661428.484 6   2924439.765 6
  20461158.425   -13209963.952 7 -10187068.016 9
  21530652.472   -15272204.231 7 -11825862.921 7
  24489373.448          -0.40413
 95  2 19 19  8 29.9990000  0  8 28 18 14 31 22 29 19 27
  23524436.886    -5796558.564 5  -4416835.585 5
  20555631.354   -20838425.115 7 -16170673.721 9
  22693958.362     7649218.696 6   6020635.350 5
  23727218.128    -4312226.823 4  -2854060.263 2
  23252742.847     3763763.656 6   3004181.383 5
  20463931.440   -13195394.295 7 -10175715.052 9
  21523460.683   -15309994.893 7 -11855310.198 7
  24475985.308      -70382.673 3
 95  2 19 19  8 59.9990000  0  8 28 18 14 31 22 29 19 27
  23516588.151    -5837802.757 5  -4448973.884 6
  20548215.847   -20877383.993 7 -16201031.289 9
  22714624.651     7757826.101 6   6105264.434 5
  23711958.761    -4392423.736 5  -2916551.282 4
  23272253.940     3866308.123 6   3084086.086 5
  20466775.456   -13180444.571 7 -10164065.941 9
  21516308.151   -15347592.923 7 -11884607.351 7
  24462598.542     -140705.689 3        -0.16111
 95  2 19 19  9 29.9990000  0  8 28 18 14 31 22 29 19 27
  23508811.737    -5878681.573 5  -4480827.485 5
  20540857.284   -20916046.644 7 -16231158.026 9
  22735331.573     7866644.633 6   6190057.999 5
  23696710.112    -4472544.652 5  -2978983.115 4
  23291805.144     3969048.168 6   3164143.181 6
  20469690.956   -13165122.976 7 -10152127.053 9
  21509190.011   -15385008.226 7 -11913762.139 7
  24449226.964     -210973.520 3    -54754.228 2
 95  2 19 19  9 59.9990000  0  8 28 18 14 31 22 29 19 27
  23501109.823    -5919169.303 5  -4512376.330 5
  20533560.972   -20954388.874 7 -16261035.090 9
  22756085.112     7975692.431 6   6275030.225 5
  23681485.323    -4552561.736 5  -3041334.018 3
  23311396.589     4071993.610 5   3244360.330 6
  20472683.167   -13149399.019 7 -10139874.641 9
  21502104.183   -15422227.179 7 -11942763.916 7
  24435871.503     -281158.012 3   -109443.373 2
 95  2 19 19 10 29.9990000  0  8 28 18 14 31 22 29 19 27
  23493474.589    -5959280.629 5  -4543631.898 5
  20526323.839   -20992432.112 7 -16290679.170 9
  22776872.269     8084941.277 5   6360159.114 6
  23666272.417    -4632500.262 5  -3103623.721 4
  23331022.854     4175129.427 6   3324725.819 6
  20475752.503   -13133272.701 7 -10127308.696 9
  21495057.151   -15459262.691 7 -11971622.752 7
  24422531.980     -351281.179 3   -164084.695 1
 95  2 19 19 10 59.9990000  0  8 28 18 14 31 22 29 19 27
  23485909.636    -5999019.601 5  -4574597.295 5
  20519139.409   -21030171.535 7 -16320086.525 9
  22797695.128     8194367.827 5   6445426.465 5
  23651078.308    -4712362.479 5  -3165853.969 5
  23350683.933     4278459.038 5   3405242.329 5
  20478896.456   -13116743.311 7 -10114428.668 9
  21488046.854   -15496123.307 7 -12000345.306 7
  24409195.839     -421353.396 3   -218686.363 1
 95  2 19 19 11 29.9990000  0  8 28 18 14 31 22 29 19 27
  23478423.104    -6038353.898 5  -4605247.381 5
  20512030.526   -21067551.840 7 -16349214.032 9
  22818553.120     8303977.586 5   6530836.576 6
  23635901.354    -4792113.440 5  -3227997.504 4
  23370390.300     4382011.490 5   3485932.486 5
  20482123.136   -13099790.589 7 -10101218.769 9
  21481065.019   -15532782.791 7 -12028911.132 7
  24395875.987     -491345.163 3   -273225.314 2
 95  2 19 19 11 59.9990000  0  8 28 18 14 31 22 29 19 27
  23471017.237    -6077307.910 5  -4635601.133 5
  20504975.659   -21104605.665 7 -16378087.142 9
  22839439.792     8413733.172 5   6616360.325 6
  23620741.995    -4871765.725 5  -3290064.164 5
  23390134.667     4485765.161 5   3566779.436 5
  20485422.511   -13082455.318 7 -10087710.776 9
  21474126.081   -15569266.161 7 -12057339.721 7
  24382561.800     -561289.938 3   -327727.670 1
 95  2 19 19 12 29.9990000  0  8 28 18 14 31 22 29 19 27
  23463673.495    -6115871.191 5  -4665650.422 5
  20497992.745   -21141311.628 7 -16406689.203 9
  22860358.339     8523650.388 5   6702010.006 6
  23605608.894    -4951304.757 4  -3352042.557 5
  23409921.597     4589741.546 5   3647799.893 5
  20488793.659   -13064736.740 7 -10073904.110 9
  21467221.394   -15605561.204 7 -12085621.568 7
  24369262.378     -631186.348 3   -382192.372 1
 95  2 19 19 12 59.9990000  0  8 28 18 14 31 22 29 19 27
  23456412.464    -6154033.874 5  -4695387.558 5
  20491078.917   -21177643.508 7
  22881304.300     8633729.323 5   6787785.691 5
  23590495.573    -5030712.218 5  -3413918.438 4
  23429751.628     4693954.034 5   3729004.357 6
  20492237.339   -13046643.647 7 -10059805.616 9
  21460348.472   -15641661.946 7
  24355980.206     -701003.621 3   -436595.391 1
 95  2 19 19 13 29.9990000  0  8 28 18 14 31 22 29 19 27
  23449224.972    -6191794.519 5  -4724811.395 5
  20484232.175   -21213597.066 7
  22902283.050     8743976.878 5   6873692.783 5
  23575413.097    -5109974.649 5  -3475681.330 5
  23449624.581     4798386.027 5   3810379.848 6
  20495752.823   -13028173.604 7 -10045413.396 9
  21453523.065   -15677553.150 7
  24342707.495     -770729.557 3   -490927.247 1
 95  2 19 19 13 59.9990000  0  8 28 18 14 31 22 29 19 27
  23442117.558    -6229155.540 5  -4753923.844 5
  20477465.714   -21249183.607 7
  22923293.284     8854409.891 5   6959744.369 5
  23560359.956    -5189091.499 5  -3537330.773 4
  23469535.323     4903023.020 5   3891915.072 5
  20499340.378   -13009324.415 7 -10030725.734 9
  21446731.542   -15713223.508 7
  24329457.659     -840377.777 3   -545198.584 1
 95  2 19 19 14 29.9990000  0  8 28 18 14 31 22 29 19 27
  23435085.550    -6266116.154 5  -4782724.284 5
  20470761.769   -21284397.557 7 -16518184.746 9
  22944350.714     8965039.141 5   7045948.880 5
  23545329.089    -5268067.776 5  -3598870.687 4
  23489486.362     5007858.189 5   3973604.714 5
  20503003.229   -12990065.980 7 -10015719.177 9
  21439987.034   -15748670.120 7 -12197134.977 7
  24316214.925     -909943.639 3   -599405.698 2
 95  2 19 19 14 59.9990000  0  8 28 18 14 31 22 29 19 27
  23428130.745    -6302677.619 5  -4811213.688 5
  20464126.612   -21319261.620 7 -16545351.546 9
  22965437.901     9075849.081 5   7132294.193 5
  23530329.729    -5346902.271 5  -3660300.114 5
  23509469.323     5112872.473 5   4055433.942 5
  20506748.604   -12970392.898 7 -10000389.522 9
  21433282.456   -15783897.867 7 -12224585.165 7
  24302997.120     -979426.548 3   -653548.167 2
 95  2 19 19 15 29.9990000  0  8 28 18 14 31 22 29 19 27
  23421251.261    -6338839.234 5  -4839391.519 5
  20457560.479   -21353787.530 7 -16572254.850 9
  22986560.933     9186847.629 5   7218786.482 5
  23515356.581    -5425598.280 5  -3721621.623 5
  23529483.237     5218046.262 5   4137387.458 6
  20510569.597   -12950301.973 7  -9984734.268 9
  21426614.159   -15818924.828 7 -12251878.897 7
  24289782.565    -1048850.684 3   -707644.858 2
 95  2 19 19 15 59.9990000  0  8 28 18 14 31 22 29 19 27
  23414437.487    -6374592.885 5  -4867251.464 5
  20451052.292   -21387976.042 7 -16598895.258 9
  23007716.644     9298026.432 5   7305419.227 5
  23500403.362    -5504155.476 5  -3782834.930 5
  23549530.745     5323395.129 5   4219477.392 5
  20514473.573   -12929795.099 7  -9968754.902 9
  21419988.237   -15853767.472 7 -12279029.000 7
  24276583.487    -1118203.627 3   -761686.084 2
 95  2 19 19 16 29.9990000  0  8 28 18 14 31 22 29 19 27
  23407717.472    -6409938.182 5  -4894793.194 5
  20444612.800   -21421827.805 7 -16625273.251 9
  23028901.573     9409363.317 5   7392175.129 5
  23485481.753    -5582566.401 5  -3843934.284 4
  23569611.050     5428912.500 5   4301698.616 6
  20518454.175   -12908875.668 7  -9952454.065 9
  21413385.386   -15888447.519 7 -12306052.406 7
  24263405.534    -1187471.144 3   -815660.704 2
 95  2 19 19 16 59.9990000  0  8 28 18 14 31 22 29 19 27
  23401069.159    -6444860.340 5  -4922005.210 6
  20438231.589   -21455339.688 7 -16651386.400 9
  23050117.722     9520856.097 5   7479052.513 5
  23470592.683    -5660823.147 5  -3904913.494 4
  23589723.745     5534605.678 5   4384056.813 5
  20522509.933   -12887555.424 7  -9935840.907 9
  21406820.175   -15922964.416 7 -12332948.679 7
  24250243.159    -1256647.324 3   -869564.164 2
 95  2 19 19 17 29.9990000  0  8 28 18 14 31 22 29 19 27
  23394508.753    -6479349.893 5
  20431924.761   -21488492.085 7 -16677219.434 9
  23071363.917     9632504.934 5   7566051.501 5
  23455727.042    -5738926.164 5  -3965772.938 4
  23609872.761     5640484.725 5   4466559.887 5
  20526644.284   -12865833.969 7  -9918915.109 9
  21400284.159   -15957307.511 7
  24237100.808    -1325719.113 3   -923386.280 2
 95  2 19 19 17 59.9990000  0  8 28 18 14 31 22 29 19 27
  23388023.979    -6513405.956 5
  20425685.550   -21521293.650 7 -16702779.096 9
  23092639.464     9744305.028 5   7653168.350 5
  23440895.589    -5816873.876 5  -4026511.371 4
  23630053.120     5746542.827 5   4549202.481 5
  20530854.394   -12843708.220 7  -9901674.291 9
  21393782.104   -15991463.370 7 -12386324.481 7
  24223974.175    -1394681.237 3   -977122.937 3
 95  2 19 19 18 29.9990000  0  8 28 18 14 31 22 29 19 27
  23381620.800    -6547059.933 5        -0.06616
  20419503.917   -21553771.491 7 -16728086.503 9
  23113940.081     9856225.399 5   7740378.937 5
  23426085.292    -5894699.265 5  -4087154.489 3
  23650261.854     5852744.239 5   4631956.755 5
  20535136.550   -12821206.920 7  -9884140.827 9
  21387314.550   -16025456.055 7 -12412812.283 7
  24210859.604    -1463581.139 3  -1030811.098 3
 95  2 19 19 18 59.9990000  0  8 28 18 14 31 22 29 19 27
  23375300.120    -6580273.935 5    -25881.056 6
  20413393.214   -21585879.387 7 -16753105.633 9
  23135267.167     9968308.803 5   7827716.536 5
  23411305.722    -5972368.800 5  -4147676.162 4
  23670511.589     5959141.998 5   4714864.015 5
  20539497.229   -12798289.862 7  -9866283.398 9
  21380890.394   -16059231.555 7 -12439130.828 7
  24197766.440    -1532390.487 3  -1084428.727 4
 95  2 19 19 19 29.9990000  0  8 28 18 14 31 22 29 19 27
  23369062.964    -6613070.526 5    -51436.785 6
  20407349.667   -21617627.377 7 -16777844.320 9
  23156623.831    10080534.869 5   7915165.302 5
  23396553.620    -6049882.241 5  -4208076.168 4
  23690788.987     6065715.293 5   4797908.040 5
  20543933.979   -12774971.244 7  -9848113.061 9
  21374500.065   -16092809.341 7 -12465295.330 7
  24184689.815    -1601126.352 4  -1137989.077 4
 95  2 19 19 19 59.9990000  0  8 28 18 14 31 22 29 19 27
  23362895.480    -6645447.917 5    -76665.868 5
  20401382.659   -21649001.296 7 -16802291.536 9
  23178003.628    10192898.318 5   8002721.120 5
  23381839.183    -6127220.551 5  -4268339.704 5
  23711103.659     6172465.877 5   4881090.231 5
  20548450.378   -12751239.027 7  -9829620.447 9
  21368144.901   -16126187.454 7 -12491304.248 7
  24171619.354    -1669797.657 4  -1191499.109 3
 95  2 19 19 20 29.9990000  0  8 28 18 14 31 22 29 19 27
  23356822.644    -6677387.268 5   -101553.619 6
  20395490.050   -21679960.523 7 -16826415.601 9
  23199412.690    10305399.172 5   8090383.993 5
  23367160.659    -6204356.086 5  -4328445.226 5
  23731457.026     6279421.689 5   4964432.345 5
  20553048.706   -12727074.657 7  -9810791.093 9
  21361834.097   -16159348.194 7 -12517143.778 7
  24158573.065    -1738382.336 5  -1244941.688 3
 95  2 19 19 20 59.9990000  0  8 28 18 14 31 22 29 19 27
  23350829.120    -6708877.743 5   -126091.617 5
  20389679.769   -21710497.568 7 -16850210.704 9
  23220850.159    10418049.368 5   8178163.235 5
  23352523.823    -6281272.802 5  -4388380.247 5
  23751845.628     6386577.614 5   5047930.410 5
  20557731.019   -12702469.887 7  -9791618.562 9
  21355566.784   -16192281.500 7 -12542806.078 8
  24145536.565    -1806874.938 5  -1298312.503 3
 95  2 19 19 21 29.9990000  0  8 28 18 14 31 22 29 19 27
  23344916.370    -6739939.133 5   -150295.250 5
  20383943.112   -21740635.907 7 -16873695.122 9
  23242306.237    10530820.734 5   8266036.894 5
  23337924.784    -6357989.242 5  -4448159.209 4
  23772268.597     6493883.066 5   5131544.984 5
  20562492.315   -12677451.527 7  -9772123.759 9
  21349340.472   -16225023.234 7 -12568319.116 7
  24132514.753    -1875297.867 4  -1351629.016 3
 95  2 19 19 22  0.0000000  0  8 28 18 14 31 22 29 19 27
  23339086.438    -6770584.411 5   -174174.636 5
  20378282.641   -21770388.870 7 -16896879.249 9
  23263789.828    10643700.504 5   8353995.044 5
  23323355.906    -6434539.860 5  -4507808.955 5
  23792711.117     6601308.677 5   5215253.165 5
  20567327.531   -12652044.177 7  -9752325.849 9
  21343142.055   -16257589.222 7 -12593695.200 7
  24119503.125    -1943676.293 4  -1404910.885 3
 95  2 19 19 22 30.0000000  0  8 28 18 14 31 22 29 19 27
  23333335.211    -6800801.763 5   -197720.593 5
  20372693.539   -21799765.201 7 -16919769.900 9
  23285291.930    10756699.515 5   8442046.090 5
  23308820.273    -6510926.910 5  -4567331.248 4
  23813176.914     6708842.701 5   5299045.796 5
  20572233.641   -12626259.094 7  -9732233.607 9
  21336977.773   -16289982.105 7 -12618936.404 7
  24106500.398    -2012002.622 4  -1458152.125 4
 95  2 19 19 23  0.0000000  0  8 28 18 14 31 22 29 19 27
  23327670.531    -6830580.207 5   -220924.521 5
  20367173.398   -21828764.837 7 -16942367.014 9
  23306823.953    10869841.454 5   8530208.511 5
  23294315.508    -6587156.642 5  -4626730.952 3
  23833658.836     6816486.677 5   5382924.146 5
  20577213.305   -12600089.914 7  -9711842.055 8
  21330847.633   -16322198.848 7 -12644040.366 7
  24093513.633    -2080261.634 4  -1511340.919 3
 95  2 19 19 23 30.0000000  0  8 28 18 14 31 22 29 19 27
  23322082.391    -6859920.832 5   -243787.308 5
  20361727.758   -21857380.408 7 -16964664.858 9
  23328378.148    10983106.955 5   8618467.220 5
  23279839.586    -6663230.251 5  -4686009.013 4
  23854162.203     6924231.130 5   5466880.779 5
  20582265.703   -12573535.462 7  -9691150.297 9
  21324749.719   -16354250.247 7 -12669015.484 8
  24080534.344    -2148448.327 5  -1564473.362 5
 95  2 19 19 24  0.0000000  0  8 28 18 14 31 22 29 19 27
  23316590.531    -6888807.648 5   -266296.449 5
  20356357.477   -21885608.694 7 -16986660.918 9
  23349956.078    11096497.222 5   8706823.128 5
  23265392.719    -6739137.406 5  -4745157.325 5
  23874690.562     7032110.684 5   5550942.675 5
  20587397.203   -12546575.418 7  -9670142.493 9
  21318680.539   -16386116.889 7 -12693846.625 7
  24067579.109    -2216551.307 5  -1617540.584 5
 95  2 19 19 24 30.0000000  0  8 28 18 14 31 22 29 19 27
  23311175.898    -6917245.722 5   -288455.926 6
  20351057.289   -21913458.575 7 -17008362.142 8
  23371553.352    11209996.423 5   8795263.947 5
  23250980.406    -6814870.792 5  -4804170.234 5
  23895245.672     7140134.309 5   5635116.861 5
  20592607.812   -12519195.765 7  -9648807.729 8
  21312656.016   -16417804.314 7 -12718538.127 8
  24054631.172    -2284570.755 5  -1670542.716 5
 95  2 19 19 25  0.0000000  0  8 28 18 14 31 22 29 19 27
  23305849.664    -6945230.052 5   -310261.818 6
  20345832.734   -21940917.332 7 -17029758.564 9
  23393169.484    11323594.154 5   8883781.527 5
  23236608.516    -6890404.163 5  -4863027.310 5
  23915829.273     7248312.746 5   5719411.639 5
  20597902.781   -12491371.554 7  -9627126.546 9
  21306657.883   -16449297.810 7 -12743078.508 7
  24041707.125    -2352502.740 5  -1723476.665 5
 95  2 19 19 25 30.0000000  0  8 28 18 14 31 22 29 19 27
  23300611.391    -6972774.700 5   -331725.106 6
  20340678.477   -21967996.015 7 -17050858.843 9
  23414801.516    11437267.039 5   8972357.656 5
  23222272.922    -6965740.646 6  -4921730.967 5
  23936444.344     7356636.673 5   5803819.795 5
  20603277.867   -12463123.139 7  -9605114.813 8
  21300698.812   -16480617.284 7 -12767483.299 8
  24028791.109    -2420386.757 5  -1776373.258 4
 95  2 19 19 26  0.0000000  0  8 28 18 14 31 22 29 19 27
  23295456.398    -6999870.408 5   -352838.559 6
  20335597.523   -21994690.496 7 -17071659.743 9
  23436449.492    11551024.912 5   9061000.008 5
  23207974.500    -7040877.831 5  -4980279.342 5
  23957087.508     7465118.946 5   5888351.354 5
  20608733.945   -12434452.476 7  -9582774.064 8
  21294776.820   -16511747.493 7 -12791740.593 8
  24015881.383    -2488219.615 5  -1829229.984 5
 95  2 19 19 26 30.0000000  0  8 28 18 14 31 22 29 19 27
  23290382.609    -7026501.153 5   -373589.703 6
  20330598.438   -22020968.611 7 -17092136.187 8
  23458116.508    11664892.217 5   9149727.628 5
  23193721.383    -7115784.390 5  -5038648.006 5
  23977760.906     7573753.736 5   5973001.746 5
  20614270.922   -12405356.146 7  -9560101.618 9
  21288890.227   -16542680.515 7 -12815844.233 8
  24002986.219    -2555986.437 5  -1882035.269 5
 95  2 19 19 27  0.0000000  0  8 28 18 14 31 22 29 19 27
  23285399.133    -7052688.373 5   -393995.249 6
  20325675.289   -22046853.270 7 -17112306.045 8
  23479800.812    11778838.080 5   9238516.475 5
  23179502.930    -7190488.323 5  -5096858.760 5
  23998457.016     7682504.975 5   6057742.874 5
  20619879.547   -12375880.643 7  -9537133.725 8
  21283034.633   -16573446.382 7 -12839817.636 8
  23990097.844    -2623706.518 5  -1934804.109 5
 95  2 19 19 27 30.0000000  0  8 28 18 14 31 22 29 19 27
  23280509.438    -7078408.492 5   -414036.812 6
  20320825.992   -22072328.793 7 -17132157.104 8
  23501503.547    11892874.324 5   9327375.721 5
  23165330.367    -7264972.935 5  -5154898.651 4
  24019177.492     7791388.471 5   6142587.049 5
  20625561.289   -12346024.369 7  -9513869.119 9
  21277215.359   -16604032.278 7 -12863650.792 8
  23977225.680    -2691350.930 5  -1987514.001 5
 95  2 19 19 28  0.0000000  0  8 28 18 14 31 22 29 19 27
  23275706.562    -7103655.786 5
  20316053.141   -22097400.014 7
  23523218.383    12006992.380 5   9416298.758 5
  23151198.141    -7339225.597 5  -5212757.791 5
  24039923.859     7900408.081 5   6227537.306 4
  20631319.891   -12315763.552 7  -9490289.281 9
  21271432.469   -16634424.811 7 -12887333.281 8
  23964370.320    -2758897.194 5  -2040147.419 5
 95  2 19 19 28 30.0000000  0  8 28 18 14 31 22 29 19 27
  23270983.258    -7128462.329 5
  20311353.555   -22122106.005 7
  23544942.195    12121155.729 5   9505257.056 3
  23137109.812    -7413263.323 5  -5270449.444 5
  24060686.227     8009534.777 5   6312571.029 4
  20637151.586   -12285116.275 7  -9466408.309 9
  21265677.625   -16664664.385 7 -12910896.577 8
  23951531.086    -2826377.332 5  -2092729.302 5
 95  2 19 19 29  0.0000000  0  8 28 18 14 31 22 29 19 27
  23266353.758    -7152792.203 6
  20306726.516   -22146426.325 7
  23566681.406    12235384.587 5   9594266.439 5
  23123067.320    -7487056.222 5  -5327950.327 5
  24081477.086     8118802.677 5   6397714.791 4
  20643065.312   -12254037.196 7  -9442190.880 9
  21259957.180   -16694709.869 7 -12934308.639 8
  23938709.258    -2893749.490 5  -2145227.051 4
 95  2 19 19 29 30.0000000  0  8 28 18 14 31 22 29 19 27
  23261811.648    -7176670.907 6
  20302165.039   -22170390.643 7
  23588425.844    12349666.308 5   9683316.958 4
  23109070.297    -7560623.732 5  -5385275.568 5
  24102291.984     8228178.621 5   6482942.719 5
  20649060.500   -12222529.673 7  -9417639.586 8
  21254274.719   -16724581.911 7 -12957585.553 8
  23925903.617    -2961059.356 5  -2197676.259 4
 95  2 19 19 30  0.0000000  0  8 28 18 14 31 22 29 19 27
  23257354.234    -7200080.964 6   -508846.202 6
  20297677.766   -22193973.222 7 -17226944.981 8
  23610187.945    12464033.712 5   9772434.275 5
  23095115.312    -7633944.249 5  -5442408.371 5
  24123129.695     8337665.558 5   6568257.116 5
  20655143.523   -12190569.198 7  -9392735.350 9
  21248628.836   -16754256.682 7 -12980708.745 8
  23913107.594    -3028298.983 5  -2250070.740 4
 95  2 19 19 30 30.0000000  0  8 28 18 14 31 22 29 19 27
  23252986.062    -7223014.815 6   -526716.678 6
  20293266.039   -22217162.031 7 -17245014.184 8
  23631976.031    12578511.213 5   9861637.367 3
  23081212.711    -7707012.168 5  -5499344.324 5
  24143981.703     8447249.399 5   6653647.010 5
  20661309.203   -12158165.187 7  -9367485.497 8
  21243017.438   -16783741.022 7 -13003683.542 8
  23900321.984    -3095466.784 5  -2302409.253 5
 95  2 19 19 31  0.0000000  0  8 28 18 14 31 22 29 19 27
  23248716.359    -7245472.165 5   -544215.856 5
  20288929.789   -22239949.739 7 -17262770.844 8
  23653775.219    12693099.200 5   9950926.576 4
  23067353.922    -7779830.036 5  -5556085.414 5
  24164850.305     8556913.026 5   6739099.071 5
  20667559.586   -12125320.451 7  -9341892.222 8
  21237440.594   -16813033.837 7 -13026509.114 8
  23887555.922    -3162569.047 5  -2354696.692 4
 95  2 19 19 31 30.0000000  0  8 28 18 14 31 22 29 19 27
  23244529.727    -7267461.691 5   -561350.494 5
  20284667.383   -22262324.810 7 -17280205.969 8
  23675607.422    12807797.512 5  10040301.734 4
  23053542.781    -7852407.042 5  -5612638.861 5
  24185734.937     8666649.040 5   6824607.545 5
  20673889.789   -12092054.161 7  -9315970.466 9
  21231907.188   -16842143.212 7 -13049191.744 7
  23874797.570    -3229627.791 5  -2406950.227 5
 95  2 19 19 32  0.0000000  0  8 28 18 14 31 22 29 19 27
  23240436.664    -7288981.303 5   -578118.972 6
  20280494.445   -22284281.287 7 -17297314.923 8
  23697450.164    12922589.551 5  10129749.918 4
  23039780.391    -7924740.721 5  -5669002.700 5
  24206627.508     8776461.482 5   6910175.598 5
  20680296.688   -12058385.671 7  -9289735.304 9
  21226398.531   -16871068.167 7 -13071730.684 7
  23862047.875    -3296615.170 4  -2459148.149 4
 95  2 19 19 32 30.0000000  0  8 28 18 14 31 22 29 19 27
  23236430.125    -7310022.442 5   -594514.627 6
  20276393.609   -22305811.108 7 -17314091.399 8
  23719312.617    13037464.504 5  10219262.698 3
  23026058.383    -7996829.484 5  -5725175.680 5
  24227544.867     8886375.994 5   6995823.185 3
  20686783.398   -12024301.559 7  -9263176.284 9
  21220931.484   -16899808.794 7 -13094125.970 8
  23849318.492    -3363516.316 4  -2511278.849 4
 95  2 19 19 33  0.0000000  0  8 28 18 14 31 22 29 19 27
  23232518.594    -7330591.264 5   -610542.231 5
  20272376.984   -22326915.485 7 -17330536.371 8
  23741182.180    13152395.828 4  10308819.423 3
  23012388.648    -8068687.211 5  -5781168.660 5
  24248483.031     8996404.185 5   7081559.356 5
  20693347.086   -11989808.082 7  -9236298.287 9
  21215500.133   -16928360.746 7 -13116374.241 8
  23836599.398    -3430345.545 4  -2563353.541 3
 95  2 19 19 33 30.0000000  0  8 28 18 14 31 22 29 19 27
  23228692.172    -7350701.921 5   -626212.838 6
  20268436.297   -22347622.242 7 -17346671.511 8
  23763057.555    13267359.263 4  10398401.170 1
  22998753.211    -8140333.614 5  -5836996.958 5
  24269443.352     9106550.488 5   7167387.565 5
  20699982.875   -11954934.485 7  -9209124.085 9
  21210097.281   -16956744.624 7 -13138491.552 8
  23823895.078    -3497105.935 4  -2615374.586 4
 95  2 19 19 34  0.0000000  0  8 28 18 14 31 22 29 19 27
  23224950.672    -7370344.041 5   -641518.342 6
  20264572.445   -22367936.281 7 -17362500.640 8
  23784941.250    13382349.527 4  10488003.802 3
  22985162.914    -8211753.811 5  -5892648.981 5
  24290430.297     9216829.319 5   7253319.012 5
  20706697.898   -11919652.921 7  -9181631.980 9
  21204729.516   -16984960.678 7 -13160478.088 8
  23811206.211    -3563784.769 4  -2667332.065 4
 95  2 19 19 34 30.0000000  0  8 28 18 14 31 22 29 19 27
  23221308.305    -7389516.270 5   -656457.727 6
  20260784.328   -22387852.841 7 -17378020.034 8
  23806829.109    13497370.032 5  10577630.005 4
  22971613.430    -8282943.682 5  -5948121.518 5
  24311442.758     9327237.211 4   7339350.996 5
  20713489.977   -11883958.359 7  -9153818.074 9
  21199385.727   -17013018.746 7 -13182341.521 8
  23798530.055    -3630408.571 5  -2719246.711 4
 95  2 19 19 35  0.0000000  0  8 28 18 14 31 22 29 19 27
  23217753.211    -7408191.166 5   -671009.562 6
  20257074.633   -22407343.782 7 -17393207.790 8
  23828727.352    13612449.933 5  10667302.488 4
  22958119.172    -8353869.773 5  -6003388.483 5
  24332473.805     9437768.132 5   7425478.857 5
  20720362.820   -11847841.450 7  -9125675.071 9
  21194085.445   -17040890.568 7 -13204059.829 8
  23785868.703    -3696948.247 5  -2771095.784 4
 95  2 19 19 35 30.0000000  0  8 28 18 14 31 22 29 19 27
  23214288.531    -7426383.337 5   -685185.252 6
  20253445.547   -22426419.455 7 -17408071.951 8
  23850634.898    13727574.781 5  10757010.023 5
  22944672.219    -8424535.831 5  -6058452.851 5
  24353520.305     9548376.029 5   7511666.703 5
  20727312.789   -11811312.338 7  -9097210.856 9
  21188808.555   -17068602.673 7 -13225653.679 8
  23773215.531    -3763422.464 5  -2822893.855 3
 95  2 19 19 36  0.0000000  0  8 28 18 14 31 22 29 19 27
  23210919.820    -7444099.887 5   -698990.331 6
  20249895.625   -22445072.968 7 -17422607.164 8
  23872549.555    13842734.842 5  10846744.970 2
  22931273.336    -8494937.298 5  -6113311.050 5
  24374575.406     9659019.549 5   7597882.325 5
  20734342.672   -11774369.545 7  -9068424.297 9
  21183565.438   -17096166.124 7 -13247131.691 8
  23760572.008    -3829862.058 5  -2874664.949 4
 95  2 19 19 36 30.0000000  0  8 28 18 14 31 22 29 19 27
  23207640.336    -7461312.019 6   -712402.363 6
  20246429.484   -22463279.143 7 -17436793.798 8
  23894476.898    13957958.979 5  10936529.864 5
  22917933.977    -8565043.820 6  -6167939.426 5
  24395641.875     9769709.885 5   7684134.421 5
  20741454.305   -11736997.181 7  -9039303.001 9
  21178355.344   -17123550.105 7 -13268469.857 8
  23747944.586    -3896235.355 5  -2926384.365 4
 95  2 19 19 37  0.0000000  0  8 28 18 14 31 22 29 19 27
  23204458.328    -7478051.201 5   -725445.866 6
  20243043.938   -22481075.080 7 -17450660.760 8
  23916405.211    14073199.110 5  11026327.194 4
  22904642.898    -8634881.207 5  -6222358.093 5
  24416706.758     9880418.405 4   7770400.675 4
  20748643.797   -11699222.020 7  -9009867.846 8
  21173173.695   -17150767.371 7 -13289678.121 8
  23735320.656    -3962570.213 5  -2978073.877 3
 95  2 19 19 37 30.0000000  0  8 28 18 14 31 22 29 19 27
  23201368.953    -7494303.267 6   -738109.808 6
  20239739.898   -22498447.414 7 -17464197.645 8
  23938336.469    14188451.431 5  11116134.047 5
  22891406.805    -8704432.218 5  -6276553.578 5
  24437785.617     9991183.339 3   7856710.897 5
  20755914.141   -11661016.218 7  -8980097.126 8
  21168029.680   -17177797.289 7 -13310740.403 8
  23722706.203    -4028867.067 5  -3029733.716 4
 95  2 19 19 38  0.0000000  0  8 28 18 14 31 22 29 19 27
  23198367.516    -7510056.502 6   -750384.998 6
  20236513.781   -22515384.146 7 -17477395.106 8
  23960271.680    14303725.577 5  11205957.895 3
  22878227.617    -8773689.510 5  -6330520.213 5
  24458877.625    10102033.301 3   7943087.364 5
  20763266.617   -11622378.854 7  -8949990.113 9
  21162932.359   -17204610.580 7 -13331633.878 8
  23710099.492    -4095098.855 5  -3081342.895 5
 95  2 19 19 38 30.0000000  0  8 28 18 14 31 22 29 19 27
  23195462.711    -7525307.148 6   -762268.612 6
  20233379.336   -22531879.033 7 -17490248.266 8
  23982212.656    14419015.335 5  11295793.928 2
  22865103.992    -8842658.405 5  -6384262.093 5
  24479991.266    10212989.399 4   8029546.529 5
  20770700.523   -11583312.273 7  -8919548.659 9
  21157868.555   -17231187.778 7 -13352343.380 8
  23697514.367    -4161241.739 5  -3132882.788 5
 95  2 19 19 39  0.0000000  0  8 28 18 14 31 22 29 19 27
  23192645.672    -7540112.711 5   -773805.393 6
  20230314.148   -22547971.519 7 -17502787.863 8
  24004140.719    14534250.713 4  11385587.561 4
  22852024.367    -8911401.615 6  -6437828.126 6
  24501114.297    10323989.350 5   8116039.868 4
  20778206.594   -11543873.734 7  -8888817.350 9
  21152844.727   -17257595.893 7 -13372921.135 8
  23684935.016    -4227353.698 5  -3184398.580 5
 95  2 19 19 39 30.0000000  0  8 28 18 14 31 22 29 19 27
  23189928.141    -7554417.136 6   -784951.665 6
  20227336.586   -22563609.203 7 -17514973.080 8
  24026072.109    14649500.323 4  11475392.299 3
  22838993.375    -8979870.103 6  -6491180.098 6
  24522252.680    10435068.191 5   8202594.685 4
  20785793.656   -11504001.322 7  -8857747.971 9
  21147859.977   -17283806.381 7 -13393344.889 7
  23672370.797    -4293367.926 5  -3235838.213 5
 95  2 19 19 40  0.0000000  0  8 28 18 14 31 22 29 19 27
  23187302.930    -7568216.192 5   -795704.144 6
  20224447.148   -22578793.174 7 -17526804.753 8
  24048010.805    14764776.125 4  11565217.435 3
  22826019.555    -9048053.076 6  -6544309.605 6
  24543402.648    10546210.950 5   8289199.320 4
  20793464.250   -11463690.205 7  -8826336.734 9
  21142906.484   -17309835.216 7 -13413627.106 7
  23659827.477    -4359284.655 5  -3287201.863 5
 95  2 19 19 40 30.0000000  0  8 28 18 14 31 22 29 19 27
  23184772.945    -7581513.889 6   -806065.956 6
  20221642.734   -22593541.370 7 -17538296.865 8
  24069947.773    14880056.340 5  11655045.992 2
  22813099.141    -9115944.231 6  -6597211.713 5
  24564562.203    10657393.608 5   8375835.030 3
  20801219.656   -11422936.774 7  -8794580.845 9
  21137978.281   -17335711.212 7 -13433790.222 8
  23647298.234    -4425127.837 5  -3338508.220 5
 95  2 19 19 41  0.0000000  0  8 28 18 14 31 22 29 19 27
  23182338.617    -7594287.625 5   -816019.483 6
  20218919.078   -22607846.030 7 -17549443.365 8
  24091890.422    14995369.655 5  11744900.359 2
  22800241.273    -9183508.443 6  -6649859.073 5
  24585728.406    10768615.790 4   8462501.547 2
  20809062.227   -11381721.413 7  -8762465.005 9
  21133088.195   -17361426.377 7 -13453828.000 8
  23634781.461    -4490896.112 5  -3389756.209 5
 95  2 19 19 41 30.0000000  0  8 28 18 14 31 22 29 19 27
  23180013.148    -7606525.125 5   -825555.158 6
  20216283.523   -22621711.621 7 -17560247.724 8
  24113844.656    15110737.340 4  11834797.111 4
  22787450.195    -9250725.170 6  -6702235.642 5
  24606904.055    10879886.547 3   8549205.894 1
  20816992.734   -11340045.263 7  -8729990.110 9
  21128229.117   -17386959.361 7 -13473723.828 8
  23622279.578    -4556593.099 5  -3440948.659 5
 95  2 19 19 42  0.0000000  0  8 28 18 14 31 22 29 19 27
  23177775.031    -7618272.791 5   -834709.142 6
  20213717.234   -22635182.435 7 -17570744.467 8
  24135795.055    15226100.179 3  11924690.053 3
  22774716.500    -9317639.088 6  -6754376.282 5
  24628078.156    10991166.973 4   8635917.788 1
  20824999.414   -11297973.074 7  -8697206.608 9
  21123400.203   -17412346.813 7 -13493506.255 8
  23609785.211    -4622271.684 5  -3492126.744 5
 95  2 19 19 42 30.0000000  0  8 28 18 14 31 22 29 19 27
  23175628.930    -7629531.141 5   -843481.842 6
  20211229.047   -22648256.294 7 -17580931.901 8
  24157748.703    15341453.425 3  12014575.534 3
  22762041.219    -9384254.743 6  -6806284.507 5
  24649255.266    11102468.439 5   8722646.141 1
  20833077.734   -11255521.289 7  -8664127.329 9
  21118600.352   -17437568.506 7 -13513159.524 8
  23597294.523    -4687913.605 5  -3543276.263 5
 95  2 19 19 43  0.0000000  0  8 28 18 14 31 22 29 19 27
  23173588.516    -7640257.326 5   -851839.870 6
  20208825.133   -22660888.804 7 -17590775.421 8
  24179704.266    15456857.845 3  12104500.925 1
  22749430.297    -9450535.133 6  -6857931.497 5
  24670448.594    11213852.914 5   8809439.116 1
  20841236.125   -11212649.941 7  -8630721.096 9
  21113842.109   -17462575.583 7 -13532645.553 8
  23584814.586    -4753467.126 5  -3594356.907 5
 95  2 19 19 43 30.0000000  0  8 28 18 14 31 22 29 19 27
  23171648.500    -7650468.616 5   -859796.680 6
  20206504.398   -22673085.637 7 -17600279.436 8
  24201671.906    15572279.999 4  12194440.110 2
  22736874.352    -9516510.539 6  -6909340.861 5
  24691660.102    11325315.856 5   8896293.254 2
  20849471.602   -11169369.253 7  -8596995.917 9
  21109118.516   -17487387.127 7 -13551979.223 8
  23572362.594    -4818929.637 5  -3645366.649 5
 95  2 19 19 44  0.0000000  0  8 28 18 14 31 22 29 19 27
  23169797.375    -7660183.066 5   -867366.351 6
  20204267.906   -22684853.632 7 -17609449.308 8
  24223635.383    15687688.525 3  12284368.651 2
  22724372.688    -9582205.255 6  -6960531.472 5
  24712889.922    11436850.578 5   8983203.305 4
  20857784.641   -11125681.689 7  -8562953.689 9
  21104428.352   -17512025.520 7 -13571177.983 8
  23559919.836    -4884307.873 5  -3696310.733 5
 95  2 19 19 44 30.0000000  0  8 28 18 14 31 22 29 19 27
  23168041.938    -7669396.804 5   -874545.851 6
  20202108.812   -22696181.998 7 -17618276.606 8
  24245594.625    15803088.348 4  12374290.452 1
  22711933.336    -9647604.627 6
  24734122.984    11548447.678 5   9070161.958 4
  20866177.711   -11081581.607 7  -8528590.022 9
  21099775.617   -17536494.475 7 -13590244.697 8
  23547488.234    -4949603.649 5
 95  2 19 19 45  0.0000000  0  8 28 18 14 31 22 29 19 27
  23166394.039    -7678078.924 5   -881311.102 5
  20200044.188   -22707029.255 7 -17626729.009 8
  24267560.484    15918505.075 4  12464225.405 3
  22699543.172    -9712680.954 6  -7062200.712 5
  24755375.305    11660113.739 5   9157174.346 4
  20874655.680   -11037029.030 7  -8493873.753 9
  21095151.578   -17560786.991 7 -13609173.932 8
  23535085.086    -5014807.000 5  -3797998.341 4
 95  2 19 19 45 30.0000000  0  8 28 18 14 31 22 29 19 27
  23164840.266    -7686241.905 5   -887671.844 5
  20198074.469   -22717395.246 7 -17634806.405 8
  24289518.062    16033905.665 4  12554147.776 2
  22687220.508    -9777446.791 6  -7112667.526 5
  24776628.953    11771819.596 3   9244217.741 4
  20883216.422   -10992043.822 7  -8458820.375 9
  21090558.773   -17584916.105 7 -13627975.852 8
  23522691.648    -5079935.478 5  -3848747.798 5
 95  2 19 19 46  0.0000000  0  8 28 18 14 31 22 29 19 27
  23163383.891    -7693889.846 5   -893631.234 6
  20196191.055   -22727283.248 7 -17642511.356 8
  24311478.469    16149300.897 3  12644065.954 2
  22674959.469    -9841874.880 6  -7162871.168 5
  24797892.656    11883559.922 3   9331287.959 3
  20891856.383   -10946643.633 7  -8423443.630 9
  21085999.656   -17608888.025 7 -13646655.271 8
  23510309.328    -5145005.996 5  -3899452.050 5
 95  2 19 19 46 30.0000000  0  8 28 18 14 31 22 29 19 27
  23162026.695    -7701017.483 5   -899185.215 6
  20194402.711   -22736687.689 7 -17649839.499 8
  24333432.688    16264687.014 3  12733977.023 3
  22662766.977    -9905941.097 6  -7212792.831 5
  24819163.156    11995325.077 3   9418377.517 2
  20900572.500   -10900833.645 7  -8387747.563 9
  21081467.156   -17632697.155 7 -13665207.844 8
  23497937.227    -5210024.281 5  -3950115.626 5
 95  2 19 19 47  0.0000000  0  8 28 18 14 31 22 29 19 27
  23160769.516    -7707629.045 5   -904337.076 6
  20192703.594   -22745615.019 7 -17656795.866 8
  24355386.445    16380039.775 3  12823862.108 4
  22650646.656    -9969651.334 6  -7262437.115 5
  24840438.273    12107130.274 3   9505498.282 1
  20909367.578   -10854612.963 7  -8351731.483 9
  21076970.023   -17656342.494 7 -13683632.781 8
  23485573.250    -5274997.354 5  -4000743.966 5
 95  2 19 19 47 30.0000000  0  8 28 18 14 31 22 29 19 27
  23159603.086    -7713753.296 5   -909109.209 6
  20191089.289   -22754106.762 7 -17663412.817 8
  24377321.734    16495324.447 3  12913694.096 4
  22638588.141   -10033016.032 6  -7311812.122 6
  24861717.031    12218957.590 4   9592636.336 1
  20918237.430   -10808005.912 7  -8315414.332 9
  21072493.977   -17679840.765 7 -13701943.133 8
  23473215.367    -5339937.881 5  -4051346.945 5
 95  2 19 19 48  0.0000000  0  7 28 18 14 31 29 19 27
  23158541.406    -7719354.620 6   -913473.856 6
  20189560.938   -22762137.057 7 -17669670.196 8
  24399254.039    16610576.236 3  13003500.507 2
  22626603.141   -10095992.330 6  -7360884.500 6
  20927188.219   -10760967.520 7  -8278761.065 9
  21068055.773   -17703160.402 7 -13720114.281 8
  23460870.797    -5404809.560 5  -4101896.280 5
 95  2 19 19 48 30.0000000  0  7 28 18 14 31 29 19 27
  23157571.430    -7724445.633 6   -917440.854 6
  20188119.141   -22769723.150 7 -17675581.439 8
  24421176.609    16725767.063 3  13093259.401 3
  22614685.414   -10158615.375 6  -7409681.606 6
  20936222.062   -10713493.094 7  -8241768.037 9
  21063649.539   -17726315.242 7 -13738157.014 8
  23448536.406    -5469629.722 5  -4152405.466 5
 95  2 19 19 49  0.0000000  0  7 28 18 14 31 29 19 27
  23156701.641    -7729024.355 6   -921008.679 6
  20186754.211   -22776877.407 7 -17681156.189 8
  24443087.773    16840920.225 3  13182988.928 3
  22602831.961   -10220899.693 6  -7458214.762 6
  20945341.266   -10665580.145 7  -8204433.305 9
  21059277.945   -17749312.848 7 -13756077.234 8
  23436211.797    -5534386.202 5  -4202865.044 5
 95  2 19 19 49 30.0000000  0  7 28 18 14 31 29 19 27
  23155934.414    -7733067.773 6   -924159.371 6
  20185478.508   -22783585.301 7 -17686383.128 8
  24465001.125    16956068.747 3  13272714.852 2
  22591048.820   -10282829.494 6  -7506471.692 5
  20954544.828   -10617206.222 7  -8166739.372 9
  21054930.516   -17772132.692 7 -13773858.932 8
  23423905.734    -5599059.131 5  -4253259.519 5
 95  2 19 19 50  0.0000000  0  7 28 18 14 31 29 19 27
  23155254.648    -7736613.897 6   -926922.587 6
  20184277.828   -22789883.157 7 -17691290.565 8
  24486903.344    17071174.144 3  13362407.227 3
  22579319.922   -10344456.337 6  -7554492.556 6
  20963830.930   -10568415.278 7  -8128720.496 9
  21050621.070   -17794802.900 7 -13791524.032 8
  23411607.836    -5663696.968 5  -4303626.640 5
 95  2 19 19 50 30.0000000  0  7 28 18 14 31 29 19 27
  23154678.234    -7739637.894 6   -929278.941 6
  20183163.812   -22795746.289 7 -17695859.253 7
  24508807.852    17186261.128 3  13452085.179 3
  22567655.578   -10405760.068 6  -7602261.632 5
  20973196.125   -10519194.454 7  -8090366.639 9
  21046339.297   -17817290.165 7 -13809046.578 8
  23399318.945    -5728277.509 5  -4353949.125 5
 95  2 19 19 51  0.0000000  0  7 28 18 14 31 29 19 27
  23154197.312    -7742153.461 5   -931239.139 6
  20182129.844   -22801189.018 7 -17700100.349 8
  24530695.203    17301300.061 3  13541725.693 2
  22556049.812   -10466746.768 6  -7649783.678 5
  20982639.039   -10469568.391 7  -8051697.006 9
  21042093.766   -17839596.083 7 -13826427.805 8
  23387038.797    -5792803.394 5  -4404229.006 5
 95  2 19 19 51 30.0000000  0  7 28 18 14 31 29 19 27
  23153821.523    -7744138.507 5   -932785.898 6
  20181180.508   -22806168.277 7 -17703980.308 8
  24552577.625    17416281.457 3  13631321.347 1
  22544510.867   -10527383.216 6  -7697032.819 6
  20992164.961   -10419514.950 7  -8012694.369 9
  21037892.156   -17861688.653 7 -13843642.803 8
  23374772.953    -5857250.899 5  -4454447.828 5
 95  2 19 19 52  0.0000000  0  7 28 18 14 31 29 19 27
  23153541.188    -7745603.222 6   -933927.249 6
  20180321.039   -22810678.413 7 -17707494.703 8
  24574442.523    17531198.072 3  13720866.560 2
  22533041.820   -10587659.563 6  -7744001.331 6
  21001766.461   -10369055.068 7  -7973375.002 9
  21033724.891   -17883586.318 7 -13860705.916 8
  23362525.492    -5921622.878 5  -4504607.785 5
 95  2 19 19 52 30.0000000  0  7 28 18 14 31 29 19 27
  23153361.641    -7746541.198 6   -934658.151 6
  20179560.008   -22814701.493 7 -17710629.578 7
  24596296.789    17646046.533 3  13810358.637 1
  22521644.914   -10647548.494 6  -7790667.973 6
  21011445.133   -10318192.055 7  -7933741.525 9
  21029588.891   -17905310.707 7 -13877634.013 8
  23350290.289    -5985909.824 5  -4554701.498 5
 95  2 19 19 53  0.0000000  0  7 28 18 14 31 29 19 27
  23153284.945    -7746942.800 6
  20178888.086   -22818216.791 7 -17713368.785 8
  24618144.266    17760832.412 3  13899801.967 1
  22510325.867   -10707025.231 6  -7837013.418 6
  21021201.773   -10266917.597 7  -7893787.437 9
  21025487.570   -17926861.062 7 -13894426.489 8
  23338074.594    -6050104.840 5  -4604723.592 5
 95  2 19 19 53 30.0000000  0  7 28 18 14 31 29 19 27
  23153310.508    -7746809.788 5
  20178318.945   -22821218.713 7 -17715707.953 7
  24639979.672    17875575.329 3  13989211.769 2
  22499084.727   -10766093.900 6  -7883040.897 6
  21031037.078   -10215239.415 7  -7853518.764 9
  21021416.555   -17948257.794 7 -13911099.269 8
  23325872.805    -6114227.626 5  -4654689.400 5
 95  2 19 19 54  0.0000000  0  7 28 18 14 31 29 19 27
  23153435.719    -7746151.560 5   -934354.559 6
  20177841.312   -22823734.606 7 -17717668.399 8
  24661804.852    17990269.964 3  14078583.974 2
  22487918.203   -10824774.943 6  -7928766.336 5
  21040946.078   -10163174.709 7  -7812948.899 9
  21017369.086   -17969519.548 7 -13927666.867 8
  23313680.203    -6178303.250 5  -4704618.454 5
 95  2 19 19 54 30.0000000  0  7 28 18 14 31 29 19 27
  23153667.969    -7744945.315 5   -933414.629 6
  20177452.633   -22825751.450 7 -17719239.982 7
  24683618.148    18104922.148 3  14167923.165 1
  22476825.719   -10883062.358 6  -7974185.044 5
  21050931.633   -10110694.537 7  -7772055.291 9
  21013360.766   -17990611.319 7 -13944102.014 8
  23301498.828    -6242321.509 5  -4754502.791 5
 95  2 19 19 55  0.0000000  0  7 28 18 14 31 29 19 27
  23154003.203    -7743206.441 5   -932059.678 6
  20177159.367   -22827296.507 7 -17720443.934 7
  24705429.242    18219516.081 3  14257216.898 2
  22465801.391   -10940994.056 6  -8019326.564 5
  21060995.344   -10057804.972 7  -7730842.686 9
  21009373.828   -18011532.507 7 -13960404.236 8
  23289325.508    -6306299.897 5  -4804356.072 5
 95  2 19 19 55 30.0000000  0  8 28 18 14 31  2 29 19 27
  23154435.805    -7740927.564 5   -930283.915 6
  20176951.633   -22828383.824 7 -17721291.207 8
  24727224.289    18334052.947 3  14346466.174 2
  22454846.375   -10998577.346 6  -8064196.595 6
  24828584.695          -0.93213
  21071139.906   -10004493.514 7  -7689301.319 9
  21005429.484   -18032278.472 7 -13976569.920 8
  23277159.406    -6370223.621 5  -4854166.769 5
 95  2 19 19 56  0.0000000  0  8 28 18 14 31  2 29 19 27
  23154972.953    -7738098.400 6   -928079.382 6
  20176830.734   -22829013.827 7 -17721782.132 7
  24749003.812    18448523.494 3  14435663.795 2
  22443960.344   -11055784.154 6  -8108773.275 6
  24811716.641      -88631.100 3        -0.41611
  21081370.492    -9950738.002 7  -7647413.946 8
  21001520.383   -18052823.380 7 -13992578.938 8
  23265007.688    -6434067.351 5  -4903915.139 5
 95  2 19 19 56 30.0000000  0  7 28 18 31  2 29 19 27
  23155610.203    -7734720.283 5   -925447.084 6
  20176801.211   -22829177.273 7
  22433146.570   -11112600.541 6  -8153045.713 6
  24794890.617     -177078.890 3    -68920.739 1
  21091686.922    -9896524.379 7  -7605169.607 8
  20997649.258   -18073158.218 7 -14008424.263 8
  23252878.500    -6497818.111 5  -4953591.033 5
 95  2 19 19 57  0.0000000  0  7 28 18 31  2 29 19 27
  23156359.711    -7730823.654 5   -922410.734 6
  20176857.094   -22828898.447 7
  22422407.117   -11169041.138 6  -8197025.348 6
  24778086.297     -265374.055 3   -137722.067 1
  21102082.719    -9841888.799 7  -7562596.464 8
  20993810.906   -18093322.052 7 -14024136.329 8
  23240759.391    -6561493.520 5  -5003208.227 5
 95  2 19 19 57 30.0000000  0  6 28 18 31 29 19 27
  23157203.852    -7726377.074 5   -918945.871 6
  20177000.734   -22828138.584 7 -17721100.167 7
  22411747.344   -11225058.487 6  -8240675.162 6
  21112565.086    -9786808.022 7  -7519676.407 8
  20990014.281   -18113295.846 7 -14039700.324 8
  23228661.820    -6625074.029 5  -5052751.466 5
 95  2 19 19 58  0.0000000  0  7 28 18 31  2 29 19 27
  23158150.281    -7721404.366 5   -915071.011 6
  20177234.906   -22826906.120 7 -17720139.817 7
  22401164.453   -11280668.422 6  -8284007.528 6
  24744571.742      -88013.667 3
  21123125.836    -9731309.796 7  -7476431.065 8
  20986241.023   -18133103.096 7 -14055134.548 8
  23216576.711    -6688585.405 5  -5102240.852 5
 95  2 19 19 58 30.0000000  0  7 28 18 31  2 29 19 27
  23159196.703    -7715896.101 5   -910778.844 6
  20177561.383   -22825186.354 7 -17718799.748 7
  22390657.961   -11335871.517 6  -8327022.872 6
  24727848.336     -175902.925 3        -0.48913
  21133766.023    -9675397.046 7  -7432862.725 8
  20982501.047   -18152753.788 7 -14070446.781 8
  23204505.672    -6752027.462 5  -5151676.196 5
 95  2 19 19 59  0.0000000  0  7 28 18 31  2 29 19 27
  23160344.555    -7709867.481 5   -906081.205 6
  20177979.328   -22823006.525 7 -17717101.189 7
  22380228.586   -11390687.205 6  -8369736.329 6
  24711141.977     -263691.740 4    -68407.234 4
  21144476.844    -9619108.521 7  -7389001.579 8
  20978785.641   -18172281.081 7 -14085662.856 8
  23192437.961    -6815432.953 5  -5201083.062 5
 95  2 19 19 59 30.0000000  0  7 28 18 31  2 29 19 27
  23161595.305    -7703292.183 5   -900957.585 6
  20178477.945   -22820355.120 7 -17715035.175 7
  22369873.625   -11445099.438 6  -8412135.436 6
  24694455.297     -351349.398 3   -136711.792 3
  21155267.648    -9562411.897 7  -7344822.419 8
  20975101.383   -18191655.925 7 -14100760.139 8
  23180382.695    -6878784.713 5  -5250448.055 5
 95  2 19 20  0  0.0000000  0  7 28 18 31  2 29 19 27
  23162950.531    -7696174.547 5   -895411.354 6
  20179076.305   -22817232.771 7 -17712602.189 7
  22359596.773   -11499107.515 6  -8454219.596 6
  24677801.227     -438855.517 3   -204898.231 3
  21166133.062    -9505306.089 7  -7300324.417 8
  20971443.305   -18210869.479 7 -14115731.732 8
  23168338.273    -6942076.520 5  -5299766.325 5
 95  2 19 20  0 30.0000000  0  7 28 18 31  2 29 19 27
  23164403.922    -7688518.080 5   -889445.283 6
  20179757.875   -22813633.064 7 -17709797.242 7
  22349398.766   -11552703.810 6  -8495982.910 6
  24661188.180     -526204.126 3   -272961.950 4
  21177075.953    -9447798.656 7  -7255513.470 8
  20967820.867   -18229920.052 7 -14130576.343 8
  23156302.625    -7005321.358 5  -5349047.995 6
 95  2 19 20  1  0.0000000  0  7 28 18 31  2 29 19 27
  23165966.977    -7680330.137 5   -883065.064 6
  20180534.383   -22809549.194 7 -17706615.024 7
  22339278.594   -11605886.604 6  -8537424.009 6
  24644591.383     -613400.838 3   -340907.302 3
  21188097.250    -9389890.111 7  -7210389.965 8
  20964226.539   -18248802.867 7 -14145290.226 8
  23144276.922    -7068520.000 5  -5398293.660 5
 95  2 19 20  1 30.0000000  0  7 28 18 31  2 29 19 27
  23167622.828    -7671613.002 5   -876272.486 6
  20181407.477   -22804966.555 7 -17703044.152 7
  22329237.859   -11658649.561 6  -8578537.955 6
  24628025.648     -700441.495 3   -408731.066 4
  21199196.383    -9331557.973 7  -7164936.378 8
  20960668.523   -18267506.896 7 -14159864.793 9
  23132263.758    -7131656.842 5  -5447491.180 6
 95  2 19 20  2  0.0000000  0  7 28 18 31  2 29 19 27
  23169383.336    -7662351.131 5   -869055.427 6
  20182385.938   -22799850.448 7 -17699057.592 7
  22319282.781   -11710966.343 6  -8619304.229 6
  24611496.766     -787311.245 3   -476421.641 4
  21210379.633    -9272788.965 7  -7119142.389 8
  20957142.016   -18286021.062 7 -14174291.419 8
  23120264.211    -7194713.114 5  -5496625.904 6
 95  2 19 20  2 30.0000000  0  7 28 18 31  2 29 19 27
  23171252.273    -7652552.860 5   -861420.420 6
  20183453.055   -22794221.039 7 -17694671.062 7
  22309407.094   -11762850.287 6  -8659733.224 6
  24594996.133     -874028.789 3   -543993.608 3
  21221643.430    -9213596.851 7  -7073018.689 8
  20953655.430   -18304358.753 7 -14188580.532 9
  23108278.141    -7257690.885 5  -5545699.458 6
 95  2 19 20  3  0.0000000  0  7 28 18 31  2 29 19 27
  23173218.344    -7642217.246 5   -853366.700 6
  20184618.031   -22788106.673 7 -17689906.638 7
  22299615.648   -11814303.558 6  -8699826.623 6
  24578522.867     -960597.343 4   -611449.501 2
  21232989.328    -9153973.080 7  -7026558.646 8
  20950198.141   -18322526.867 7 -14202737.504 9
  23096309.859    -7320585.099 5  -5594707.908 5
 95  2 19 20  3 30.0000000  0  7 28 18 31  2 29 19 27
  23175286.328    -7631346.205 5   -844895.755 6
  20185870.820   -22781521.807 7 -17684775.585 7
  22289905.531   -11865331.376 6  -8739588.514 6
  24562073.422    -1047018.316 3   -678790.422 3
  21244415.078    -9093930.747 7  -6979772.449 8
  20946769.609   -18340534.003 7 -14216769.034 8
  23084355.016    -7383415.541 6  -5643666.679 6
 95  2 19 20  4  0.0000000  0  7 28 18 31  2 29 19 27
  23177453.578    -7619935.617 5   -836004.392 6
  20187211.438   -22774473.297 7 -17679283.266 8
  22280278.445   -11915923.615 6  -8779011.003 6
  24545661.344    -1133300.148 3   -746022.952 2
  21255917.359    -9033488.062 7  -6932674.297 8
  20943373.781   -18358390.446 7 -14230683.134 9
  23072409.336    -7446187.375 5  -5692579.768 6
 95  2 19 20  4 30.0000000  0  7 28 18 31  2 29 19 27
  23179723.812    -7607996.608 5   -826701.267 6
  20188638.391   -22766984.646 7 -17673447.975 7
  22270732.766   -11966083.400 6  -8818096.516 6
  24529263.695    -1219459.925 3   -813160.337 2
  21267494.641    -8972655.016 7  -6885271.960 8
  20940000.891   -18376104.852 7 -14244486.566 9
  23060474.211    -7508916.354 5  -5741459.452 5
 95  2 19 20  5  0.0000000  0  7 28 18 31  2 29 19 27
  23182106.391    -7595504.943 5   -816967.504 6
  20190153.500   -22759017.479 7 -17667239.790 7
  22261277.039   -12015777.958 6  -8856819.506 6
  24512889.555    -1305480.813 3   -880189.512 2
  21279150.930    -8911402.053 7  -6837542.411 8
  20936661.539   -18393659.523 7 -14258165.515 8
  23048545.734    -7571593.704 5  -5790298.918 6
 95  2 19 20  5 30.0000000  0  7 28 18 31  2 29 19 27
  23184582.422    -7582489.873 5   -806825.881 6
  20191761.781   -22750571.174 7 -17660658.272 7
  22251904.680   -12065038.262 6  -8895204.123 6
  24496541.203    -1391398.542 3   -947138.300 4
  21290879.547    -8849763.136 7  -6789512.128 8
  20933345.109   -18411078.897 7 -14271739.050 8
  23036625.789    -7634238.666 5  -5839113.142 6
 95  2 19 20  6  0.0000000  0  7 28 18 31  2 29 19 27
  23187161.219    -7568926.018 5   -796256.655 6
  20193465.078   -22741618.835 7 -17653682.446 7
  22242618.211   -12113834.167 6  -8933226.869 6
  24480220.180    -1477180.486 3  -1013981.262 2
  21302687.867    -8787709.155 7  -6741158.412 8
  20930062.969   -18428332.450 7 -14285183.383 8
  23024716.297    -7696811.645 5  -5887871.258 6
 95  2 19 20  6 30.0000000  0  7 28 18 31  2 29 19 27
  23189850.242    -7554812.702 5   -785259.238 6
  20195264.961   -22732153.313 7 -17646306.727 7
  22233418.656   -12162180.705 6  -8970899.459 6
  24463924.102    -1562793.120 3  -1080692.317 3
  21314575.562    -8725236.818 7  -6692478.716 8
  20926816.844   -18445401.500 7 -14298483.949 9
  23012820.664    -7759317.401 5  -5936577.014 6
 95  2 19 20  7  0.0000000  0  7 28 18 31  2 29 19 27
  23192638.352    -7540154.011 5   -773836.881 6
  20197166.781   -22722171.516 7 -17638528.713 7
  22224300.250   -12210095.303 6  -9008235.462 6
  24447669.094    -1648223.813 3  -1147261.583 3
  21326540.109    -8662364.208 7  -6643487.104 8
  20923598.758   -18462289.449 7 -14311643.382 8
  23000939.383    -7821758.939 5  -5985232.729 6
 95  2 19 20  7 30.0000000  0  7 28 18 31  2 29 19 27
  23195528.242    -7524950.852 5   -761990.260 6
  20199161.406   -22711675.768 7 -17630350.222 7
  22215263.180   -12257580.906 6  -9045237.170 6
  24431449.773    -1733451.707 3  -1213672.847 2
  21338577.820    -8599109.017 7  -6594197.384 8
  20920422.852   -18478992.800 7 -14324658.983 9
  22989071.273    -7884127.845 5  -6033831.837 6
 95  2 19 20  8  0.0000000  0  7 28 18 31  2 29 19 27
  23198527.039    -7509199.335 5   -749716.350 6
  20201253.336   -22700681.372 7 -17621783.172 8
  22206310.898   -12304632.695 6  -9081900.850 6
  24415279.070    -1818447.081 3  -1279902.922 2
  21350688.297    -8535470.271 7  -6544608.802 8
  20917280.820   -18495507.673 7 -14337527.724 9
  22977213.938    -7946438.793 5  -6082385.802 6
 95  2 19 20  8 30.0000000  0  7 28 18 31  2 29 19 27
  23201628.297    -7492902.458 5   -737017.481 6
  20203438.766   -22689191.437 7 -17612829.984 8
  22197439.859   -12351245.091 6  -9118222.140 6
  24399143.930    -1903223.267 3  -1345962.213 2
  21362870.781    -8471445.600 7  -6494719.488 8
  20914175.000   -18511832.909 7 -14350248.688 9
  22965371.375    -8008685.807 6  -6130889.942 6
 95  2 19 20  9  0.0000000  0  7 28 18 31  2 29 19 27
  23204835.383    -7476066.930 5   -723898.890 6
  20205718.922   -22677219.205 7 -17603500.981 8
  22188656.289   -12397405.152 6  -9154190.976 6
  24383042.758    -1987815.331 3  -1411878.032 2
  21375128.992    -8407031.540 7  -6444526.752 8
  20911097.609   -18527992.321 7 -14362840.448 8
  22953538.367    -8070863.463 6  -6179340.027 6
 95  2 19 20  9 30.0000000  0  7 28 18 31  2 29 19 27
  23208143.141    -7458685.860 5   -710355.213 6
  20208088.398   -22664773.261 7 -17593802.842 7
  22179963.758   -12443092.456 6  -9189791.411 6
  24366982.664    -2072230.312 3  -1477655.845 3
  21387464.953    -8342209.630 6  -6394016.220 8
  20908057.234   -18543970.461 7 -14375290.949 8
  22941718.281    -8132970.632 6  -6227735.198 6
 95  2 19 20 10  0.0000000  0  7 28 18 31  2 29 19 27
  23211553.781    -7440755.452 5   -696383.494 6
  20210546.273   -22651858.429 7 -17583739.360 7
  22171360.000   -12488296.558 6  -9225015.334 6
  24350950.945    -2156488.419 3  -1543311.426 3
  21399879.984    -8276960.111 6  -6343172.490 8
  20905050.313   -18559763.561 7 -14387597.264 8
  22929915.867    -8194999.223 6  -6276069.125 6
 95  2 19 20 10 30.0000000  0  7 28 18 31  2 29 19 27
  23215066.906    -7422290.788 5   -681995.453 6
  20213091.688   -22638475.226 7 -17573310.901 7
  22162849.258   -12533018.445 6  -9259863.489 6
  24334939.711    -2240632.996 4  -1608878.541 3
  21412376.414    -8211292.089 7  -6292002.628 7
  20902078.578   -18575389.033 7 -14399772.960 8
  22918126.234    -8256948.191 6  -6324340.997 6
 95  2 19 20 11  0.0000000  0  7 28 18 31  2 29 19 27
  23218687.594    -7403272.372 5   -667175.949 6
  20215732.422   -22624598.215 7 -17562497.648 7
  22154433.711   -12577248.745 6  -9294328.590 6
  24318952.141    -2324646.368 4  -1674343.447 5
  21424955.141    -8145195.437 7  -6240498.784 8
  20899141.469   -18590830.992 7 -14411805.658 9
  22906354.922    -8318804.554 6  -6372540.727 6
 95  2 19 20 11 30.0000000  0  7 28 18 31  2 29 19 27
  23222404.633    -7383722.713 5   -651942.488 6
  20218468.031   -22610231.612 7 -17551302.908 7
  22146102.773   -12621014.862 6  -9328431.995 6
  24302984.336    -2408542.860 5  -1739717.265 4
  21437607.883    -8078702.049 7  -6188685.798 8
  20896230.609   -18606111.261 7 -14423712.359 9
  22894597.898    -8380596.909 6  -6420690.607 5
 95  2 19 20 12  0.0000000  0  7 28 18 31  2 29 19 27
  23226230.773    -7363633.478 5   -636288.583 6
  20221298.945   -22595343.882 7 -17539702.097 7
  22137862.930   -12664312.554 6  -9362170.383 6
  24287046.070    -2492302.842 5  -1804984.703 4
  21450338.055    -8011806.442 6  -6136559.394 8
  20893355.609   -18621234.436 7 -14435496.655 9
  22882854.625    -8442303.960 6  -6468773.994 6
 95  2 19 20 12 30.0000000  0  7 28 18 31  2 29 19 27
  23230159.789    -7342998.984 5   -620209.801 6
  20224235.039   -22579922.867 7 -17527685.742 7
  22129712.953   -12707138.990 6  -9395541.566 6
  24271140.414    -2575901.600 5  -1870126.536 5
  21463142.766    -7944513.243 6  -6084123.173 8
  20890506.555   -18636200.327 7 -14447158.389 9
  22871125.656    -8503930.386 6  -6516794.560 6
 95  2 19 20 13  0.0000000  0  7 28 18 31  2 29 19 27
  23234185.953    -7321825.555 5   -603711.055 6
  20227269.555   -22563977.254 7 -17515260.607 7
  22121651.469   -12749503.421 6  -9428552.748 6
  24255263.102    -2659321.686 5  -1935129.141 5
  21476022.273    -7876835.066 7  -6031386.979 8
  20887687.086   -18651014.427 7 -14458701.839 8
  22859411.328    -8565499.413 6  -6564770.398 6
 95  2 19 20 13 30.0000000  0  7 28 18 31  2 29 19 27
  23238318.570    -7300111.230 5   -586790.821 6
  20230401.203   -22547509.048 7 -17502428.253 7
  22113683.594   -12791392.526 6  -9461193.541 6
  24239426.039    -2742544.102 5  -1999977.721 5
  21488975.906    -7808756.782 7  -5978339.004 8
  20884899.227   -18665674.222 7 -14470125.049 8
  22847702.461    -8627011.662 6  -6612701.985 6
 95  2 19 20 14  0.0000000  0  7 28 18 31  2 29 19 27
  23242551.727    -7277857.018 5   -569449.913 6
  20233634.398   -22530534.841 7 -17489201.619 7
  22105802.109   -12832800.724 6  -9493459.622 6
  24223628.242    -2825566.089 4  -2064670.121 5
  21502008.891    -7740273.580 6  -5924975.506 7
  20882140.109   -18680164.428 7 -14481416.119 8
  22836009.828    -8688468.747 6  -6660590.597 6
 95  2 19 20 14 30.0000000  0  7 28 18 31  2 29 19 27
  23246890.039    -7255062.525 5   -551687.981 6
  20236955.859   -22513063.586 7 -17475587.674 7
  22098017.672   -12873714.264 6  -9525340.254 6
  24207867.758    -2908391.858 4  -2129209.622 4
  21515116.555    -7671387.632 6  -5871298.195 8
  20879418.211   -18694476.164 7 -14492568.113 8
  22824323.938    -8749878.646 6  -6708442.446 6
 95  2 19 20 15  0.0000000  0  7 28 18 31  2 29 19 27
  23251329.695    -7231731.772 5   -533508.194 6
  20240375.234   -22495104.007 7 -17461593.218 7
  22090326.797   -12914135.054 6  -9556836.925 6
  24192140.844    -2991033.309 3  -2193605.503 5
  21528301.711    -7602102.757 6  -5817310.021 8
  20876729.836   -18708597.241 7 -14503571.533 8
  22812645.352    -8811243.507 6  -6756259.198 6
 95  2 19 20 15 30.0000000  0  7 28 18 31  2 29 19 27
  23255872.047    -7207868.639 5   -514913.549 6
  20243884.242   -22476662.271 7 -17447223.052 7
  22082729.633   -12954064.446 6  -9587950.689 6
  24176449.117    -3073498.046 3  -2257863.696 5
  21541560.656    -7532423.987 6  -5763014.918 8
  20874078.008   -18722537.146 7 -14514433.790 9
  22800980.820    -8872557.780 6  -6804036.526 6
 95  2 19 20 16  0.0000000  0  7 28 18 31  2 29 19 27
  23260519.352    -7183452.696 5   -495888.150 6
  20247488.258   -22457714.496 7 -17432458.575 7
  22075225.625   -12993478.990 6  -9618663.276 6
  24160793.000    -3155773.127 3  -2321974.084 5
  21554893.594    -7462362.397 6  -5708421.510 7
  20871463.336   -18736284.293 7 -14525145.848 9
  22789324.180    -8933806.649 6  -6851762.882 6
 95  2 19 20 16 30.0000000  0  7 28 18 31  2 29 19 27
  23265270.352    -7158488.733 5   -476435.721 6
  20251192.797   -22438260.146 7 -17417299.357 8
  22067823.734   -13032386.038 6  -9648980.414 6
  24145171.844    -3237853.769 3  -2385932.935 4
  21568297.883    -7391932.233 7  -5653540.903 8
  20868874.312   -18749865.585 7 -14535728.661 9
  22777681.742    -8994996.228 6  -6899443.044 6
 95  2 19 20 17  0.0000000  0  7 28 18 31  2 29 19 27
  23270119.203    -7132979.530 5   -456558.428 6
  20254990.992   -22418295.830 7 -17401742.756 7
  22060509.695   -13070804.965 6  -9678917.217 6
  24129591.797    -3319729.722 3  -2449732.302 3
  21581769.984    -7321137.763 7  -5598376.432 7
  20866321.766   -18763296.343 7 -14546194.183 8
  22766045.383    -9056129.466 6  -6947079.278 6
 95  2 19 20 17 30.0000000  0  7 28 18 31  2 29 19 27
  23275079.453    -7106936.805 5   -436265.405 6
  20258884.172   -22397831.947 7 -17385796.891 8
  22053290.719   -13108747.280 6  -9708482.613 6
  24114050.391    -3401403.711 4  -2513374.312 4
  21595307.336    -7249986.885 7  -5542934.227 8
  20863788.906   -18776606.116 7 -14556565.435 8
  22754421.992    -9117208.615 6  -6994673.383 6
 95  2 19 20 18  0.0000000  0  7 28 18 31  2 29 19 27
  23280135.188    -7080359.554 5   -415555.883 6
  20262873.438   -22376871.218 7 -17369463.878 7
  22046160.023   -13146218.475 6  -9737680.904 6
  24098547.523    -3482876.299 3  -2576859.383 2
  21608915.977    -7178477.164 7  -5487212.408 8
  20861280.766   -18789779.295 7 -14566830.244 8
  22742814.211    -9178229.281 6  -7042221.904 6
 95  2 19 20 18 30.0000000  0  7 28 18 31  2 29 19 27
  23285295.289    -7053246.328 5   -394428.709 6
  20266958.805   -22355415.511 7 -17352745.162 8
  22039118.484   -13183223.349 6  -9766515.836 6
  24083080.734    -3564143.577 4  -2640184.477 3
  21622597.828    -7106577.734 6  -5431186.920 8
  20858804.523   -18802797.146 7 -14576974.022 8
  22731214.789    -9239175.738 6  -7089712.607 6
 95  2 19 20 19  0.0000000  0  7 28 18 31  2 29 19 27
  23290558.633    -7025601.742 5   -372887.505 6
  20271133.633   -22333468.188 7 -17335643.364 8
  22032167.789   -13219751.330 6  -9794979.163 6
  24067653.688    -3645220.951 4  -2703361.602 2
  21636354.961    -7034279.680 6  -5374850.819 8
  20856357.594   -18815647.109 7 -14586986.978 8
  22719630.312    -9300044.444 6  -7137142.716 6
 95  2 19 20 19 30.0000000  0  7 28 18 31  2 29 19 27
  23295918.859    -6997416.316 5   -350924.860 6
  20275404.008   -22311021.935 7 -17318152.794 8
  22025314.391   -13255771.658 6  -9823046.927 6
  24052257.305    -3726116.690 5  -2766397.167 4
  21650192.531    -6961566.950 6  -5318191.601 8
  20853950.359   -18828307.995 7 -14596852.621 8
  22708063.375    -9360826.069 6  -7184504.979 6
 95  2 19 20 20  0.0000000  0  7 28 18 31  2 29 19 27
  23301380.945    -6968700.942 5   -328549.268 6
  20279770.430   -22288081.623 7 -17300277.245 8
  22018555.203   -13291287.632 6  -9850721.679 6
  24036896.250    -3806848.247 5  -2829304.818 5
  21664105.406    -6888452.133 6  -5261219.061 7
  20851577.133   -18840783.400 7 -14606573.714 9
  22696512.055    -9421541.754 6  -7231815.860 6
 95  2 19 20 20 30.0000000  0  7 28 18 31  2 29 19 27
  23306950.469    -6939449.942 5   -305756.315 6
  20284234.758   -22264624.985 7 -17281999.362 7
  22011898.039   -13326279.612 6  -9877988.125 6
  24021565.258    -3887411.111 5  -2892081.010 4
  21678097.594    -6814924.444 6  -5203924.806 8
  20849235.000   -18853084.804 7 -14616159.223 8
  22684969.812    -9482191.837 6  -7279075.620 6
 95  2 19 20 21  0.0000000  0  7 28 18 31  2 29 19 27
  23312614.375    -6909689.632 5   -282566.487 6
  20288789.938   -22240679.839 7 -17263340.820 7
  22005335.156   -13360766.682 6  -9904861.152 6
  24006262.789    -3967837.991 5  -2954751.262 4
  21692160.125    -6741020.544 6  -5146337.402 7
  20846919.867   -18865255.112 7 -14625642.584 8
  22673433.289    -9542814.886 6  -7326314.317 6
 95  2 19 20 21 30.0000000  0  7 28 18 31  2 29 19 27
  23318382.484    -6879388.579 5   -258955.315 6
  20293444.492   -22216221.429 7 -17244282.334 8
  21998871.445   -13394726.475 6  -9931323.311 6
  23990989.422    -4048095.767 5  -3017289.726 5
  21706296.484    -6666727.188 6  -5088446.531 7
  20844631.812   -18877266.853 7 -14635002.400 8
  22661908.180    -9603381.755 6  -7373509.242 6
 95  2 19 20 22  0.0000000  0  7 28 18 31  2 29 19 27
  23324251.383    -6848538.314 5   -234916.172 6
  20298196.844   -22191250.669 7 -17224824.612 8
  21992508.984   -13428149.334 6  -9957367.081 6
  23975749.109    -4128162.706 5  -3079679.493 5
  21720508.930    -6592050.379 6  -5030256.859 7
  20842379.086   -18889114.701 7 -14644234.489 8
  22650397.336    -9663876.148 6  -7420647.688 6
 95  2 19 20 22 30.0000000  0  7 28 18 31  2 29 19 27
  23330221.492    -6817147.627 5   -210455.915 6
  20303045.508   -22165773.314 7 -17204972.146 8
  21986252.805   -13461035.836 6  -9982992.918 6
  23960549.695    -4208042.817 5  -3141923.665 5
  21734791.148    -6516995.862 6  -4971772.867 7
  20840153.320   -18900804.674 7 -14653343.565 8
  22638898.539    -9724295.413 6  -7467727.587 6
 95  2 19 20 23  0.0000000  0  7 28 18 31  2 29 19 27
  23336291.594    -6785246.557 5   -185597.956 6
  20307980.172   -22139834.696 7 -17184760.250 8
  21980093.102   -13493417.622 6 -10008225.477 6
  23945382.359    -4287764.651 5  -3204044.533 5
  21749136.258    -6441606.411 6  -4913027.888 7
  20837956.820   -18912349.174 7 -14662339.297 8
  22627410.562    -9784663.616 6  -7514767.704 6
 95  2 19 20 23 30.0000000  0  7 28 18 31  2 29 19 27
  23342460.727    -6752823.468 5   -160333.220 5
  20313009.867   -22113407.317 7 -17164167.502 8
  21974027.828   -13525278.959 6 -10033052.496 6
  23930247.656    -4367293.115 5  -3266014.735 5
  21763550.789    -6365873.139 6  -4854014.990 7
  20835792.859   -18923718.977 7 -14671198.874 8
  22615935.750    -9844968.578 6  -7561758.554 6
 95  2 19 20 24  0.0000000  0  7 28 18 31  2 29 19 27
  23348739.234    -6719855.873 5   -134644.185 6
  20318138.938   -22086451.879 7 -17143163.284 8
  21968068.547   -13556600.084 6 -10057458.565 6
  23915154.984    -4446598.604 5  -3327811.158 5
  21778034.281    -6289755.778 6  -4794702.810 7
  20833670.359   -18934886.106 7 -14679900.536 8
  22604474.438    -9905193.477 6  -7608687.012 6
 95  2 19 20 24 30.0000000  0  7 28 18 31  2 29 19 27
  23355112.359    -6686363.828 5   -108546.491 6
  20323366.422   -22058976.590 7 -17121753.984 8
  21962204.133   -13587408.867 6 -10081465.404 7
  23900104.062    -4525698.533 5  -3389447.403 5
  21792586.438    -6213272.016 6  -4735105.126 7
  20831580.664   -18945863.840 7 -14688454.607 8
  22593024.070    -9965365.746 6  -7655574.452 6
 95  2 19 20 25  0.0000000  0  8 28 18 16 31  2 29 19 27
  23361587.344    -6652350.548 5    -82042.640 6
  20328691.156   -22030996.690 7 -17099951.484 8
  24851233.062          -0.66813
  21956438.133   -13617712.020 6 -10105078.246 7
  23885090.891    -4604600.102 5  -3450929.087 5
  21807210.555    -6136435.813 6  -4675232.812 7
  20829526.852   -18956656.476 7 -14696864.461 8
  22581582.602   -10025496.820 6  -7702429.796 6
 95  2 19 20 25 30.0000000  0  8 28 18 16 31  2 29 19 27
  23368162.078    -6617807.312 5    -55125.833 6
  20334114.789   -22002499.301 7 -17077745.744 8
  24840678.891      -55477.728 3
  21950770.484   -13647497.757 6 -10128287.891 7
  23870114.828    -4683298.602 5  -3512252.542 5
  21821900.391    -6059232.052 6  -4615074.083 7
  20827506.445   -18967264.572 7 -14705130.513 8
  22570149.367   -10085575.059 6  -7749243.967 6
 95  2 19 20 26  0.0000000  0  8 28 18 16 31  2 29 19 27
  23374831.391    -6582739.359 5    -27800.157 6
  20339631.000   -21973507.100 7 -17055154.421 8
  24830199.836     -110549.053 3
  21945199.766   -13676764.024 6 -10151092.759 7
  23855170.836    -4761822.243 5  -3573439.746 5
  21836662.688    -5981667.060 6  -4554633.883 7
  20825519.289   -18977714.072 7 -14713272.980 8
  22558728.750   -10145591.913 6  -7796010.295 6
 95  2 19 20 26 30.0000000  0  8 28 18 16 31  2 29 19 27
  23381601.922    -6547151.229 5       -69.177 6
  20345239.391   -21944034.199 7 -17032188.552 8
  24819803.781     -165188.517 3        -0.38811
  21939730.570   -13705499.704 6 -10173484.190 7
  23840260.977    -4840173.272 5  -3634492.466 5
  21851486.148    -5903760.592 6  -4493927.597 7
  20823559.336   -18988020.168 7 -14721303.701 9
  22547317.164   -10205552.189 6  -7842732.543 6
 95  2 19 20 27  0.0000000  0  8 28 18 16 31  2 29 19 27
  23388479.336    -6511023.864 5     28082.002 6
  20350942.125   -21914059.065 7 -17008831.320 8
  24809490.664     -219368.174 2    -42218.217 1
  21934368.828   -13733680.962 6 -10195443.603 7
  23825386.008    -4918332.187 5  -3695395.465 5
  21866382.578    -5825491.701 6  -4432938.911 7
  20821627.992   -18998167.254 7 -14729210.521 8
  22535922.938   -10265435.224 6  -7889394.596 6
 95  2 19 20 27 30.0000000  0  8 28 18 16 31  2 29 19 27
  23395453.016    -6474380.175 5     56635.506 6
  20356741.859   -21883590.154 7 -16985089.331 8
  24799259.773     -273105.322 2    -84091.267 2
  21929108.469   -13761324.647 6 -10216984.100 7
  23810554.078    -4996294.556 5  -3756145.301 5
  21881340.812    -5746874.133 6  -4371678.510 7
  20819722.562   -19008176.247 7 -14737009.736 9
  22524536.008   -10325260.655 6  -7936011.783 6
 95  2 19 20 28  0.0000000  0  8 28 18 16 31  2 29 19 27
  23402526.531    -6437216.763 5     85593.972 6
  20362636.398   -21852614.647 7 -16960952.598 8
  24789129.195     -326390.723 3   -125612.336 1
  21923952.609   -13788426.004 6 -10238102.031 7
  23795756.992    -5074038.923 5  -3816725.322 5
  21896369.094    -5667905.292 6  -4310144.410 7
  20817846.320   -19018036.164 7 -14744692.788 9
  22513162.953   -10385034.871 6  -7982589.039 6
 95  2 19 20 28 30.0000000  0  8 28 18 16 31  2 29 19 27
  23409693.336    -6399539.439 5    114952.893 6
  20368628.227   -21821133.498 7 -16936421.852 8
  24779074.234     -379236.486 3   -166790.870 3
  21918896.469   -13815000.743 6 -10258809.594 7
  23781009.047    -5151548.003 5  -3877121.968 5
  21911461.461    -5588589.332 6  -4248339.807 7
  20816001.094   -19027728.964 7 -14752245.616 9
  22501796.781   -10444763.856 6  -8029131.050 6
 95  2 19 20 29  0.0000000  0  8 28 18 16 31  2 29 19 27
  23416962.195    -6361345.607 5    144714.272 6
  20374716.141   -21789135.297 7 -16911488.218 8
  24769094.602     -431657.837 3   -207638.596 2
  21913938.289   -13841043.592 6 -10279102.704 7
  23766302.648    -5228821.544 5  -3937335.061 5
  21926621.742    -5508916.130 6  -4186256.863 7
  20814191.742   -19037243.360 7 -14759659.442 9
  22490446.203   -10504424.554 6  -8075619.858 6
 95  2 19 20 29 30.0000000  0  8 28 18 16 31  2 29 19 27
  23424329.219    -6322620.547 5    174889.600 6
  20380905.375   -21756614.479 7 -16886147.345 8
  24759204.000     -483643.187 3   -248146.621 1
  21909090.211   -13866537.086 6 -10298967.744 7
  23751645.375    -5305853.896 5  -3997360.235 5
  21941857.094    -5428865.448 6  -4123879.757 7
  20812414.953   -19046568.058 7 -14766925.444 9
  22479109.406   -10563993.096 6  -8122036.867 6
 95  2 19 20 30  0.0000000  0  8 28 18 16 31  2 29 19 27
  23431798.844    -6283365.859 5    205477.612 6
  20387190.375   -21723580.966 7 -16860406.966 8
  24749390.648     -535193.659 3   -288315.851 1
  21904339.719   -13891488.688 6 -10318410.537 7
  23737025.203    -5382676.223 5  -4057221.749 5
  21957158.047    -5348440.304 6  -4061210.870 7
  20810678.656   -19055706.299 7 -14774046.145 9
  22467793.125   -10623460.292 6  -8168374.899 6
 95  2 19 20 30 30.0000000  0  8 28 18 16 31  2 29 19 27
  23439368.297    -6243598.808 5    236464.871 6
  20393569.789   -21690061.088 7 -16834287.602 8
  24739664.000     -586325.744 4   -328159.002 2
  21899692.016   -13915907.243 6 -10337437.957 7
  23722439.789    -5459322.393 5  -4116945.988 5
  21972534.367    -5267658.921 6  -3998264.386 7
  20808968.750   -19064685.230 7 -14781042.710 9
  22456495.898   -10682835.326 6  -8214641.095 6
 95  2 19 20 31  0.0000000  0  8 28 18 16 31  2 29 19 27
  23447034.641    -6203311.151 5    267857.796 6
  20400042.914   -21656049.267 7 -16807784.907 8
  24730016.906     -637015.167 4   -367657.240 3
  21895153.062   -13939770.772 6 -10356032.889 7
  23707887.195    -5535804.049 5  -4176542.035 5
  21987974.117    -5186509.689 6  -3935031.287 7
  20807287.422   -19073510.593 7 -14787919.612 9
  22445210.148   -10742123.576 6  -8260839.685 6
 95  2 19 20 31 30.0000000  0  8 28 18 16 31  2 29 19 27
  23454797.586    -6162507.859 5    299652.527 6
  20406603.953   -21621571.706 7 -16780919.298 8
  24720454.812     -687260.664 4   -406809.586 2
  21890713.719   -13963088.537 6 -10374202.552 7
  23693364.391    -5612119.992 5  -4236008.955 4
  22003488.211    -5104998.095 6  -3871515.819 7
  20805637.500   -19082189.876 7 -14794682.687 9
  22433943.352   -10801345.873 6  -8306986.895 6
 95  2 19 20 32  0.0000000  0  8 28 18 16 31  2 29 19 27
  23462652.914    -6121219.650 5    331825.124 6
  20413248.633   -21586648.568 7 -16753706.485 8
  24710970.797     -737092.110 5   -445639.288 2
  21886377.609   -13985878.788 6 -10391961.174 7
  23678871.984    -5688279.363 5  -4295353.871 5
  22019055.781    -5023162.407 6  -3807747.796 7
  20804009.859   -19090739.946 7 -14801345.084 8
  22422675.641   -10860546.118 6  -8353116.916 6
 95  2 19 20 32 30.0000000  0  8 28 18 16 31  2 29 19 27
  23470604.602    -6079422.644 5    364394.190 6
  20419986.242   -21551244.006 7 -16726118.540 8
  24701572.531     -786486.355 4   -484128.333 2
  21882151.102   -14008098.670 6 -10409275.351 7
  23664415.672    -5764234.667 5  -4354539.758 5
  22034698.812    -4940986.673 6  -3743714.820 7
  20802414.586   -19099129.409 7 -14807882.337 9
  22411418.891   -10919710.628 6  -8399219.092 6
 95  2 19 20 33  0.0000000  0  8 28 18 16 31  2 29 19 27
  23478657.945    -6037114.533 5    397361.508 5
  20426814.016   -21515356.017 7 -16698153.895 8
  24692261.500     -835435.369 4   -522270.414 2
  21878027.969   -14029756.203 6 -10426151.336 7
  23650006.328    -5839973.006 5  -4413556.578 5
  22050398.047    -4858468.341 6  -3679414.879 7
  20800853.828   -19107337.543 7 -14814278.280 9
  22400167.891   -10978834.296 6  -8445289.444 6
 95  2 19 20 33 30.0000000  0  8 28 18 16 31  2 29 19 27
  23486809.344    -5994287.131 5    430733.478 6
  20433739.430   -21478969.438 7 -16669800.740 8
  24683032.062     -883934.810 4   -560062.203 2
  21874016.305   -14050850.783 6 -10442588.654 7
  23635637.688    -5915469.484 5  -4472384.963 5
  22066168.273    -4775609.011 6  -3614849.233 7
  20799328.570   -19115343.274 7 -14820516.509 9
  22388929.656   -11037894.594 6  -8491310.408 6
 95  2 19 20 34  0.0000000  0  8 28 18 16 31  2 29 19 27
  23495057.898    -5950948.869 5    464503.528 6
  20440760.031   -21442078.758 7 -16641054.781 8
  24673884.156     -931985.941 3   -597504.649 1
  21870105.914   -14071392.788 6 -10458595.392 7
  23621313.062    -5990746.663 5  -4531042.448 5
  22081996.953    -4692414.467 6  -3550022.378 7
  20797841.648   -19123155.242 7 -14826603.748 9
  22377700.750   -11096889.610 6  -8537280.507 6
 95  2 19 20 34 30.0000000  0  8 28 18 16 31  2 29 19 27
  23503399.227    -5907097.407 5    498673.464 6
  20447874.836   -21404690.570 7 -16611921.159 8
  24664831.336     -979581.460 4   -634592.082 2
  21866297.719   -14091399.537 6 -10474185.061 7
  23607031.109    -6065820.656 5  -4589541.600 5
  22097897.344    -4608872.516 6  -3484924.823 7
  20796392.070   -19130784.020 7 -14832548.243 9
  22366488.109   -11155807.705 6  -8583190.673 6
 95  2 19 20 35  0.0000000  0  8 28 18 16 31  2 29 19 27
  23511837.109    -5862741.323 5    533236.616 6
  20455081.062   -21366824.438 7 -16582415.103 8
  24655855.500    -1026727.636 3   -671329.380 2
  21862590.039   -14110891.200 6 -10489373.359 7
  23592777.102    -6140701.114 5  -4647889.955 5
  22113858.188    -4524985.068 6  -3419558.045 7
  20794968.586   -19138247.595 7 -14838364.010 9
  22355293.500   -11214649.633 6  -8629041.487 6
 95  2 19 20 35 30.0000000  0  8 28 18 16 31  2 29 19 27
  23520379.242    -5817875.246 5    568197.172 5
  20462380.500   -21328456.738 7 -16552518.220 8
  24646971.516    -1073428.483 3   -707719.630 2
  21858981.844   -14129851.174 6 -10504147.361 7
  23578568.750    -6215368.180 5  -4706072.022 5
  22129888.773    -4440749.927 6  -3353920.349 7
  20793579.562   -19145559.423 7 -14844061.537 8
  22344109.367   -11273415.655 6  -8674833.167 6
 95  2 19 20 36  0.0000000  0  8 28 18 16 31  2 29 19 27
  23529012.656    -5772515.541 5    603542.360 6
  20469774.664   -21289593.678 7 -16522235.339 8
  24638164.641    -1119695.390 3   -743771.774 1
  21855475.188   -14148280.546 6 -10518507.901 7
  23564398.477    -6289834.068 5  -4764097.320 5
  22145982.492    -4356176.013 6  -3288018.663 7
  20792213.172   -19152736.932 7 -14849654.404 8
  22332937.078   -11332131.204 6  -8720585.501 6
 95  2 19 20 36 30.0000000  0  8 28 18 16 31  2 29 19 27
  23537742.953    -5726631.079 5    639296.437 5
  20477273.070   -21250197.749 7 -16491537.242 8
  24629456.758    -1165490.594 3   -779456.334 2
  21852078.875   -14166128.554 6 -10532415.435 7
  23550279.172    -6364039.042 5  -4821919.319 5
  22162142.820    -4271249.277 6  -3221842.052 6
  20790881.422   -19159737.692 7 -14855109.540 8
  22321775.125   -11390777.269 6  -8766283.699 7
 95  2 19 20 37  0.0000000  0  8 28 18 16 31  2 29 19 27
  23546569.383    -5680237.219 5    675447.455 5
  20484870.906   -21210278.701 7 -16460431.515 8
  24620831.117    -1210817.687 3   -814776.192 2
  21848795.016   -14183388.159 6 -10545864.464 7
  23536206.805    -6437994.367 5  -4879546.786 5
  22178364.680    -4186003.790 6  -3155417.059 6
  20789579.727   -19166566.530 7 -14860430.718 9
  22310627.531   -11449366.728 6  -8811937.775 6
 95  2 19 20 37 30.0000000  0  8 28 18 16 31  2 29 19 27
  23555497.383    -5633326.122 5    712001.517 5
  20492568.453   -21169819.597 7 -16428904.967 8
  24612290.086    -1255662.846 3   -849720.446 2
  21845621.695   -14200049.684 6 -10558847.461 7
  23522179.898    -6511710.796 5  -4936988.091 5
  22194650.258    -4100432.267 6  -3088738.018 7
  20788320.531   -19173202.410 7 -14865601.524 9
  22299490.547   -11507888.893 6  -8857539.414 6
 95  2 19 20 38  0.0000000  0  8 28 18 16 31  2 29 19 27
  23564519.359    -5585917.651 5    748943.136 5
  20500365.609   -21128852.822 7 -16396982.823 8
  24603849.406    -1300041.827 3   -884301.478 2
  21842561.125   -14216131.459 6 -10571378.715 7
  23508188.047    -6585224.786 5  -4994271.646 5
  22210994.273    -4014551.900 6  -3021818.315 7
  20787091.750   -19179654.634 7 -14870629.234 9
  22288367.148   -11566343.244 6  -8903088.209 7
 95  2 19 20 38 30.0000000  0  8 28 18 16 31  2 29 19 27
  23573638.055    -5538002.087 5    786279.902 5
  20508255.195   -21087380.216 7 -16364666.539 8
  24595487.695    -1343955.998 2   -918520.300 2
  21839612.648   -14231630.865 6 -10583456.174 7
  23494235.852    -6658533.006 5  -5051394.873 5
  22227394.766    -3928358.686 6  -2954654.855 7
  20785899.672   -19185917.572 7 -14875509.438 9
  22277263.000   -11624701.619 6  -8948562.223 7
 95  2 19 20 39  0.0000000  0  8 28 18 16 31  2 29 19 27
  23582853.023    -5489579.129 5    824012.048 5
  20516243.781   -21045398.455 7 -16331953.498 8
  24587223.406    -1387409.736 3   -952380.343 2
  21836772.711   -14246552.879 6 -10595083.712 7
  23480323.344    -6731649.504 5  -5108368.698 5
  22243859.188    -3841830.046 6  -2887230.008 6
  20784742.484   -19191998.074 7 -14880247.495 9
  22266177.852   -11682946.323 6  -8993947.670 7
 95  2 19 20 39 30.0000000  0  8 28 18 16 31  2 29 19 27
  23592161.516    -5440654.409 5    862135.163 5
  20524329.281   -21002921.274 7 -16298854.417 8
  24579035.109    -1430414.639 2   -985890.626 4
  21834047.430   -14260895.516 6 -10606259.793 7
  23466449.164    -6804564.302 5  -5165185.358 5
  22260391.664    -3754959.464 6  -2819538.705 6
  20783617.742   -19197902.703 7 -14884848.496 9
  22255116.516   -11741083.066 6  -9039248.990 6
 95  2 19 20 40  0.0000000  0  8 28 18 16 31  2 29 19 27
  23601568.055    -5391218.255 5    900656.799 6
  20532507.867   -20959942.097 7 -16265364.162 8
  24570946.297    -1472956.707 3  -1019040.275 4
  21831433.969   -14274630.045 7 -10616962.026 7
  23452616.438    -6877247.648 5  -5221821.685 5
  22276988.820    -3667739.814 6  -2751575.414 6
  20782528.102   -19203621.328 7 -14889304.563 9
  22244071.500   -11799114.043 6  -9084467.888 7
 95  2 19 20 40 30.0000000  0  8 28 18 16 31  2 29 19 27
  23611070.672    -5341281.062 5    939568.848 6
  20540779.055   -20916472.685 7 -16231491.920 8
  24562934.883    -1515020.621 3  -1051817.343 4
  21828934.078   -14287758.317 6 -10627191.848 7
  23438826.844    -6949702.843 5  -5278280.213 5
  22293650.375    -3580179.257 6  -2683346.495 6
  20781474.039   -19209163.977 7 -14893623.512 9
  22233045.438   -11857068.357 6  -9129627.045 7
 95  2 19 20 41  0.0000000  0  8 28 18 16 31  2 29 19 27
  23620666.086    -5290871.196 5    978849.205 6
  20549139.289   -20872540.112 7 -16197258.764 8
  24555026.438    -1556612.094 3  -1084226.255 5
  21826543.758   -14300308.448 7 -10636971.167 7
  23425082.336    -7021946.753 5  -5334574.101 5
  22310373.781    -3492302.882 6  -2614871.464 6
  20780450.344   -19214556.846 7 -14897825.746 9
  22222020.977   -11914989.719 6  -9174760.515 7
 95  2 19 20 41 30.0000000  0  8 28 18 16 31  2 29 19 27
  23630356.117    -5239956.988 5   1018522.577 5
  20557592.383   -20828115.917 7 -16162642.529 8
  24547203.039    -1597704.286 3  -1116246.165 3
  21824273.602   -14312256.821 6 -10646281.576 7
  23411381.570    -7093942.688 5  -5390674.775 5
  22327158.852    -3404094.859 6  -2546138.001 6
  20779456.148   -19219771.162 7 -14901888.849 9
  22211011.523   -11972853.982 6  -9219849.497 7
 95  2 19 20 42  0.0000000  0  8 28 18 16 31  2 29 19 27
  23640135.555    -5188551.854 5   1058578.476 5
  20566141.242   -20783198.964 7 -16127642.325 8
  24539477.953    -1638307.710 4  -1147885.157 4
  21822105.820   -14323642.937 6 -10655153.871 7
  23397727.062    -7165704.618 5  -5446593.104 6
  22344004.156    -3315569.363 6  -2477157.155 6
  20778493.945   -19224823.329 7 -14905825.604 9
  22200010.023   -12030660.875 6  -9264893.781 7
 95  2 19 20 42 30.0000000  0  8 28 18 16 31  2 29 19 27
  23650011.352    -5136640.814 5   1099028.587 5
  20574783.273   -20737777.826 7 -16092249.253 8
  24531844.297    -1678410.114 4  -1179133.782 2
  21820046.266   -14334469.380 6 -10663590.055 7
  23384117.195    -7237215.750 5  -5502315.996 6
  22360912.734    -3226715.157 6  -2407920.178 6
  20777565.141   -19229703.183 7 -14909628.080 9
  22189028.531   -12088370.552 6  -9309862.315 7
 95  2 19 20 43  0.0000000  0  8 28 18 16 31  2 29 19 27
  23659989.039    -5084228.788 5   1139869.084 5
  20583522.945   -20691857.528 7 -16056467.215 8
  24524302.148    -1718043.171 3  -1210016.647 3
  21818087.781   -14344747.172 6 -10671598.726 7
  23370555.844    -7308481.415 5  -5557847.615 5
  22377881.484    -3137545.105 6  -2338437.097 6
  20776672.078   -19234411.384 7 -14913296.809 9
  22178066.695   -12145972.642 6  -9354747.016 7
 95  2 19 20 43 30.0000000  0  8 28 18 16 31  2 29 19 27
  23670058.352    -5031319.734 5   1181096.872 5
  20592354.953   -20645438.583 7 -16020296.623 8
  24516852.102    -1757210.970 3  -1240536.968 3
  21816239.297   -14354476.039 6 -10679179.659 7
  23357039.375    -7379508.310 5  -5613193.184 6
  22394908.781    -3048065.368 6  -2268712.680 6
  20775807.875   -19238939.630 7 -14916825.317 9
  22167130.914   -12203448.556 6  -9399533.388 7
 95  2 19 20 44  0.0000000  0  8 28 18 16 31  2 29 19 27
  23680218.781    -4977923.794 5   1222704.067 5
  20601280.547   -20598537.828 7 -15983750.595 8
  24509486.273    -1795909.254 3  -1270691.443 2
  21814489.781   -14363653.206 6 -10686330.698 7
  23343567.391    -7450303.267 5  -5668358.004 6
  22411994.156    -2958279.020 6  -2198749.372 6
  20774981.195   -19243281.366 7 -14920208.479 9
  22156218.359   -12260796.334 6  -9444219.917 7
 95  2 19 20 44 30.0000000  0  8 28 18 16 31  2 29 19 27
  23690472.805    -4924029.490 5   1264699.596 5
  20610298.086   -20551148.423 7 -15946823.804 8
  24502220.234    -1834112.865 3  -1300460.422 3
  21812859.148   -14372231.299 6 -10693014.931 7
  23330144.148    -7520855.585 5  -5723333.778 5
  22429142.453    -2868171.762 6  -2128535.976 6
  20774196.023   -19247412.642 7 -14923427.651 9
  22145326.617   -12318023.630 6  -9488812.564 7
 95  2 19 20 45  0.0000000  0  8 28 18 16 31  2 29 19 27
  23700823.047    -4869640.242 5   1307080.788 5
  20619410.227   -20503260.786 7 -15909508.787 9
  24495044.469    -1871810.190 3  -1329834.965 2
  21811340.969   -14380202.453 6 -10699226.221 7
  23316761.938    -7591169.046 5  -5778123.420 6
  22446351.281    -2777739.930 6  -2058069.694 6
  20773452.523   -19251325.211 7 -14926476.398 9
  22134453.898   -12375157.094 6  -9533332.107 7
 95  2 19 20 45 30.0000000  0  8 28 18 16 31  2 29 19 27
  23711266.703    -4814767.854 5   1349838.452 5
  20628617.531   -20454880.037 7 -15871809.518 8
  24487965.930    -1909002.039 3  -1358815.575 4
  21809940.117   -14387573.951 6 -10704970.241 7
  23303426.531    -7661250.836 5  -5832732.519 6
  22463619.445    -2686979.956 6  -1987347.727 6
  20772745.641   -19255025.088 7 -14929359.411 9
  22123596.617   -12432217.993 6  -9577795.118 7
 95  2 19 20 46  0.0000000  0  8 28 18 16 31  2 29 19 27
  23721797.938    -4759413.250 5   1392971.873 5
  20637918.836   -20406002.613 7 -15833723.234 8
  24480983.195    -1945705.014 3  -1387415.255 4
  21808653.211   -14394336.056 6 -10710239.414 7
  23290131.086    -7731097.482 5  -5887158.398 6
  22480956.984    -2595885.190 6  -1916364.872 6
  20772079.711   -19258530.872 7 -14932091.193 9
  22112746.398   -12489231.745 6  -9622221.365 7
 95  2 19 20 46 30.0000000  0  8 28 18 16 31  2 29 19 27
  23732425.938    -4703573.596 5   1436483.257 5
  20647315.867   -20356621.433 7 -15795244.408 8
  24474090.445    -1981922.133 3  -1415636.347 3
  21807482.297   -14400485.661 6 -10715031.304 7
  23276888.789    -7800703.765 5  -5941396.967 6
  22498355.516    -2504457.264 6  -1845122.400 6
  20771451.094   -19261842.167 7 -14934671.426 9
  22101906.219   -12546206.244 6  -9666617.044 7
 95  2 19 20 47  0.0000000  0  8 28 18 16 31  2 29 19 27
  23743137.352    -4647263.869 5   1480360.929 5
  20656805.547   -20306751.227 7 -15756384.539 8
  24467283.078    -2017686.496 4  -1443504.639 3
  21806418.859   -14406063.890 6 -10719377.976 7
  23263685.805    -7870085.202 5  -5995460.351 6
  22515812.305    -2412719.755 6  -1773638.694 6
  20770854.953   -19264984.894 7 -14937120.301 9
  22091070.703   -12603140.140 6  -9710981.082 7
 95  2 19 20 47 30.0000000  0  8 28 18 16 31  2 29 19 27
  23753946.812    -4590476.435 5   1524610.841 5
  20666390.094   -20256387.312 7 -15717139.953 8
  24460563.039    -2053006.435 3  -1471026.619 2
  21805468.922   -14411059.479 6 -10723270.639 7
  23250529.117    -7939232.437 5  -6049341.212 6
  22533324.797    -2320674.133 6  -1701914.922 6
  20770287.602   -19267954.399 7 -14939434.189 9
  22080249.523   -12660013.025 6  -9755297.583 7
 95  2 19 20 48  0.0000000  0  8 28 18 16 31  2 29 19 27
  23764842.375    -4533205.757 5   1569237.274 5
  20676067.203   -20205528.617 7 -15677509.822 8
  24453929.953    -2087863.740 3  -1498188.103 2
  21804634.195   -14415452.900 6 -10726694.075 7
  23237413.477    -8008142.710 5  -6103037.429 6
  22550898.523    -2228338.474 6  -1629965.137 6
  20769754.219   -19270753.087 7 -14941614.978 9
  22069441.742   -12716810.483 6  -9799555.314 7
 95  2 19 20 48 30.0000000  0  8 28 18 16 31  2 29 19 27
  23775835.859    -4475460.963 5   1614233.166 5
  20685837.023   -20154187.337 7 -15637503.656 8
  24447390.852    -2122245.638 4  -1524979.166 3
  21803909.992   -14419256.427 6 -10729657.851 7
  23224340.844    -8076839.696 5  -6156567.456 6
  22568520.266    -2135737.948 6  -1557808.959 6
  20769257.703   -19273373.802 7 -14943657.092 9
  22058647.047   -12773527.992 6  -9843750.745 7
 95  2 19 20 49  0.0000000  0  8 28 18 16 31  2 29 19 27
  23786914.367    -4417240.614 5   1659599.604 5
  20695701.164   -20102349.907 7 -15597110.882 8
  24440938.438    -2156135.487 4  -1551386.785 2
  21803298.523   -14422465.445 6 -10732158.368 7
  23211311.133    -8145320.914 5  -6209929.352 6
  22586189.047    -2042877.098 6  -1485449.943 6
  20768789.109   -19275819.482 7 -14945562.812 9
  22047871.344   -12830150.374 6  -9887872.043 7
 95  2 19 20 49 30.0000000  0  8 28 18 16 31  2 29 19 27
  23798084.250    -4358536.100 5   1705343.333 5
  20705661.039   -20050014.288 7 -15556329.904 8
  24434584.617    -2189506.904 4  -1577390.481 3
  21802805.344   -14425046.908 6
  23198323.273    -8213574.542 5  -6263113.902 6
  22603915.398    -1949738.111 6  -1412874.188 6
  20768362.109   -19278069.721 7
  22037117.781   -12886665.403 6  -9931909.701 7
 95  2 19 20 50  0.0000000  0  8 28 18 16 31  2 29 19 27
  23809343.922    -4299344.912 5   1751466.254 5
  20715714.688   -19997185.182 7 -15515164.392 8
  24428341.172    -2222343.621 5  -1602977.493 2
  21802432.758   -14427007.779 6 -10735697.829 7
  23185377.117    -8281594.819 5  -6316116.624 6
  22621692.719    -1856306.502 6  -1340070.412 6
  20767971.094   -19280128.911 7 -14948920.812 9
  22026387.797   -12943058.055 6  -9975851.999 7
 95  2 19 20 50 30.0000000  0  8 28 18 16 31  2 29 19 27
  23820695.383    -4239697.115 5   1797944.996 5
  20725858.406   -19943882.576 7 -15473629.920 8
  24422183.484    -2254686.815 5  -1628179.943 4
  21802169.727   -14428401.609 6 -10736783.909 7
  23172476.531    -8349398.333 5  -6368950.434 6
  22639528.516    -1762592.099 6  -1267046.279 6
  20767611.641   -19282018.809 7 -14950393.465 9
  22015675.070   -12999348.748 6 -10019714.838 7
 95  2 19 20 51  0.0000000  0  8 28 18 16 31  2 29 19 27
  23832128.977    -4179610.033 5   1844766.035 5
  20736084.609   -19890136.120 7 -15431749.595 8
  24416115.375    -2286565.376 5  -1653020.377 2
  21802008.656   -14429244.846 6 -10737440.967 7
  23159613.906    -8416979.506 5  -6421611.007 6
  22657415.664    -1668595.065 6  -1193801.909 6
  20767282.523   -19283759.925 7 -14951750.177 9
  22004981.922   -13055548.867 6 -10063507.095 7
 95  2 19 20 51 30.0000000  0  8 28 18 16 31  2 29 19 27
  23843655.594    -4119048.345 5   1891956.896 5
  20746400.555   -19835926.397 7 -15389508.276 8
  24410145.461    -2317957.112 5  -1677481.420 3
  21801956.586   -14429507.772 6
  23146801.906    -8484304.713 5  -6474072.138 6
  22675364.711    -1574269.118 6  -1120301.252 6
  20766987.023   -19285317.689 7 -14952964.010 9
  21994307.750   -13111633.988 6 -10107209.755 7
 95  2 19 20 52  0.0000000  0  8 28 18 16 31  2 29 19 27
  23855275.156    -4058000.196 5   1939526.830 5
  20756811.438   -19781220.811 7 -15346880.571 8
  24404265.109    -2348849.132 5  -1701553.104 4
  21802019.891   -14429179.575 6
  23134041.625    -8551360.573 5  -6526323.349 6
  22693377.898    -1479617.716 6  -1046546.982 6
  20766724.359   -19286690.471 7 -14954033.702 9
  21983659.734   -13167594.305 6 -10150815.164 7
 95  2 19 20 52 30.0000000  0  8 28 18 16 31  2 29 19 27
  23866979.781    -3996495.855 5   1987452.257 5
  20767309.562   -19726047.038 7 -15303888.046 8
  24398478.672    -2379266.500 5  -1725254.904 2
  21802195.688   -14428272.050 6 -10736682.900 7
  23121329.250    -8618174.309 6  -6578385.933 6
  22711442.602    -1384675.400 6   -972566.026 6
  20766490.352   -19287899.189 7 -14954975.558 9
  21973023.906   -13223479.364 6 -10194361.927 7
 95  2 19 20 53  0.0000000  0  8 28 18 16 31  2 29 19 27
  23878772.781    -3934536.978 5   2035731.857 5
  20777896.719   -19670409.432 7 -15260534.088 8
  24392777.680    -2409199.851 4  -1748579.551 3
  21802481.578   -14426763.366 6 -10735507.290 7
  23108661.289    -8684750.686 6  -6630263.564 6
  22729563.414    -1289451.044 6   -898365.301 6
  20766296.219   -19288939.445 7 -14955786.147 9
  21962402.445   -13279303.726 6 -10237861.376 7
 95  2 19 20 53 30.0000000  0  8 28 18 16 31  2 29 19 27
  23890644.508    -3872130.168 5   2084360.482 5
  20788575.828   -19614296.687 7 -15216809.887 8
  24387180.891    -2438642.346 4  -1771521.705 1
  21802882.094   -14424650.610 6 -10733860.982 7
  23096031.898    -8751101.620 6  -6681965.517 6
  22747736.891    -1193952.019 6   -823950.548 6
  20766128.883   -19289814.140 7 -14956467.727 9
  21951787.383   -13335078.840 6 -10281322.462 7
 95  2 19 20 54  0.0000000  0  8 28 18 16 31  2 29 19 27
  23902607.180    -3809261.447 5   2133349.039 5
  20799347.883   -19557683.789 7 -15172695.970 8
  24381676.508    -2467562.392 4  -1794056.755 3
  21803406.109   -14421910.615 6 -10731725.915 7
  23083454.922    -8817199.180 6  -6733470.044 6
  22765968.078    -1098150.005 6   -749299.700 5
  20766000.875   -19290488.026 7 -14956992.814 9
  21941188.031   -13390778.145 6 -10324724.482 7
 95  2 19 20 54 30.0000000  0  8 28 18 16 31  2 29 19 27
  23914661.633    -3745918.239 5   2182707.309 5
  20810216.086   -19500575.761 7 -15128196.233 8
  24376275.312    -2495941.419 4  -1816170.228 3
  21804047.000   -14418532.677 6 -10729093.746 7
  23070926.094    -8883030.299 6  -6784766.943 6
  22784261.125    -1002018.062 6   -674391.743 6
  20765916.609   -19290928.092 7 -14957335.707 9
  21930603.469   -13446394.148 6 -10368061.578 7
 95  2 19 20 55  0.0000000  0  8 28 18 16 31  2 29 19 27
  23926797.969    -3682118.117 5   2232421.620 5
  20821176.062   -19442980.306 7 -15083316.679 8
  24370970.414    -2523796.467 4  -1837875.419 3
  21804810.445   -14414528.332 6 -10725973.467 7
  23058449.609    -8948607.458 6  -6835865.967 6
  22802613.594     -905583.342 6   -599247.900 6
  20765877.375   -19291139.066 7
  21920036.492   -13501932.228 6 -10411337.961 7
 95  2 19 20 55 30.0000000  0  8 28 18 16 31  2 29 19 27
  23939025.719    -3617868.464 5   2282486.261 5
  20832227.742   -19384906.844 7 -15038064.658 8
  24365771.680    -2551138.907 4  -1859181.167 4
  21805689.984   -14409909.450 6 -10722374.330 7
  23046017.438    -9013941.660 6  -6886775.674 6
  22821019.570     -808855.780 6   -523875.851 6
  20765877.484   -19291131.153 7
  21909483.695   -13557385.218 6 -10454548.045 7
 95  2 19 20 56  0.0000000  0  8 28 18 16 31  2 29 19 27
  23951343.227    -3553148.029 5   2332917.723 5
  20843372.125   -19326342.136 7 -14992429.851 8
  24360669.195    -2577954.429 4  -1880076.360 2
  21806686.555   -14404664.147 6 -10718287.080 7
  23033632.898    -9079014.494 6  -6937481.705 6
  22839479.586     -711836.456 6   -448276.435 5
  20765925.320   -19290883.342 7
  21898953.812   -13612722.518 6 -10497667.979 7
 95  2 19 20 56 30.0000000  0  8 28 18 16 31  2 29 19 27
  23963746.250    -3487976.718 5   2383700.527 5
  20854605.938   -19267308.229 7 -14946429.429 8
  24355661.273    -2604273.885 4  -1900584.961 3
  21807797.141   -14398813.116 6 -10713727.843 7
  23021294.430    -9143850.021 6  -6988002.834 5
  22857989.172     -614577.461 6   -372490.273 5
  20766011.594   -19290426.277 7 -14956944.633 9
  21888442.859   -13667965.107 6 -10540714.108 7
 95  2 19 20 57  0.0000000  0  8 28 18 16 31  2 29 19 27
  23976234.922    -3422357.062 5   2434832.712 5
  20865927.625   -19207806.699 7 -14900064.620 8
  24350746.836    -2630109.880 5  -1920716.862 2
  21809023.672   -14392368.924 6 -10708706.386 7
  23009004.719    -9208443.861 6  -7038335.631 6
  22876540.602     -517087.532 5   -296524.173 6
  20766137.422   -19289772.387 7 -14956435.104 9
  21877950.711   -13723092.205 6 -10583670.252 7
 95  2 19 20 57 30.0000000  0  8 28 18 16 31  2 29 19 27
  23988804.898    -3356288.145 5   2486314.939 5
  20877337.734   -19147850.370 7 -14853345.424 8
  24345922.516    -2655459.113 4  -1940469.496 2
  21810358.453   -14385352.729 6 -10703239.229 7
  22996757.094    -9272802.414 6  -7088485.091 6
  22895133.852     -419363.464 5   -220375.649 6
  20766296.867   -19288930.329 7 -14955778.935 9
  21867485.852   -13778087.380 7 -10626523.592 7
 95  2 19 20 58  0.0000000  0  8 28 18 16 31  2 29 19 27
  24001459.359    -3289794.874 5   2538127.833 5
  20888828.406   -19087460.659 7 -14806288.537 8
  24341182.086    -2680343.557 4  -1959859.920 2
  21811800.203   -14377782.413 6 -10697340.292 7
  22984553.453    -9336936.787 6  -7138459.873 5
  22913770.711     -321425.844 5   -144060.697 5
  20766489.125   -19287917.498 7 -14954989.713 9
  21857041.531   -13832969.975 6 -10669289.217 7
 95  2 19 20 58 30.0000000  0  8 28 18 16 31  2 29 19 27
  24014197.469    -3222854.210 5   2590289.351 5
  20900409.414   -19026601.809 7 -14758866.084 8
  24336538.383    -2704738.398 3  -1978868.838 3
  21813353.953   -14369619.990 6 -10690979.962 7
  22972396.727    -9400814.410 6  -7188234.578 6
  22932461.258     -223226.219 6    -67541.569 5
  20766718.172   -19286707.530 7 -14954046.875 9
  21846621.906   -13887720.398 7 -10711951.846 7
 95  2 19 20 59  0.0000000  0  8 28 18 16 31  2 29 19 27
  24027018.117    -3155495.460 5   2642776.633 5
  20912075.781   -18965296.791 7 -14711095.960 8
  24331989.602    -2728667.622 4  -1997514.970 4
  21815018.141   -14360891.384 6 -10684178.462 7
  22960283.055    -9464467.852 6  -7237834.597 6
  22951194.266     -124781.458 5      9168.565 5
  20766981.180   -19285331.145 7 -14952974.363 9
  21836225.078   -13942364.855 7 -10754531.904 7
 95  2 19 20 59 30.0000000  0  8 28 18 16 31  2 29 19 27
  24039919.000    -3087699.667 5   2695604.477 4
  20923833.227   -18903514.434 7 -14662953.890 8
  24327522.336    -2752109.834 4  -2015781.579 2
  21816792.867   -14351559.767 6 -10676907.081 7
  22948216.703    -9527877.311 6  -7287244.513 6
  22969979.297      -26060.263 5     86094.064 6
  20767280.039   -19283766.573 7 -14951755.215 9
  21825845.742   -13996909.884 7 -10797034.485 8
 95  2 19 21  0  0.0000000  0  8 28 18 16 31  2 29 19 27
  24052901.703    -3019466.649 5   2748773.024 5
  20935684.172   -18841234.382 7 -14614424.004 8
  24323159.680    -2775058.647 5  -2033663.750 2
  21818685.148   -14341609.700 6 -10669153.779 7
  22936199.891    -9591031.982 6  -7336455.873 6
  22988821.398       72948.186 5    163243.421 5
  20767614.133   -19282010.835 7 -14950387.106 9
  21815481.797   -14051367.746 7 -10839469.140 8
 95  2 19 21  0 30.0000000  0  8 28 18 16 31  2 29 19 27
  24065961.992    -2950818.622 5   2802264.943 4
  20947626.516   -18778482.761 7 -14565526.654 8
  24318887.914    -2797521.758 5  -2051167.419 2
  21820691.742   -14331073.505 6 -10660943.755 7
  22924221.461    -9653966.263 6  -7385495.510 6
  23007710.398      172220.922 5    240598.729 5
  20767978.164   -19280088.840 7 -14948889.438 9
  21805129.578   -14105773.072 6 -10881862.869 8
 95  2 19 21  1  0.0000000  0  8 28 18 16 31  2 29 19 27
  24079106.359    -2881730.342 5   2856099.958 5
  20959657.664   -18715250.301 7 -14516254.632 8
  24314713.727    -2819459.656 4  -2068261.846 2
  21822810.578   -14319934.628 6 -10652264.118 7
  22912297.164    -9716648.606 6  -7434338.829 6
  23026657.453      271777.853 5    318175.467 5
  20768381.477   -19277963.465 7 -14947233.303 9
  21794792.273   -14160089.399 7 -10924187.240 8
 95  2 19 21  1 30.0000000  0  8 28 18 16 31  2 29 19 27
  24092337.797    -2812224.799 5   2910260.084 5
  20971776.641   -18651566.190 7 -14466630.677 8
  24310636.625    -2840878.777 4  -2084952.048 2
  21825040.891   -14308215.692 6 -10643132.492 7
  22900412.891    -9779090.435 6  -7482994.736 6
  23045651.617      371603.545 5    395961.653 5
  20768821.102   -19275654.512 7 -14945434.133 9
  21784470.234   -14214336.750 7 -10966457.862 8
 95  2 19 21  2  0.0000000  0  8 28 18 16 31  2 29 19 27
  24105643.523    -2742301.473 5   2964745.761 5
  20983978.195   -18587444.342 7 -14416665.621 8
  24306657.984    -2861765.322 3  -2101227.251 3
  21827381.828   -14295913.554 7 -10633546.397 7
  22888574.148    -9841296.710 6  -7531467.099 6
  23064697.273      471683.240 5    473945.728 5
  20769298.383   -19273158.551 7 -14943489.216 9
  21774166.203   -14268490.503 7 -11008655.552 8
 95  2 19 21  2 30.0000000  0  8 28 18 16 31  2 29 19 27
  24119032.438    -2671948.150 5   3019566.490 5
  20996262.656   -18522895.078 7 -14366367.518 8
  24302787.539    -2882109.259 3  -2117079.632 2
  21829839.336   -14283004.622 7 -10623487.485 7
  22876785.250    -9903251.038 6  -7579743.141 6
  23083790.008      572013.347 5    552124.947 5
  20769808.711   -19270460.940 7 -14941387.183 9
  21763882.375   -14322526.938 6 -11050761.822 8
 95  2 19 21  3  0.0000000  0  8 28 18 16 31  2 29 19 27
  24132497.688    -2601165.622 5   3074721.652 5
  21008628.617   -18457908.533 7 -14315728.674 8
  24299019.680    -2901920.359 3  -2132516.797 3
  21832413.508   -14269470.635 7 -10612941.504 7
  22865047.156    -9964937.686 6  -7627810.616 6
  23102923.977      672585.964 5    630493.138 5
  20770362.430   -19267557.920 7 -14939125.085 9
  21753624.367   -14376431.090 6 -11092765.010 8
 95  2 19 21  3 30.0000000  0  8 28 18 16 31  2 29 19 27
  24146050.938    -2529948.305 5   3130215.639 4
  21021082.930   -18392466.543 7 -14264734.936 8
  24295350.469    -2921206.161 3  -2147544.638 3
  21835111.172   -14255296.388 6 -10601896.627 7
  22853357.523   -10026365.133 6  -7675676.088 6
  23122112.773      773393.492 6    709044.366 5
  20770952.562   -19264454.921 7 -14936707.164 9
  21743391.562   -14430200.078 6 -11134662.881 8
 95  2 19 21  4  0.0000000  0  8 28 18 16 31  2 29 19 27
  24159683.195    -2458325.590 5   3186025.505 4
  21033615.625   -18326599.748 7 -14213410.181 8
  24291769.305    -2940014.568 3  -2162200.479 1
  21837923.703   -14240502.355 6 -10590368.789 7
  22841708.977   -10087562.390 6  -7723362.211 6
  23141331.133      874392.402 6    787744.728 5
  20771579.500   -19261165.845 7 -14934144.238 9
  21733181.070   -14483860.921 7 -11176476.480 8
 95  2 19 21  4 30.0000000  0  8 28 18 16 31  2 29 19 27
  24173383.961    -2386308.235 4   3242142.895 4
  21046232.586   -18260303.309 7 -14161750.634 8
  24288279.250    -2958366.923 3  -2176500.999 2
  21840854.812   -14225108.581 6 -10578373.630 7
  22830112.148   -10148525.926 6  -7770866.208 6
  23160584.141      975574.450 5    866587.811 5
  20772241.109   -19257687.660 7 -14931433.956 9
  21722987.523   -14537431.408 6 -11218219.683 8
 95  2 19 21  5  0.0000000  0  8 28 18 16 31  2 29 19 27
  24187166.742    -2313888.453 5   3298573.858 4
  21058934.008   -18193554.435 7 -14109738.549 8
  24284876.945    -2976252.832 4  -2190438.002 4
  21843896.641   -14209116.886 6 -10565912.557 7
  22818555.531   -10209257.893 6  -7818189.763 6
  23179878.266     1076960.238 5    945589.630 5
  20772941.109   -19254008.055 7 -14928566.727 9
  21712809.594   -14590911.830 7 -11259892.686 8
 95  2 19 21  5 30.0000000  0  8 28 18 16 31  2 29 19 27
  24201026.086    -2241067.701 5   3355317.265 2
  21071719.953   -18126360.949 7 -14057380.011 8
  24281562.797    -2993670.486 4  -2204010.156 4
  21847051.547   -14192534.118 6 -10552990.902 7
  22807039.609   -10269761.191 6  -7865335.132 6
  23199209.930     1178558.990 5   1024757.374 5
  20773679.711   -19250130.448 7 -14925545.215 9
  21702648.602   -14644308.854 7 -11301500.729 8
 95  2 19 21  6  0.0000000  0  8 28 18 16 31  2 29 19 27
  24214956.445    -2167837.832 5   3412379.508 4
  21084592.484   -18058716.936 7 -14004670.415 8
  24278336.031    -3010600.639 3  -2217202.417 3
  21850322.148   -14175355.830 6 -10539605.208 7
  22795576.594   -10330008.702 6  -7912281.183 6
  23218591.648     1280397.724 5   1104112.166 5
  20774458.984   -19246035.202 7 -14922354.112 9
  21692505.750   -14697610.618 7 -11343034.529 8
 95  2 19 21  6 30.0000000  0  8 28 18 16 31  2 29 19 27
  24228974.500    -2094200.954 5   3469758.862 3
  21097552.453   -17990615.008 7 -13951603.997 8
  24275211.578    -3027029.345 3  -2230003.961 2
  21853704.062   -14157590.317 7 -10525761.941 7
  22784156.898   -10390013.273 6  -7959037.935 6
  23238019.711     1382495.198 5   1183668.549 5
  20775274.484   -19241742.432 7 -14919009.085 9
  21682381.055   -14750817.450 7 -11384494.361 8
 95  2 19 21  7  0.0000000  0  8 28 18 16 31  2 29 19 27
  24243058.562    -2020172.093 5   3527443.658 4
  21110594.977   -17922074.796 7 -13898196.064 8
  24272174.383    -3042968.806 3  -2242424.279 3
  21857193.266   -14139246.209 6 -10511467.818 7
  22772782.211   -10449792.916 6  -8005619.421 6
  23257494.133     1484845.787 5   1263422.164 5
  20776125.258   -19237280.773 7 -14915532.451 9
  21672273.391   -14803925.177 7 -11425876.964 8
 95  2 19 21  7 30.0000000  0  8 28 18 16 31  2 29 19 27
  24257218.867    -1945767.433 5   3585421.275 4
  21123717.180   -17853115.958 7 -13844461.924 8
  24269229.539    -3058444.185 3  -2254482.986 2
  21860793.648   -14120341.210 6 -10496736.636 7
  22761450.953   -10509337.878 6  -8052018.017 6
  23277017.664     1587430.664 5   1343358.343 5
  20777003.344   -19232657.622 7 -14911929.981 8
  21662187.844   -14856929.708 7 -11467179.164 8
 95  2 19 21  8  0.0000000  0  8 28 18 16 31  2 29 19 27
  24271451.086    -1870982.689 5   3643695.059 5
  21136920.766   -17783727.924 7 -13790393.357 8
  24266379.359    -3073446.188 3  -2266172.821 3
  21864492.742   -14100876.221 6 -10481569.116 7
  22750163.141   -10568643.492 6  -8098230.120 6
  23296584.555     1690251.259 5   1423478.169 5
  20777918.742   -19227857.358 7 -14908189.502 9
  21652125.547   -14909814.963 7 -11508388.425 8
 95  2 19 21  8 30.0000000  0  8 28 18 16 31  2 29 19 27
  24285754.320    -1795803.971 5   3702275.835 5
  21150210.859   -17713888.811 7 -13735973.282 8
  24263620.219    -3087951.476 3  -2277475.640 2
  21868308.633   -14080828.400 6 -10465947.426 7
  22738927.508   -10627695.666 6  -8144244.743 6
  23316196.164     1793306.818 5   1503781.131 5
  20778870.539   -19222856.594 7 -14904292.788 9
  21642087.875   -14962561.583 7 -11549489.648 8
 95  2 19 21  9  0.0000000  0  8 28 18 16 31  2 29 19 27
  24300134.828    -1720233.700 4   3761161.700 5
  21163584.477   -17643614.151 7 -13681213.831 8
  24260952.445    -3101957.145 3  -2288389.076 2
  21872238.211   -14060191.607 6 -10449866.807 7
  22727740.859   -10686475.081 6  -8190046.827 6
  23335844.250     1896569.794 5   1584245.689 5
  20779862.883   -19217643.611 7 -14900230.720 9
  21632075.844   -15015172.863 7 -11590485.414 8
 95  2 19 21  9 30.0000000  0  8 28 18 16 31  2 29 19 27
  24314587.492    -1644285.411 5   3820342.152 5
  21177036.180   -17572926.882 7 -13626132.870 8
  24258386.672    -3115452.818 3  -2298905.114 3
  21876273.914   -14038970.051 6 -10433330.516 7
  22716604.125   -10745002.449 6  -8235652.506 6
  23355530.891     2000023.294 5   1664858.728 5
  20780893.594   -19212224.627 7 -14896008.117 9
  21622082.625   -15067688.300 7 -11631406.499 8
 95  2 19 21 10  0.0000000  0  8 28 18 16 31  2 29 19 27
  24329111.828    -1567947.635 5   3879826.084 5
  21190566.461   -17501815.983 7 -13570721.797 8
  24255922.086    -3128401.245 3  -2308994.765 3
  21880432.047   -14017135.783 6 -10416316.794 7
  22705510.562   -10803295.089 6  -8281075.287 6
  23375260.258     2103688.787 5   1745636.913 5
  20781963.547   -19206595.520 7 -14891621.783 9
  21612105.211   -15120110.603 7 -11672255.009 8
 95  2 19 21 10 30.0000000  0  8 28 18 16 31  2 29 19 27
  24343720.305    -1491225.108 5   3939609.840 4
  21204177.516   -17430299.881 7 -13514994.993 8
  24253560.680    -3140808.493 3  -2318662.722 2
  21884703.914   -13994684.490 6 -10398822.267 7
  22694464.086   -10861363.596 6  -8326323.410 6
  23395024.617     2207559.513 5   1826575.045 5
  20783072.805   -19200769.559 7 -14887082.060 9
  21602145.742   -15172453.430 7 -11713041.582 8
 95  2 19 21 11  0.0000000  0  8 28 18 16 31  2 29 19 27
  24358383.047    -1414147.489 5   3999670.303 4
  21217856.102   -17358417.633 7 -13458982.879 8
  24251288.758    -3152717.979 3  -2327942.807 3
  21889087.852   -13971649.723 6 -10380873.078 7
  22683446.531   -10919245.079 6  -8371425.801 6
  23414823.773     2311609.745 5   1907653.065 5
  20784210.938   -19194783.315 7 -14882417.439 9
  21592197.797   -15224741.631 7 -11753785.595 8
 95  2 19 21 11 30.0000000  0  8 28 18 16 31  2 29 19 27
  24373128.219    -1336679.046 5   4060035.308 4
  21231617.594   -17286103.037 7 -13402633.865 8
  24249125.961    -3164107.177 3  -2336817.439 3
  21893585.820   -13948005.233 6 -10362448.784 7
  22672476.656   -10976903.436 6  -8416354.334 6
  23434669.219     2415893.957 5   1988913.400 5
  20785390.992   -19188588.491 7 -14877590.289 9
  21582264.750   -15276925.953 7 -11794448.651 8
 95  2 19 21 12  0.0000000  0  8 28 18 16 31  2 29 19 27
  24387936.883    -1258842.607 5   4120687.084 4
  21245458.297   -17213363.045 7 -13345953.381 8
  24247051.156    -3175016.729 3  -2345318.385 3
  21898195.922   -13923785.899 6 -10343576.549 7
  22661544.688   -11034341.717 6  -8461111.378 6
  23454551.891     2520379.735 5   2070330.821 5
  20786604.930   -19182196.800 7 -14872609.739 9
  21572356.625   -15329007.914 7 -11835031.963 8
 95  2 19 21 12 30.0000000  0  8 28 18 16 31  2 29 19 27
  24402815.000    -1180650.219 5   4181616.214 4
  21259380.156   -17140203.623 7 -13288946.061 8
  24245057.359    -3185478.823 3  -2353470.637 4
  21902906.109   -13899011.634 6 -10324271.907 7
  22650663.281   -11091544.047 6  -8505684.575 6
  23474468.102     2625029.434 5   2151875.927 5
  20787862.016   -19175608.284 7 -14867475.818 8
  21562463.281   -15380983.161 7 -11875532.115 8
 95  2 19 21 13  0.0000000  0  8 28 18 16 31  2 29 19 27
  24417765.258    -1102075.563 5   4242843.215 4
  21273390.203   -17066585.614 7 -13231581.396 8
  24243164.086    -3195457.584 3  -2361246.268 3
  21907732.984   -13873656.962 6 -10304514.996 7
  22639829.820   -11148460.382 6  -8550034.915 6
  23494417.812     2729873.594 5   2233572.571 5
  20789160.008   -19168788.782 7 -14862161.907 9
  21552598.617   -15432821.565 7 -11915925.628 8
 95  2 19 21 13 30.0000000  0  8 28 18 16 31  2 29 19 27
  24432786.906    -1023136.575 4   4304354.106 5
  21287480.594   -16992536.666 7 -13173880.952 8
  24241353.250    -3204961.223 3  -2368651.679 3
  21912666.438   -13847731.951 6 -10284313.673 7
  22629050.484   -11205099.012 6  -8594168.863 6
  23514404.562     2834901.641 5   2315412.513 4
  20790494.844   -19161757.612 7 -14856683.065 9
  21542756.227   -15484551.462 7 -11956234.589 8
 95  2 19 21 14  0.0000000  0  8 28 18 16 31  2 29 19 27
  24447881.148     -943836.872 3   4366146.021 5
  21301645.977   -16918095.807 7 -13115875.123 8
  24239634.945    -3213975.631 3  -2375675.856 3
  21917710.500   -13821221.382 6 -10263656.069 7
  22618322.094   -11261474.455 6  -8638097.727 6
  23534422.164     2940096.491 5   2397382.460 5
  20791873.352   -19154527.434 7 -14851049.150 9
  21532933.477   -15536169.631 7 -11996456.501 8
 95  2 19 21 14 30.0000000  0  8 28 18 16 31  2 29 19 27
  24463040.352     -864172.544 3   4428222.065 5
  21315885.828   -16843264.197 7 -13057564.810 8
  24238019.586    -3222484.746 3  -2382306.312 2
  21922873.750   -13794108.105 6 -10242528.814 7
  22607642.805   -11317584.807 6  -8681820.022 6
  23554473.766     3045474.493 5   2479495.073 5
  20793286.500   -19147098.102 7 -14845260.042 9
  21523133.594   -15587667.553 7 -12036584.709 8
 95  2 19 21 15  0.0000000  0  8 28 18 16 31  2 29 19 27
  24478271.750     -784142.911 4   4490582.790 5
  21330199.406   -16768046.379 7 -12998953.554 8
  24236499.758    -3230465.567 3  -2388525.115 4
  21928145.461   -13766385.346 6 -10220926.647 7
  22597014.977   -11373437.530 6  -8725341.575 6
  23574564.977     3151057.541 5   2561767.451 5
  20794737.531   -19139472.465 7 -14839317.977 9
  21513355.477   -15639049.295 7 -12076622.375 8
 95  2 19 21 15 30.0000000  0  8 28 18 16 31  2 29 19 27
  24493568.680     -703749.065 4   4553227.310 5
  21344586.836   -16692438.538 7 -12940038.382 8
  24235080.156    -3237922.100 3  -2394335.404 4
  21933534.594   -13738053.220 6 -10198849.657 7
  22586432.977   -11429053.079 6  -8768678.311 6
  23594698.867     3256842.683 5   2644197.330 5
  20796226.758   -19131651.201 7 -14833223.480 9
  21503602.125   -15690305.107 7 -12116561.932 8
 95  2 19 21 16  0.0000000  0  8 28 18 16 31  2 29 19 27
  24508932.789     -622997.950 5   4616150.226 5
  21359050.414   -16616427.427 7 -12880808.973 8
  24233760.688    -3244863.969 4  -2399744.629 4
  21939042.211   -13709131.367 6 -10176313.140 7
  22575895.617   -11484434.147 6  -8811832.337 6
  23614864.414     3362822.989 5   2726779.340 4
  20797751.695   -19123629.929 7 -14826973.135 9
  21493872.555   -15741427.730 7 -12156397.703 8
 95  2 19 21 16 30.0000000  0  8 28 18 16 31  2 29 19 27
  24524367.250     -541887.341 5   4679353.275 5
  21373596.625   -16540001.230 7 -12821256.123 8
  24232529.523    -3251300.499 3  -2404760.110 4
  21944657.695   -13679626.459 6 -10153322.298 7
  22565402.312   -11539565.766 6  -8854791.991 6
  23635069.602     3469012.067 5   2809523.972 5
  20799314.758   -19115405.031 7 -14820564.116 9
  21484168.820   -15792430.231 7 -12196139.880 8
 95  2 19 21 17  0.0000000  0  8 28 18 16 31  2 29 19 27
  24539870.984     -460426.604 5   4742829.156 5
  21388214.891   -16463171.503 7 -12761388.834 8
  24231401.578    -3257251.058 3  -2409396.910 2
  21950378.383   -13649556.774 6 -10129891.362 7
  22554956.141   -11594464.521 6  -8897570.188 6
  23655317.125     3575392.066 5   2892417.360 5
  20800918.789   -19106979.894 7 -14813999.052 9
  21474484.594   -15843320.556 7 -12235794.632 8
 95  2 19 21 17 30.0000000  0  8 28 18 16 31  2 29 19 27
  24555433.977     -378629.444 5   4806567.188 4
  21402910.469   -16385947.854 7 -12701214.591 8
  24230355.336    -3262746.651 4  -2413679.166 3
  21956204.156   -13618935.935 6 -10106030.961 7
  22544552.266   -11649136.108 6  -8940171.373 6
  23675592.586     3681941.903 5   2975443.105 5
  20802560.719   -19098356.167 7 -14807279.251 9
  21464821.062   -15894095.749 7 -12275359.677 8
 95  2 19 21 18  0.0000000  0  8 28 18 16 31  2 29 19 27
  24571067.180     -296490.507 5   4870571.543 2
  21417677.773   -16308338.005 7 -12640739.416 8
  24229397.906    -3267773.418 4  -2417596.096 3
  21962141.414   -13587751.276 6 -10081731.217 7
  22534194.016   -11703564.254 6  -8982582.862 6
  23695900.547     3788663.212 5   3058602.448 5
  20804242.930   -19089511.361 7 -14800387.194 9
  21455182.773   -15944745.063 7 -12314826.634 8
 95  2 19 21 18 30.0000000  0  8 28 18 16 31  2 29 19 27
  24586761.148     -214008.050 4   4934843.586 3
  21432521.703   -16230337.617 7 -12579959.919 8
  24228534.406    -3272318.870 3  -2421137.980 4
  21968182.773   -13555989.055 7 -10056981.437 7
  22523882.641   -11757755.605 6  -9024809.843 6
  23716241.156     3895549.966 5   3141890.749 4
  20805969.820   -19080446.523 7 -14793323.679 9
  21445569.141   -15995270.083 7 -12354196.750 8
 95  2 19 21 19  0.0000000  0  8 28 18 16 31  2 29 19 27
  24602521.641     -131177.688 3   4999386.689 3
  21447441.023   -16151934.128 7 -12518866.329 8
  24227763.383    -3276370.842 4  -2424295.332 4
  21974338.141   -13523645.251 7 -10031778.459 7
  22513616.008   -11811710.012 6  -9066852.179 6
  23736610.914     4002601.459 5   3225307.395 5
  20807737.805   -19071156.014 7 -14786084.304 9
  21435980.125   -16045655.962 7 -12393458.442 9
 95  2 19 21 19 30.0000000  0  8 28 18 16 31  2 29 19 27
  24618350.734      -48009.194 3   5064193.249 1
  21462437.539   -16073132.154 7 -12457462.233 8
  24227083.656    -3279934.204 3  -2427071.966 3
  21980604.211   -13490727.072 7 -10006127.927 7
  22503393.328   -11865429.273 6  -9108711.294 7
  23757012.914     4109815.888 5   3308850.980 5
  20809545.695   -19061649.046 7 -14778676.265 9
  21426416.883   -16095915.982 7 -12432622.057 9
 95  2 19 21 20  0.0000000  0  8 28 18 16 31  2 29 19 27
  24634242.297       35505.377 4   5129269.531 2
  21477510.055   -15993921.757 7 -12395739.879 8
  24226504.664    -3282990.651 4  -2429453.585 2
  21986976.734   -13457228.234 6  -9980024.934 7
  22493215.398   -11918910.948 6  -9150385.272 7
  23777448.211     4217194.753 5   3392522.715 5
  20811397.711   -19051921.873 7 -14771096.642 9
  21416874.383   -16146057.195 7 -12471693.099 9
 95  2 19 21 20 30.0000000  0  8 28 18 16 31  2 29 19 27
  24650201.312      119353.922 5   5194606.053 3
  21492660.734   -15914304.996 7 -12333700.876 8
  24226017.977    -3285552.958 4  -2431450.143 4
  21993459.141   -13423163.181 6  -9953480.739 7
  22483083.539   -11972155.604 6  -9191874.577 7
  23797911.836     4324728.035 5   3476314.787 5
  20813286.883   -19042001.223 7 -14763366.256 9
  21407350.859   -16196090.817 7 -12510680.295 9
 95  2 19 21 21  0.0000000  0  8 28 18 16 31  2 29 19 27
  24666220.078      203524.155 5   5260193.215 4
  21507885.062   -15834298.971 7 -12271358.547 8
  24225621.336    -3287631.080 4  -2433069.447 3
  22000046.773   -13388542.925 6  -9926503.914 7
  22472998.055   -12025162.138 6  -9233178.317 6
  23818402.328     4432416.163 5   3560227.512 5
  20815210.906   -19031884.499 7 -14755483.087 8
  21397853.539   -16246007.851 7 -12549576.646 9
 95  2 19 21 21 30.0000000  0  8 28 18 16 31  2 29 19 27
  24682296.484      288020.109 5   5326034.194 3
  21523184.070   -15753905.291 7 -12208714.151 8
  24225315.516    -3289217.695 3  -2434305.752 5
  22006746.859   -13353348.572 6  -9899079.729 7
  22462956.133   -12077920.007 6  -9274288.305 7
  23838923.758     4540269.876 5   3644269.252 5
  20817177.875   -19021546.337 7 -14747427.373 9
  21388383.109   -16295785.632 7 -12588364.494 8
 95  2 19 21 22  0.0000000  0  8 28 18 16 31  2 29 19 27
  24698432.188      372835.731 5   5392124.279 2
  21538554.016   -15673136.726 7 -12145777.644 8
  24225112.414    -3290314.524 4  -2435160.391 4
  22013552.125   -13317575.750 6  -9871204.794 7
  22452965.289   -12130429.888 6  -9315205.040 6
  23859481.688     4648282.172 5   3728434.563 5
  20819187.211   -19010984.302 7 -14739197.208 9
  21378938.797   -16345408.709 7 -12627031.791 8
 95  2 19 21 22 30.0000000  0  8 28 18 16 31  2 29 19 27
  24714640.352      457994.893 4   5458482.038 3
  21553999.703   -15591976.026 7 -12082535.583 8
  24224996.828    -3290898.861 4  -2435615.709 2
  22020472.531   -13281205.011 6  -9842863.943 7
  22443028.211   -12182659.074 6  -9355903.068 7
  23880074.023     4756497.209 5   3812757.899 4
  20821245.891   -19000164.883 7 -14730766.481 9
  21369531.500   -16394845.731 7 -12665554.112 8
 95  2 19 21 23  0.0000000  0  8 28 18 16 31  2 29 19 27
  24730906.961      543502.886 3   5525111.634 2
  21569516.695   -15510427.298 7 -12018991.143 8
  24224982.531    -3290978.647 3
  22027510.344   -13244223.909 6  -9814047.493 7
  22433141.914   -12234610.209 6  -9396384.411 6
  23900703.172     4864914.586 5   3897238.846 4
  20823357.781   -18989068.594 7 -14722120.016 9
  21360160.750   -16444084.077 7 -12703921.619 8
 95  2 19 21 23 30.0000000  0  8 28 18 16 31  2 29 19 27
  24747241.328      629333.951 3   5591992.933 2
  21585104.484   -15428511.352 7 -11955160.575 8
  24225058.742    -3290583.717 3
  22034658.078   -13206663.282 6  -9784779.462 7
  22423299.789   -12286310.694 6  -9436670.460 7
  23921361.250     4973477.855 5   3981833.486 3
  20825515.766   -18977732.818 7 -14713286.935 9
  21350822.281   -16493166.216 7 -12742167.408 8
 95  2 19 21 24  0.0000000  0  8 28 18 16 31  2 29 19 27
  24763637.266      715474.539 3   5659115.438 1
  21600761.594   -15346232.802 7 -11891047.445 8
  24225222.750    -3289722.529 3  -2434698.993 4
  22041911.438   -13168552.821 6  -9755082.996 7
  22413511.320   -12337767.763 6  -9476766.814 7
  23942046.742     5082164.089 5   4066523.960 4
  20827709.797   -18966196.539 7 -14704297.614 9
  21341504.438   -16542127.537 7 -12780319.056 8
 95  2 19 21 24 30.0000000  0  8 28 18 16 31  2 29 19 27
  24780090.367      801929.421 3   5726482.859 2
  21616491.242   -15263579.747 7 -11826642.509 7
  24225476.195    -3288375.327 3  -2433649.208 4
  22049265.766   -13129892.530 6  -9724958.071 7
  22403763.680   -12388982.100 6  -9516674.026 7
  23962751.766     5190974.354 5   4151311.083 4
  20829942.031   -18954473.878 7 -14695163.067 9
  21332210.055   -16590972.540 7 -12818380.059 8
 95  2 19 21 25  0.0000000  0  8 28 18 16 31  2 29 19 27
  24796600.750      888689.143 4   5794087.787 2
  21632287.656   -15180556.276 6 -11761948.930 7
  24225827.438    -3286543.589 4  -2432221.881 4
  22056728.570   -13090683.289 6  -9694405.389 7
  22394062.805   -12439964.210 6  -9556400.261 7
  23983479.953     5299886.453 5   4236177.553 3
  20832203.719   -18942583.549 7 -14685897.863 9
  21322937.766   -16639699.302 7 -12856348.936 8
 95  2 19 21 25 30.0000000  0  8 28 18 16 31  2 29 19 27
  24813173.398      975769.985 5   5861943.006 2
  21648163.711   -15097134.969 7 -11696945.345 7
  24226273.117    -3284197.364 4  -2430393.611 3
  22064293.133   -13050927.835 6  -9663427.104 7
  22384408.352   -12490691.951 6  -9595928.332 7
  24004227.484     5408936.019 5   4321151.132 3
  20834499.109   -18930520.888 7 -14676498.380 9
  21313690.648   -16688298.936 7 -12894218.737 9
 95  2 19 21 26  0.0000000  0  8 28 18 16 31  2 29 19 27
  24829802.047     1063151.278 5   5930032.294 3
  21664106.172   -15013353.885 7 -11631661.410 7
  24226814.680    -3281359.422 5  -2428182.183 3
  22071959.039   -13010634.757 6  -9632029.880 7
  22374801.867   -12541191.217 6  -9635278.351 7
  24025010.617     5518135.067 4   4406241.170 4
  20836826.695   -18918295.209 7 -14666971.865 9
  21304462.484   -16736780.433 7 -12931996.479 9
 95  2 19 21 26 30.0000000  0  7 18 16 31  2 29 19 27
  21680118.672   -14929213.989 7 -11566097.896 8
  24227443.398    -3278034.577 4  -2425591.375 4
  22079738.312   -12969781.012 6  -9600195.768 7
  22365236.594   -12591453.882 6  -9674444.016 7
  24045817.898     5627489.006 5   4491451.932 4
  20839187.664   -18905875.586 7 -14657294.217 9
  21295262.359   -16785120.792 7 -12969664.246 8
 95  2 19 21 27  0.0000000  0  7 18 16 31  2 29 19 27
  21696198.789   -14844711.772 7 -11500252.050 7
  24228169.258    -3274238.978 4  -2422633.718 4
  22087616.438   -12928356.682 6  -9567917.065 7
  22355719.289   -12641463.257 6  -9713412.312 7
  24066659.133     5737002.730 4   4576787.179 3
  20841595.672   -18893227.883 7 -14647438.851 9
  21286094.156   -16833313.489 7 -13007216.961 8
 95  2 19 21 27 30.0000000  0  7 18 16 31  2 29 19 27
  21712346.148   -14759849.906 7 -11434125.948 7
  24228979.930    -3269980.455 4  -2419315.391 5
  22095609.297   -12886357.435 6  -9535190.364 7
  22346248.422   -12691220.045 6  -9752183.796 7
  24087527.719     5846669.148 4   4662241.457 3
  20844048.750   -18880344.116 7 -14637399.546 9
  21276951.133   -16881365.888 7 -13044660.333 8
 95  2 19 21 28  0.0000000  0  7 18 16 31  2 29 19 27
  21728562.727   -14674632.788 7 -11367723.039 7
  24229880.961    -3265252.689 4  -2415631.397 4
  22103714.828   -12843759.392 6  -9501997.067 7
  22336829.281   -12740720.890 6  -9790755.833 7
  24108422.117     5956470.602 4   4747800.914 4
  20846547.352   -18867200.080 7 -14627157.433 8
  21267833.875   -16929274.459 7 -13081991.640 9
 95  2 19 21 28 30.0000000  0  7 18 16 31  2 29 19 27
  21744852.617   -14589031.340 6 -11301020.646 7
  24230872.133    -3260036.867 4  -2411567.096 5
  22111936.719   -12800570.209 6  -9468343.144 7
  22327461.344   -12789949.870 6  -9829116.042 7
  24129336.820     6066399.033 4   4833459.329 3
  20849099.070   -18853789.976 7 -14616707.989 9
  21258746.797   -16977023.313 7 -13119198.509 9
 95  2 19 21 29  0.0000000  0  7 18 16 31  2 29 19 27
  21761213.688   -14503051.792 7 -11234023.623 7
  24231955.070    -3254342.055 4  -2407129.562 4
  22120260.391   -12756816.820 6  -9434249.584 7
  22318140.297   -12838936.997 6  -9867287.796 7
  24150280.055     6176446.073 4   4919210.140 5
  20851698.789   -18840138.081 7 -14606070.132 9
  21249689.945   -17024614.852 7 -13156282.782 9
 95  2 19 21 29 30.0000000  0  7 18 16 31  2 29 19 27
  21777648.727   -14416687.416 6 -11166726.747 8
  24233133.477    -3248150.970 4  -2402305.293 3
  22128691.781   -12712506.981 6  -9399722.420 7
  22308864.508   -12887686.337 6  -9905274.259 7
  24171248.086     6286612.713 5   5005054.168 4
  20854340.984   -18826253.409 7 -14595250.898 9
  21240666.555   -17072032.163 7 -13193231.291 9
 95  2 19 21 30  0.0000000  0  7 18 16 31  2 29 19 27
  21794155.750   -14329949.441 7 -11099138.746 8
  24234404.938    -3241463.386 3  -2397094.177 4
  22137226.820   -12667660.714 6  -9364777.274 7
  22299630.539   -12936211.341 6  -9943085.913 7
  24192232.297     6396885.037 3   5090980.578 4
  20857026.242   -18812141.217 7 -14584254.370 9
  21231675.672   -17119274.785 7 -13230043.690 9
 95  2 19 21 30 30.0000000  0  7 18 16 31  2 29 19 27
  21810732.055   -14242840.954 6 -11031262.039 8
  24235774.086    -3234281.563 3  -2391497.933 4
  22145860.695   -12622284.344 6  -9329419.066 7
  22290439.375   -12984511.387 6  -9980722.270 7
  24213236.641     6507274.727 3   5176998.391 3
  20859753.828   -18797811.497 7 -14573088.348 8
  21222723.023   -17166329.514 7 -13266709.674 9
 95  2 19 21 31  0.0000000  0  7 18 16 31  2 29 19 27
  21827371.039   -14155392.366 6 -10963120.333 7
  24237231.805    -3226617.721 4  -2385526.123 2
  22154596.039   -12576382.573 6  -9293651.448 7
  22281288.750   -13032587.395 6 -10018184.051 7
  24234265.898     6617777.420 4   5263104.235 4
  20862521.906   -18783263.079 7 -14561751.912 9
  21213801.000   -17213219.807 7 -13303247.537 9
 95  2 19 21 31 30.0000000  0  7 18 16 31  2 29 19 27
  21844073.430   -14067629.371 6 -10894733.621 7
  24238782.578    -3218476.212 4  -2379182.068 4
  22163430.906   -12529964.798 6  -9257481.747 7
  22272185.094   -13080429.743 6 -10055463.756 7
  24255313.312     6728384.576 5   5349291.557 3
  20865331.578   -18768496.214 7 -14550245.242 9
  21204900.898   -17259984.541 7 -13339687.555 9
 95  2 19 21 32  0.0000000  0  7 18 16 31  2 29 19 27
  21860830.945   -13979567.885 7 -10826114.311 7
  24240416.906    -3209863.078 4  -2372470.520 4
  22172363.633   -12483022.899 6  -9220903.620 7
  22263130.398   -13128025.328 6 -10092551.178 7
  24276381.289     6839112.116 4   5435572.653 4
  20868183.945   -18753502.465 7 -14538561.788 9
  21196023.617   -17306631.674 7 -13376035.937 9
 95  2 19 21 32 30.0000000  0  7 18 16 31  2 29 19 27
  21877646.086   -13891207.026 7 -10757261.733 7
  24242146.797    -3200797.839 3  -2365406.687 2
  22181395.922   -12435554.869 6  -9183915.535 7
  22254117.906   -13175366.329 6 -10129440.210 7
  24297480.586     6949973.419 4   5521957.951 4
  20871077.398   -18738293.680 7 -14526710.771 9
  21187170.234   -17353159.006 7 -13412290.968 9
 95  2 19 21 33  0.0000000  0  7 18 16 31  2 29 19 27
  21894520.969   -13802525.161 6 -10688159.018 7
  24243960.141    -3191267.221 3  -2357980.237 4
  22190532.234   -12387548.011 6  -9146507.581 7
  22245163.773   -13222441.788 6 -10166122.332 7
  24318601.766     7060976.512 3   5608453.739 3
  20874016.812   -18722857.543 7 -14514682.600 9
  21178341.680   -17399556.020 7 -13448444.464 9
 95  2 19 21 33 30.0000000  0  7 18 16 31  2 29 19 27
  21911457.875   -13713518.653 6 -10618803.334 7
  24245855.484    -3181279.197 3  -2350197.337 3
  22199769.914   -12338989.257 6  -9108669.587 7
  22236250.508   -13269263.021 6 -10202606.357 7
  24339751.469     7172109.647 4   5695050.884 2
  20876995.234   -18707206.904 7 -14502487.290 9
  21169540.477   -17445805.237 7 -13484482.794 9
 95  2 19 21 34  0.0000000  0  7 18 16 31  2 29 19 27
  21928461.711   -13624162.577 6 -10549175.263 7
  24247852.172    -3170822.194 4  -2342049.032 5
  22209121.000   -12289852.645 6  -9070381.308 7
  22227388.961   -13315828.000 6 -10238890.692 7
  24360924.102     7283374.104 4   5781750.393 1
  20880014.250   -18691324.066 7 -14490111.032 8
  21160780.703   -17491853.234 7 -13520364.325 9
 95  2 19 21 34 30.0000000  0  7 18 16 31  2 29 19 27
  21945529.438   -13534476.252 6 -10479289.858 7
  24249921.461    -3159920.903 3  -2333554.534 3
  22218575.922   -12240171.336 6  -9031668.598 7
  22218572.344   -13362179.744 6 -10275008.881 7
  24382111.094     7394706.420 4   5868502.749 2
  20883077.961   -18675239.280 7 -14477577.417 9
  21152045.703   -17537740.196 7 -13556120.379 9
 95  2 19 21 35  0.0000000  0  7 18 16 31  2 29 19 27
  21962658.211   -13444451.139 6 -10409140.457 7
  24252086.812    -3148548.726 3  -2324693.096 4
  22228136.055   -12189936.159 6  -8992524.307 7
  22209795.516   -13408297.041 6 -10310944.381 7
  24403308.305     7506108.672 4   5955309.580 2
  20886182.172   -18658922.556 7 -14464863.084 9
  21143343.734   -17583462.490 7 -13591748.116 9
 95  2 19 21 35 30.0000000  0  7 18 16 31  2 29 19 27
  21979856.430   -13354079.159 6 -10338720.767 7
  24254343.258    -3136700.742 3  -2315460.910 4
  22237799.797   -12139147.399 6  -8952948.659 7
  22201064.852   -13454165.560 6 -10346686.042 7
  24424522.164     7617588.556 3   6042176.908 2
  20889335.938   -18642353.501 7 -14451952.120 8
  21134678.633   -17629007.291 7 -13627237.547 9
 95  2 19 21 36  0.0000000  0  7 18 16 31  2 29 19 27
  21997117.273   -13263374.474 6 -10268041.834 7
  24256678.461    -3124402.974 3  -2305878.260 4
  22247560.023   -12087847.673 6  -8912974.848 7
  22192378.273   -13499808.478 6
  24445747.500     7729126.871 3   6129089.746 4
  20892536.188   -18625544.413 7 -14438854.120 9
  21126039.984   -17674409.743 7
 95  2 19 21 36 30.0000000  0  7 18 16 31  2 29 19 27
  22014435.977   -13172360.110 6 -10197121.578 6
  24259100.367    -3111667.337 3  -2295954.354 3
  22257417.281   -12036059.801 6  -8872620.675 7
  22183736.164   -13545226.798 6
  24466983.406     7840730.625 3   6216053.543 2
  20895773.961   -18608514.735 7 -14425584.241 9
  21117419.945   -17719704.917 7
 95  2 19 21 37  0.0000000  0  7 18 16 31  2 29 19 27
  22031812.320   -13081049.861 6 -10125970.767 6
  24261609.438    -3098499.059 3  -2285693.355 4
  22267362.570   -11983784.617 6  -8831886.779 7
  22175138.289          -0.32716
  24488241.875     7952423.962 4   6303087.259 2
  20899056.406   -18591267.728 7 -14412145.006 9
  21108824.930   -17764872.441 7
 95  2 19 21 37 30.0000000  0  7 18 16 31  2 29 19 27
  22049249.508   -12989423.275 6 -10054573.467 6
  24264203.891    -3084874.415 3  -2275076.748 2
  22277411.188   -11930988.218 6  -8790746.744 7
  22166584.016      -44950.432 6
  24509513.656     8064232.902 3   6390211.032 1
  20902383.906   -18573778.519 7 -14398517.036 8
  21100259.844   -17809874.261 7
 95  2 19 21 38  0.0000000  0  7 18 16 31  2 29 19 27
  22066743.680   -12897488.983 6  -9982936.382 6
  24266888.320    -3070775.776 3  -2264090.771 4
  22287560.969   -11877652.758 6  -8749186.677 7
  22158075.766      -89652.378 6
  24530816.281     8176154.322 3   6477422.400 2
  20905757.688   -18556051.951 7 -14384704.129 8
  21091730.078   -17854703.046 7
 95  2 19 21 38 30.0000000  0  7 18 16 31  2 29 19 27
  22084290.148   -12805279.098 6  -9911084.549 6
  24269652.445    -3056217.811 3  -2252746.932 4
  22297809.047   -11823793.434 6  -8707218.389 6
  22149612.570     -134115.907 6        -0.45517
  24552128.508     8288154.876 3   6564695.419 3
  20909172.484   -18538110.699 7 -14370723.938 8
  21083232.695   -17899358.013 7 -13837900.299 9
 95  2 19 21 39  0.0000000  0  7 18 16 31  2 29 19 27
  22101890.219   -12712791.666 6  -9839016.444 6
  24272516.422    -3041210.707 3  -2241053.080 2
  22308157.320   -11769413.321 6  -8664844.295 6
  22141198.922     -178349.169 6    -34467.880 7
  24573449.266     8400198.499 3   6652001.974 2
  20912627.742   -18519948.972 7 -14356571.928 9
  21074770.094   -17943820.975 7 -13872546.747 9
 95  2 19 21 39 30.0000000  0  7 18 16 31  2 29 19 27
  22119544.383   -12620015.554 6  -9766723.393 6
  24275455.352    -3025754.061 3  -2229008.942 2
  22318602.852   -11714514.068 6  -8622065.656 6
  22132826.047     -222361.369 6    -68763.058 7
  24594772.336     8512257.529 3   6739320.591 4
  20916126.461   -18501564.608 7 -14342246.444 9
  21066344.789   -17988099.305 7 -13907049.318 9
 95  2 19 21 40  0.0000000  0  7 18 16 31  2 29 19 27
  22137263.055   -12526906.861 6  -9694171.195 6
  24278482.914    -3009823.802 3  -2216595.734 4
  22329152.945   -11659080.010 6  -8578870.295 6
  22124496.758     -266126.819 6   -102865.965 7
  24616101.305     8624354.819 3   6826668.999 4
  20919671.617   -18482935.026 7 -14327729.879 9
  21057958.422   -18032170.733 7 -13941390.660 9
 95  2 19 21 40 30.0000000  0  7 18 16 31  2 29 19 27
  22155043.875   -12433467.004 6  -9621360.958 6
  24281595.352    -2993449.504 3  -2203836.541 2
  22339799.102   -11603132.395 6  -8535274.755 6
  22116209.695     -309665.869 6   -136792.461 7
  24637444.125     8736494.211 3   6914050.219 1
  20923266.812   -18464055.888 7 -14313018.852 9
  21049609.469   -18076050.673 7 -13975582.801 9
 95  2 19 21 41  0.0000000  0  7 18 16 31  2 29 19 27
  22172886.180   -12339708.464 6  -9548302.391 6
  24284799.414    -2976637.988 3  -2190736.671 2
  22350542.164   -11546681.216 6  -8491286.833 6
  22107963.500     -352998.199 6   -170557.868 7
  24658792.094     8848684.126 3   7001470.833 2
  20926901.289   -18444934.335 7 -14298118.941 8
  21041288.891   -18119767.070 7 -14009647.496 9
 95  2 19 21 41 30.0000000  0  7 18 16 31  2 29 19 27
  22190790.250   -12245610.483 6  -9474979.316 6
  24288085.500    -2959365.188 3  -2177277.387 2
  22361384.711   -11489705.521 6  -8446890.185 6
  22099762.555     -396106.652 6   -204148.829 7
  24680165.766     8960980.232 3   7088974.182 1
  20930590.570   -18425556.414 7 -14283019.257 8
  21033001.102   -18163311.143 7 -14043577.909 9
 95  2 19 21 42  0.0000000  0  7 18 16 31  2 29 19 27
  22208754.297   -12151213.161 6  -9401422.999 7
  24291453.703    -2941670.915 3  -2163489.639 3
  22372319.000   -11432240.147 6  -8402111.968 6
  22091598.062     -439007.014 6   -237577.646 7
  24701553.570     9073378.576 2   7176557.203 2
  20934322.711   -18405949.094 7 -14267740.815 9
  21024743.789   -18206716.397 7 -14077400.167 9
 95  2 19 21 42 30.0000000  0  8  7 18 16 31  2 29 19 27
  24621639.453     -106115.292 3
  22226770.188   -12056547.029 6  -9327657.217 6
  24294905.594    -2923548.783 3  -2149368.524 2
  22383347.086   -11374286.532 6  -8356953.310 6
  22083473.422     -481700.189 7   -270845.013 8
  24722959.523     9185884.661 3   7264224.136 2
  20938098.289   -18386109.694 7 -14252281.544 9
  21016513.281   -18249971.938 7 -14111105.744 9
 95  2 19 21 43  0.0000000  0  8  7 18 16 31  2 29 19 27
  24601438.055     -212265.117 3        -0.45413
  22244837.836   -11961605.727 6  -9253677.023 7
  24298432.891    -2904971.486 3  -2134892.648 1
  22394469.242   -11315837.166 6  -8311408.349 6
  22075394.648     -524160.674 6   -303931.071 8
  24744388.328     9298488.163 4   7351966.973 2
  20941916.289   -18366042.963 7 -14236645.117 9
  21008308.953   -18293069.054 7 -14144687.882 9
 95  2 19 21 43 30.0000000  0  8  7 18 16 31  2 29 19 27
  24581236.250     -318427.913 3    -82724.495 2
  22262963.117   -11866350.796 6  -9179452.437 7
  24302063.758    -2885912.010 3  -2120041.103 1
  22405688.672   -11256875.822 6  -8265464.450 6
  22067360.445     -566355.350 6   -336809.999 8
  24765840.680     9411207.504 4   7439800.070 1
  20945782.516   -18345723.025 7 -14220811.402 9
  21000147.062   -18335971.544 7 -14178118.370 9
 95  2 19 21 44  0.0000000  0  8  7 18 16 31  2 29 19 27
  24561031.656     -424599.305 3   -165455.259 2
  22281145.672   -11770798.111 6  -9104995.843 7
  24305788.781    -2866368.333 3  -2104812.290 2
  22417005.969   -11197408.386 6  -8219126.176 6
  22059390.078     -608266.038 7   -369467.641 8
  24787310.336     9524023.945 4   7527708.870 1
  20949699.062   -18325144.891 7 -14204776.489 8
  20992019.930   -18378667.955 7 -14211388.271 9
 95  2 19 21 44 30.0000000  0  7  7 18 16 31  2 19 27
  24540824.906     -530774.055 2   -248188.565 1
  22299380.086   -11674973.086 6  -9030327.031 7
  24309594.617    -2846348.395 3  -2089212.329 1
  22428415.852   -11137450.048 6  -8172405.401 6
  22051463.164     -649902.852 7   -401911.874 7
  20953658.672   -18304334.720 7 -14188560.775 9
  20983937.750   -18421161.641 7 -14244500.210 9
 95  2 19 21 45  0.0000000  0  7  7 18 16 31  2 19 27
  24520625.977     -636944.825 3   -330918.835 1
  22317667.234   -11578872.145 6  -8955443.220 7
  24313491.852    -2825877.351 3  -2073260.893 3
  22439916.211   -11077011.072 6  -8125310.090 6
  22043592.906     -691274.945 7   -434149.844 7
  20957659.922   -18283301.191 7 -14172171.009 9
  20975885.203   -18463464.901 7 -14277463.771 9
 95  2 19 21 45 30.0000000  0  7  7 18 16 31  2 19 27
  24500427.461     -743097.139 3   -413634.742 2
  22336006.164   -11482510.305 6  -8880356.115 7
  24317463.188    -2804991.410 3  -2056986.160 3
  22451508.289   -11016091.911 6  -8077840.623 6
  22035765.602     -732403.990 7   -466198.404 7
  20961707.539   -18262039.468 7 -14155603.426 9
  20967873.570   -18505565.496 7 -14310269.402 9
 95  2 19 21 46  0.0000000  0  7  7 18 16 31  2 19 27
  24480229.375     -849231.650 3   -496336.809 1
  22354388.781   -11385905.413 6  -8805079.620 6
  24321515.680    -2783700.367 3
  22463197.180   -10954675.227 6  -8029983.487 7
  22027982.531     -773296.285 7   -498062.496 8
  20965797.742   -18240539.167 7
  20959904.484   -18547456.166 7 -14342911.453 9
 95  2 19 21 46 30.0000000  0  7  7 18 16 31  2 19 27
  24460038.703     -955353.456 3   -579028.931 2
  22372819.500   -11289045.155 6  -8729604.138 7
  24325636.492    -2762016.560 3
  22474977.836   -10892757.829 6  -7981736.176 7
  22020243.094     -813980.573 7   -529764.498 8
  20969937.742   -18218792.049 7
  20951970.391   -18589136.482 7 -14375389.601 9
 95  2 19 21 47  0.0000000  0  7  7 18 16 31  2 19 27
  24439847.484    -1061457.738 3   -661707.401 2
  22391308.117   -11191896.379 6  -8653903.833 6
  24329840.430    -2739927.329 3
  22486862.648   -10830316.822 6  -7933080.855 7
  22012541.133     -854446.894 7   -561296.657 8
  20974128.773   -18196759.081 7
  20944082.711   -18630589.148 7 -14407690.367 9
 95  2 19 21 47 30.0000000  0  7  7 18 16 31  2 19 27
  24419655.367    -1167549.013 3   -744375.743 2
  22409849.781   -11094455.566 6  -8577975.954 6
  24334128.648    -2717418.085 3        -0.20412
  22498844.414   -10767346.586 6  -7884013.157 7
  22004885.914     -894675.767 7   -592643.783 8
  20978375.945   -18174439.334 7 -14087343.555 9
  20936239.352   -18671817.140 7 -14439816.052 9
 95  2 19 21 48  0.0000000  0  7  7 18 16 31  2 19 27
  24399470.820    -1273615.578 3   -827024.861 2
  22428447.375   -10996713.260 6  -8501813.155 6
  24338499.914    -2694462.229 3     17887.461 3
  22510928.320   -10703847.414 6  -7834533.293 7
  21997281.164     -934640.340 7   -623784.960 8
  20982679.070   -18151829.648 7 -14069725.597 9
  20928433.117   -18712821.822 7 -14471767.736 9
 95  2 19 21 48 30.0000000  0  7  7 18 16 31  2 19 27
  24379292.703    -1379636.435 3   -909638.338 2
  22447110.000   -10898646.863 6  -8425397.824 6
  24342949.609    -2671047.648 3     36132.557 3
  22523111.852   -10639828.673 6  -7784648.587 7
  21989730.391     -974319.787 7   -654703.963 8
  20987038.203   -18128927.447 7 -14051879.726 9
  20920674.773   -18753600.045 7 -14503542.950 9
 95  2 19 21 49  0.0000000  0  7  7 18 16 31  2 19 27
  24359120.570    -1485638.514 3   -992237.226 1
  22465826.109   -10800290.089 6  -8348756.222 6
  24347490.844    -2647198.457 4     54716.337 2
  22535383.148   -10575335.969 6  -7734394.538 7
  21982229.703    -1013728.797 7   -685412.242 8
  20991441.742   -18105782.855 7 -14033844.980 8
  20912950.750   -18794191.890 7 -14535172.941 9
 95  2 19 21 49 30.0000000  0  7  7 18 16 31  2 19 27
  24338962.188    -1591602.502 3  -1074806.378 1
  22484599.180   -10701647.826 6  -8271892.161 6
  24352107.031    -2622913.762 4     73639.431 1
  22547743.688   -10510383.111 6  -7683781.951 7
  21974781.125    -1052868.162 7   -715910.400 8
  20995890.133   -18082401.860 7 -14015626.028 9
  20905261.297   -18834602.805 7 -14566661.943 9
 95  2 19 21 50  0.0000000  0  7  7 18 16 31  2 19 27
  24318800.664    -1697532.901 3  -1157349.400 1
  22503420.398   -10602740.519 6  -8194821.573 6
  24356812.828    -2598210.675 3     92888.626 1
  22560187.344   -10444981.482 6  -7632819.666 6
  21967380.102    -1091774.136 7   -746226.713 8
  21000383.391   -18058793.577 7 -13997229.962 8
  20897604.883   -18874832.530 7 -14598009.770 9
 95  2 19 21 50 30.0000000  0  7  7 18 16 31  2 19 27
  24298649.211    -1803428.447 3  -1239865.242 2
  22522291.492   -10503567.193 6  -8117543.699 6
  24361598.062    -2573075.344 3    112474.591 2
  22572722.578   -10379118.657 6  -7581498.002 6
  21960019.266    -1130455.552 6   -776368.040 8
  21004920.508   -18034949.644 7 -13978650.272 8
  20889984.898   -18914869.570 7 -14629207.434 9
 95  2 19 21 51  0.0000000  0  7  7 18 16 31  2 19 27
  24278504.805    -1909290.641 3  -1322355.102 2
  22541213.102   -10404146.350 6  -8040072.957 6
  24366462.414    -2547500.358 3    132403.107 2
  22585344.617   -10312782.821 6  -7529807.760 6
  21952702.188    -1168908.536 7   -806331.356 8
  21009503.289   -18010865.854 7 -13959883.686 9
  20882404.891   -18954701.096 7 -14660244.973 9
 95  2 19 21 51 30.0000000  0  7  7 18 16 31  2 19 27
  24258370.289    -2015112.620 3  -1404813.623 1
  22560175.914   -10304487.378 6  -7962416.660 6
  24371414.773    -2521489.131 3    152671.608 2
  22598062.344   -10245957.818 6  -7477736.361 6
  21945429.453    -1207135.267 7   -836118.391 8
  21014135.914   -17986519.272 7 -13940912.319 9
  20874867.773   -18994311.276 7 -14691110.031 9
 95  2 19 21 52  0.0000000  0  7  7 18 16 31  2 19 27
  24238237.602    -2120901.557 3  -1487246.399 2
  22579185.492   -10204590.791 6  -7884575.212 6
  24376446.828    -2495040.572 3    173280.884 2
  22610871.078   -10178636.454 6  -7425278.190 6
  21938196.250    -1245131.007 7   -865725.428 8
  21018821.047   -17961901.767 7 -13921729.852 9
  20867375.016   -19033685.263 7 -14721791.038 9
 95  2 19 21 52 30.0000000  0  7  7 18 16 31  2 19 27
  24218111.070    -2226657.845 3  -1569653.708 3
  22598239.906   -10104454.948 6  -7806547.325 6
  24381562.680    -2468154.077 3    194231.385 2
  22623773.656   -10110837.230 6  -7372447.635 6
  21931012.094    -1282875.248 6   -895136.481 8
  21023558.055   -17937009.280 7 -13902333.117 8
  20859930.141   -19072820.516 7 -14752286.014 9
 95  2 19 21 53  0.0000000  0  7  7 18 16 31  2 19 27
  24197992.055    -2332385.503 4  -1652038.733 2
  22617343.164   -10004073.162 6  -7728327.792 6
  24386759.555    -2440854.781 3    215503.522 2
  22636761.047   -10042586.559 6  -7319265.308 6
  21923874.727    -1320377.215 6   -924358.750 8
  21028346.930   -17911840.621 7 -13882721.192 8
  20852526.148   -19111728.416 7 -14782603.840 9
 95  2 19 21 53 30.0000000  0  7  7 18 16 31  2 19 27
  24177878.852    -2438073.111 4  -1734392.553 4
  22636495.898    -9903426.130 6  -7649901.584 6
  24392025.367    -2413145.397 3    237095.255 1
  22649834.938    -9973885.803 6  -7265732.261 6
  21916782.219    -1357648.867 7   -953401.567 8
  21033193.008   -17886379.616 7 -13862881.454 8
  20845166.039   -19150407.418 7 -14812743.304 9
 95  2 19 21 54  0.0000000  0  7  7 18 16 31  2 19 27
  24157778.711    -2543712.914 4  -1816709.115 2
  22655698.094    -9802514.892 6  -7571269.506 6
  24397381.273    -2385021.321 3    259010.075 2
  22662991.422    -9904742.911 6  -7211854.694 6
  21909733.430    -1394696.463 7   -982269.793 8
  21038090.289   -17860636.941 7 -13842822.235 9
  20837849.234   -19188856.806 7 -14842703.845 9
 95  2 19 21 54 30.0000000  0  7  7 18 16 31  2 19 27
  24137684.602    -2649289.939 3  -1898976.747 2
  22674952.016    -9701337.149 6  -7492429.757 6
  24402812.727    -2356481.994 4    281248.497 2
  22676236.984    -9835142.277 6  -7157620.450 6
  21902723.672    -1431531.419 7  -1010972.324 8
  21043043.867   -17834612.147 7 -13822543.170 9
  20830575.492   -19227077.106 7 -14872485.873 9
 95  2 19 21 55  0.0000000  0  7  7 18 16 31  2 19 27
  24117609.492    -2754790.253 4  -1981184.632 3
  22694255.211    -9599896.784 6  -7413385.370 6
  24408321.969    -2327539.598 4    303800.987 1
  22689573.609    -9765060.970 6  -7103011.658 6
  21895756.289    -1468164.177 7  -1039517.299 8
  21048052.000   -17808297.160 7 -13802038.006 8
  20823344.641   -19265069.662 7 -14902090.441 9
 95  2 19 21 55 30.0000000  0  7  7 18 16 31  2 19 27
  24097549.859    -2860205.624 4  -2063326.298 4
  22713605.305    -9498213.890 6  -7334152.000 6
  24413909.047    -2298197.324 4    326665.097 2
  22703002.062    -9694484.415 6  -7048016.957 6
  21888825.312    -1504590.798 7  -1067901.638 8
  21053110.234   -17781706.876 7 -13781318.301 8
  20816157.125   -19302838.109 7 -14931520.375 9
 95  2 19 21 56  0.0000000  0  7  7 18 16 31  2 19 27
  24077504.664    -2965534.054 5  -2145400.253 2
  22732999.898    -9396291.927 6  -7254732.331 6
  24419566.781    -2268443.614 3    349849.780 3
  22716529.633    -9623403.901 6  -6992629.549 6
  21881935.992    -1540791.661 7  -1096110.074 8
  21058218.430   -17754866.771 7 -13760403.935 9
  20809011.773   -19340378.461 7 -14960772.591 9
 95  2 19 21 56 30.0000000  0  7  7 18 16 31  2 19 27
  24057473.805    -3070794.195 5  -2227420.979 4
  22752439.398    -9294141.370 6  -7175134.549 6
  24425303.914    -2238293.941 3    373343.013 2
  22730148.562    -9551833.324 6  -6936860.276 6
  21875090.719    -1576756.835 7  -1124134.845 8
  21063371.742   -17727780.249 7 -13739297.557 8
  20801912.156   -19377699.560 7 -14989853.952 9
 95  2 19 21 57  0.0000000  0  7  7 18 16 31  2 19 27
  24037460.094    -3175977.901 4  -2309382.162 4
  22771922.961    -9191753.815 6  -7095352.092 6
  24431119.672    -2207730.913 3    397158.325 2
  22743859.203    -9479785.154 6  -6880718.847 6
  21868298.117    -1612444.816 7  -1151943.638 8
  21068576.273   -17700437.221 7 -13717991.303 8
  20794855.000   -19414785.429 7 -15018752.012 9
 95  2 19 21 57 30.0000000  0  7  7 18 16 31  2 19 27
  24017455.664    -3281108.606 5  -2391302.046 3
  22791447.625    -9089137.034 6  -7015391.019 6
  24437017.938    -2176746.792 3    421301.796 2
  22757657.992    -9407284.465 6  -6824224.801 6
  21861556.219    -1647865.623 7  -1179544.231 8
  21073825.922   -17672854.912 7 -13696498.596 9
  20787842.000   -19451638.286 7 -15047468.513 9
 95  2 19 21 58  0.0000000  0  7  7 18 16 31  2 19 27
  23997458.664    -3386195.109 5  -2473187.486 2
  22811019.250    -8986294.839 6  -6935254.294 6
  24442991.641    -2145342.387 4    445772.731 2
  22771534.797    -9334354.371 6  -6767396.179 6
  21854865.695    -1683026.967 7  -1206942.654 8
  21079121.805   -17645016.952 7 -13674806.672 8
  20780877.039   -19488245.307 7 -15075993.450 9
 95  2 19 21 58 30.0000000  0  7  7 18 16 31  2 19 27
  23977468.211    -3491239.686 4  -2555040.249 2
  22830629.695    -8883236.906 6  -6854949.473 6
  24449047.867    -2113531.641 4    470560.298 1
  22785489.500    -9261013.350 6  -6710247.353 6
  21848222.328    -1717934.021 7  -1234142.918 8
  21084473.664   -17616886.796 7 -13652887.067 8
  20773958.227   -19524609.600 7 -15104329.245 9
 95  2 19 21 59  0.0000000  0  7  7 18 16 31  2 19 27
  23957487.086    -3596234.891 4  -2636854.539 5
  22850283.500    -8779961.987 6  -6774475.561 6
  24455175.953    -2081315.284 5    495663.976 2
  22799522.484    -9187263.196 6  -6652779.714 6
  21841623.570    -1752601.964 6  -1261156.867 8
  21089885.539   -17588463.016 7 -13630738.667 8
  20767086.102   -19560723.356 7 -15132469.821 9
 95  2 19 21 59 30.0000000  0  7  7 18 16 31  2 19 27
  23937518.414    -3701169.763 5  -2718621.812 2
  22869977.656    -8676474.354 6  -6693835.900 6
  24461377.445    -2048712.507 4    521068.714 2
  22813636.234    -9113100.049 6  -6594990.262 6
  21835069.719    -1787051.455 7  -1288000.593 8
  21095348.898   -17559748.387 7 -13608363.628 8
  20760260.078   -19596587.904 7 -15160416.210 9
 95  2 19 22  0  0.0000000  0  7  7 18 16 31  2 19 27
  23917565.508    -3806016.183 5  -2800320.176 4
  22889712.273    -8572762.366 6  -6613021.412 6
  24467652.797    -2015730.149 5    546769.253 3
  22827830.125    -9038509.244 6  -6536867.578 6
  21828560.937    -1821265.052 7  -1314660.504 8
  21100868.359   -17530741.553 7 -13585760.898 8
  20753482.391   -19632205.573 7 -15188170.220 9
 95  2 19 22  0 30.0000000  0  7  7 18 16 31  2 19 27
  23897635.188    -3910773.389 5  -2881949.007 4
  22909489.141    -8468832.599 6  -6532037.235 6
  24474003.898    -1982373.990 5    572761.034 2
  22842109.156    -8963484.654 6  -6478406.891 6
  21822096.195    -1855241.228 7  -1341135.422 9
  21106438.750   -17501466.239 7 -13562948.958 8
  20746747.695   -19667585.945 7 -15215739.329 9
 95  2 19 22  1  0.0000000  0  7  7 18 16 31  2 19 27
  23877715.844    -4015439.308 5  -2963506.684 4
  22929309.789    -8364685.749 6  -6450883.901 6
  24480418.891    -1948663.211 5    599029.129 2
  22856467.086    -8888025.046 6  -6419607.214 6
  21815672.094    -1889002.086 7  -1367442.551 8
  21112055.875   -17471957.687 7 -13539955.283 8
  20740057.977   -19702739.202 7 -15243131.448 9
 95  2 19 22  1 30.0000000  0  7  7 18 16 31  2 19 27
  23857823.297    -4119985.338 5  -3044970.955 2
  22949171.992    -8260302.106 6  -6369546.058 6
  24486906.352    -1914574.271 5    625591.901 2
  22870915.844    -8812105.817 6  -6360449.402 6
  21809294.289    -1922526.053 7  -1393565.088 8
  21117715.258   -17442206.145 7 -13516772.271 8
  20733410.602   -19737666.345 7 -15270347.383 9
 95  2 19 22  2  0.0000000  0  7  7 18 16 31  2 19 27
  23837942.367    -4224449.504 5  -3126371.432 3
  22969074.352    -8155724.316 6  -6288056.910 5
  24493460.570    -1880120.872 5    652438.667 3
  22885442.008    -8735758.020 6  -6300957.639 6
  21802953.461    -1955839.380 7  -1419523.491 8
  21123419.781   -17412236.569 7 -13493419.351 8
  20726802.766   -19772393.222 7 -15297407.266 9
 95  2 19 22  2 30.0000000  0  7  7 18 16 31  2 19 27
  23818081.383    -4328822.569 5  -3207700.916 3
  22989011.414    -8050940.945 6  -6206407.584 6
  24500089.406    -1845275.531 5    679590.828 4
  22900055.789    -8658971.681 6  -6241124.162 6
  21796654.930    -1988940.719 7  -1445316.715 8
  21129169.992   -17382017.855 7 -13469872.308 8
  20720240.234   -19806887.943 7 -15324286.256 9
 95  2 19 22  3  0.0000000  0  7  7 18 16 31  2 19 27
  23798240.172    -4433088.853 5  -3288947.175 4
  23008992.289    -7945946.535 6  -6124593.820 5
  24506797.773    -1810034.441 5    707051.398 2
  22914750.953    -8581742.240 6  -6180945.408 6
  21790394.156    -2021826.889 7  -1470942.265 8
  21134971.102   -17351526.312 7 -13446112.671 9
  20713722.125   -19841144.387 7 -15350979.565 9
 95  2 19 22  3 30.0000000  0  7  7 18 16 31  2 19 27
  23778416.750    -4537251.168 5  -3370112.421 4
  23029007.648    -7840763.680 6  -6042633.206 5
  24513582.375    -1774394.183 5    734822.972 2
  22929527.016    -8504089.345 6  -6120436.692 6
  21784178.938    -2054487.994 7  -1496392.443 8
  21140826.992   -17320755.411 7 -13422135.355 8
  20707252.211   -19875146.297 7 -15377474.542 9
 95  2 19 22  4  0.0000000  0  7  7 18 16 31  2 19 27
  23758612.133    -4641327.170 5  -3451210.389 4
  23049058.133    -7735397.134 6  -5960529.473 6
  24520435.156    -1738376.812 5    762888.419 1
  22944382.492    -8426033.324 6  -6059613.852 6
  21778002.789    -2086936.148 7  -1521676.683 8
  21146738.109   -17289695.648 7 -13397932.953 8
  20700832.727   -19908883.771 7 -15403763.451 9
 95  2 19 22  4 30.0000000  0  7  7 18 16 31  2 19 27
  23738827.195    -4745301.680 5  -3532229.278 5
  23069145.680    -7629827.560 6  -5878267.521 5
  24527358.719    -1701993.374 5    791239.097 2
  22959315.141    -8347570.430 6  -5998473.959 6
  21771874.023    -2119158.237 7  -1546784.776 8
  21152706.141   -17258331.922 7 -13373493.703 8
  20694462.562   -19942350.689 7 -15429841.548 9
 95  2 19 22  5  0.0000000  0  7  7 18 16 31  2 19 27
  23719062.195    -4849169.286 5  -3613164.880 5
  23089272.609    -7524072.143 6  -5795860.760 5
  24534348.086    -1665259.912 5    819862.506 4
  22974318.586    -8268712.807 6  -5937026.485 6
  21765791.078    -2151134.128 7  -1571701.026 8
  21158730.742   -17226671.586 7 -13348823.327 8
  20688142.703   -19975553.163 7 -15455713.581 9
 95  2 19 22  5 30.0000000  0  7  7 18 16 31  2 19 27
  23699316.383    -4952925.745 5  -3694013.874 4
  23109433.328    -7418129.524 6  -5713308.115 5
  24541407.234    -1628168.846 5    848764.621 3
  22989398.445    -8189468.743 6  -5875277.886 6
  21759751.164    -2182859.075 7  -1596421.736 8
  21164810.492   -17194721.128 7 -13323926.872 9
  20681876.469   -20008489.142 7 -15481377.967 9
 95  2 19 22  6  0.0000000  0  7  7 18 16 31  2 19 27
  23679593.047    -5056578.890 5  -3774782.403 4
  23129626.062    -7312002.763 6  -5630612.002 6
  24548532.680    -1590725.180 5    877941.469 2
  23004552.711    -8109839.189 6  -5813228.911 6
  21753756.672    -2214353.358 7  -1620962.700 8
  21170942.062   -17162491.079 7 -13298812.561 9
  20675656.578   -20041183.402 7 -15506853.995 9
 95  2 19 22  6 30.0000000  0  7  7 18 16 31  2 19 27
  23659892.414    -5160107.741 5  -3855454.038 5
  23149854.531    -7205706.138 6  -5547783.522 5
  24555728.086    -1552909.765 5    907407.990 4
  23019780.469    -8029814.852 6  -5750872.340 6
  21747810.766    -2245602.997 7  -1645313.032 9
  21177130.016   -17129984.352 7 -13273482.662 8
  20669485.234   -20073615.537 7 -15532125.783 9
 95  2 19 22  7  0.0000000  0  7  7 18 16 31  2 19 27
  23640217.992    -5263490.792 5  -3936012.108 4
  23170117.898    -7099222.959 6  -5464809.673 5
  24562999.367    -1514698.221 5    937183.177 2
  23035085.766    -7949377.235 6  -5688193.719 6
  21741914.039    -2276602.636 7  -1669468.561 8
  21183370.703   -17097192.027 7 -13247930.204 8
  20663364.625   -20105767.094 7 -15557178.940 9
 95  2 19 22  7 30.0000000  0  7  7 18 16 31  2 19 27
  23620567.422    -5366748.758 5  -4016472.701 4
  23190418.555    -6992548.190 6  -5381686.536 5
  24570345.102    -1476104.997 5    967255.790 2
  23050470.391    -7868533.582 6  -5625198.694 5
  21736054.938    -2307385.571 7  -1693455.243 8
  21189662.312   -17064121.699 7 -13222161.127 8
  20657296.297   -20137650.424 7 -15582023.081 9
 95  2 19 22  8  0.0000000  0  7  7 18 16 31  2 19 27
  23600934.703    -5469904.243 5  -4096853.447 5
  23210751.344    -6885704.057 6  -5298431.438 6
  24577750.062    -1437165.698 5    997598.041 4
  23065928.156    -7787297.680 6  -5561898.027 6
  21730233.148    -2337970.280 7  -1717287.463 8
  21196006.531   -17030789.028 7 -13196187.631 8
  20651280.688   -20169276.868 7 -15606667.049 9
 95  2 19 22  8 30.0000000  0  7  7 18 16 31  2 19 27
  23581333.289    -5572936.776 5  -4177138.410 5
  23231114.562    -6778684.199 6  -5215039.416 5
  24585230.133    -1397879.741 4   1028210.438 3
  23081466.477    -7705654.364 6  -5498279.901 6
  21724458.438    -2368330.043 7  -1740944.390 9
  21202402.250   -16997177.564 7 -13169996.888 9
  20645314.367   -20200630.391 7 -15631098.352 9
 95  2 19 22  9  0.0000000  0  7  7 18 16 31  2 19 27
  23561747.547    -5675842.441 5  -4257324.507 5
  23251515.281    -6671479.460 6  -5131503.301 5
  24592773.727    -1358252.890 3   1059088.457 3
  23097077.883    -7623611.172 6  -5434350.196 6
  21718723.172    -2398471.474 7  -1764431.198 9
  21208853.211   -16963277.593 7 -13143581.333 8
  20639396.625   -20231721.639 7 -15655325.295 9
 95  2 19 22  9 30.0000000  0  7  7 18 16 31  2 19 27
  23542187.797    -5778632.229 5  -4337420.321 5
  23271947.945    -6564115.260 6  -5047842.945 5
  24600375.125    -1318292.951 3   1090226.001 3
  23112764.242    -7541178.762 6  -5370117.192 6
  21713025.094    -2428400.702 7  -1787752.653 9
  21215359.461   -16929089.425 7 -13116941.217 9
  20633531.711   -20262551.198 7 -15679348.308 9
 95  2 19 22 10  0.0000000  0  7  7 18 16 31  2 19 27
  23522655.938    -5881282.389 5  -4417407.344 5
  23292404.688    -6456601.934 6  -4964066.394 5
  24608042.953    -1277988.885 3   1121631.703 4
  23128524.984    -7458353.564 6  -5305578.126 6
  21707376.328    -2458100.142 7  -1810895.045 9
  21221920.430   -16894610.482 7 -13090074.517 8
  20627715.070   -20293103.874 7 -15703155.577 9
 95  2 19 22 10 30.0000000  0  7  7 18 16 31  2 19 27
  23503146.883    -5983806.753 5  -4497296.339 5
  23312892.438    -6348949.385 5  -4880181.363 5
  24615775.469    -1237346.917 3   1153300.694 4
  23144354.695    -7375162.305 6  -5240753.820 6
  21701762.375    -2487589.138 7  -1833873.449 9
  21228533.766   -16859851.788 7 -13062989.823 8
  20621955.430   -20323381.949 7 -15726748.865 9
 95  2 19 22 11  0.0000000  0  7  7 18 16 31  2 19 27
  23483663.484    -6086183.605 5  -4577070.385 5
  23333408.078    -6241128.342 5  -4796165.025 5
  24623585.016    -1196346.583 3   1185248.938 2
  23160259.633    -7291593.788 6  -5175635.537 6
  21696196.891    -2516856.404 7  -1856679.084 9
  21235205.953   -16824790.946 7 -13035669.703 8
  20616251.148   -20353346.449 7 -15750097.817 9
 95  2 19 22 11 30.0000000  0  7  7 18 16 31  2 19 27
  23464208.719    -6188410.244 5  -4656727.383 5
  23353961.961    -6133124.464 5  -4712006.233 5
  24631448.445    -1154980.345 3   1217482.323 4
  23176237.328    -7207631.728 6  -5110210.612 6
  21690670.117    -2545880.542 7  -1879295.271 9
  21241934.008   -16789437.040 7 -13008121.207 8
  20610612.195   -20382986.970 7 -15773194.309 9
 95  2 19 22 12  0.0000000  0  7  7 18 16 31  2 19 27
  23444782.734    -6290506.439 5  -4736282.735 5
  23374545.398    -6024949.979 5  -4627714.487 5
  24639383.273    -1113278.290 2   1249977.342 2
  23192282.844    -7123304.693 6  -5044501.274 5
  21685187.938    -2574687.773 7  -1901742.436 9
  21248710.312   -16753829.144 7 -12980374.800 8
  20605029.742   -20412327.262 7 -15796056.857 9
 95  2 19 22 12 30.0000000  0  7  7 18 16 31  2 19 27
  23425373.469    -6392480.434 5  -4815742.866 5
  23395162.664    -5916607.275 5  -4543291.662 5
  24647389.570    -1071244.806 2   1282730.683 4
  23208398.109    -7038617.984 6  -4978511.673 6
  21679747.742    -2603296.839 7  -1924035.186 9
  21255533.641   -16717968.893 7 -12952431.768 8
  20599497.578   -20441386.454 7 -15818700.361 9
 95  2 19 22 13  0.0000000  0  7  7 18 16 31  2 19 27
  23405997.609    -6494321.234 5  -4895099.192 4
  23415811.594    -5808100.165 5  -4458740.735 5
  24655453.617    -1028878.717 3   1315743.174 2
  23224583.859    -6953555.805 6  -4912229.497 6
  21674339.031    -2631706.030 7  -1946172.198 9
  21262404.812   -16681860.286 7 -12924295.196 9
  20594017.250   -20470189.246 7 -15841144.078 9
 95  2 19 22 13 30.0000000  0  7  7 18 16 31  2 19 27
  23386641.508    -6596021.955 5  -4974346.393 5
  23436491.008    -5699427.412 5  -4374060.731 5
  24663577.781     -986177.894 3   1349016.507 2
  23240848.164    -6868101.744 6  -4845641.956 6
  21668971.844    -2659904.745 7  -1968145.195 9
  21269325.992   -16645493.105 7 -12895957.143 9
  20588587.844   -20498738.697 7 -15863390.388 9
 95  2 19 22 14  0.0000000  0  7  7 18 16 31  2 19 27
  23367321.945    -6697570.418 5  -5053474.928 5
  23457200.078    -5590607.280 5  -4289265.897 5
  24671766.914     -943151.812 3   1382543.250 3
  23257182.383    -6782264.419 6  -4778755.783 6
  21663644.008    -2687900.394 7  -1989959.962 9
  21276300.406   -16608837.426 7 -12867394.283 8
  20583200.734   -20527037.269 7 -15885441.205 9
 95  2 19 22 14 30.0000000  0  7  7 18 16 31  2 19 27
  23348026.672    -6798961.524 5  -5132480.860 5
  23477933.312    -5481655.497 5  -4204368.466 4
  24680013.477     -899802.463 3   1416321.926 3
  23273587.742    -6696043.096 6  -4711570.393 6
  21658360.578    -2715675.619 7  -2011602.967 9
  21283334.594   -16571871.534 7 -12838589.693 8
  20577861.516   -20555084.325 7 -15907296.039 9
 95  2 19 22 15  0.0000000  0  7  7 18 16 31  2 19 27
  23328761.758    -6900200.319 5  -5211368.110 5
  23498686.586    -5372587.583 5  -4119380.557 5
  24688315.680     -856144.922 2   1450340.726 4
  23290066.664    -6609452.412 6  -4644097.163 5
  21653119.000    -2743226.906 7  -2033071.491 9
  21290427.938   -16534599.000 7 -12809546.173 8
  20572572.875   -20582873.469 7 -15928949.901 9
 95  2 19 22 15 30.0000000  0  7  7 18 16 31  2 19 27
  23309524.078    -7001289.580 5  -5290138.817 5
  23519462.969    -5263412.559 5  -4034309.168 5
  24696680.945     -812190.365 3   1484590.970 2
  23306610.391    -6522517.264 6  -4576355.516 5
  21647918.094    -2770561.442 7
  21297580.227   -16497011.430 7 -12780257.165 8
  20567337.617   -20610383.423 7
 95  2 19 22 16  0.0000000  0  7  7 18 16 31  2 19 27
  23290322.820    -7102196.426 5  -5368767.385 5
  23540260.945    -5154114.749 5  -3949142.115 4
  24705111.102     -767914.360 3   1519091.679 1
  23323218.500    -6435238.049 6  -4508345.774 6
  21642759.445    -2797664.663 7
  21304796.953   -16459088.924 7 -12750707.172 8
  20562161.938   -20637583.813 7
 95  2 19 22 16 30.0000000  0  7  7 18 16 31  2 19 27
  23271155.867    -7202922.350 5  -5447254.996 5
  23561082.992    -5044683.213 5  -3863870.852 5
  24713603.797     -723323.917 3   1553837.384 1
  23339891.438    -6347616.319 6  -4440069.140 5
  21637643.875    -2824550.106 7
  21312071.734   -16420856.271 7 -12720915.504 8
  20557047.172   -20664461.943 7
 95  2 19 22 17  0.0000000  0  7  7 18 16 31  2 19 27
  23252022.578    -7303460.744 5  -5525596.496 5
  23581940.367    -4935096.802 5  -3778478.899 5
  24722139.828     -678419.477 2   1588827.836 2
  23356630.391    -6259659.159 6  -4371531.136 5
  21632565.008    -2851237.074 7  -2117235.168 8
  21319406.742   -16382322.164 7 -12690888.930 8
  20551995.031   -20691011.768 7 -16013213.459 9
 95  2 19 22 17 30.0000000  0  7  7 18 16 31  2 19 27
  23232920.172    -7403835.291 5  -5603810.321 5
  23602817.297    -4825380.455 5  -3692985.702 5
  24730738.398          -0.30112
  23373424.844    -6171396.726 6  -4302755.259 5
  21627517.039    -2877757.255 7  -2137900.227 8
  21326789.430   -16343517.439 7 -12660651.497 8
  20547001.500   -20717259.041 7 -16033665.867 9
 95  2 19 22 18  0.0000000  0  7  7 18 16 31  2 19 27
  23213855.680    -7504040.358 5  -5681892.079 5
  23623718.852    -4715527.430 5  -3607386.010 5
  24739400.352       45489.426 1
  23390284.586    -6082809.589 6  -4233726.377 5
  21622503.266    -2904087.105 7  -2158416.973 9
  21334223.727   -16304446.708 7 -12630206.770 9
  20542067.898   -20743200.772 7 -16053880.180 9
 95  2 19 22 18 30.0000000  0  7  7 18 16 31  2 19 27
  23194817.484    -7604074.809 5  -5759840.887 5
  23644653.539    -4605532.881 5  -3521676.071 5
  24748109.180       91297.239 2        -0.06512
  23407202.742    -5993886.817 6  -4164435.938 5
  21617533.680    -2930208.548 7  -2178771.320 9
  21341711.297   -16265104.734 7 -12599550.692 9
  20537188.945   -20768832.986 7 -16073853.315 9
 95  2 19 22 19  0.0000000  0  7  7 18 16 31  2 19 27
  23175814.852    -7703936.063 5  -5837654.741 5
  23665606.359    -4495416.368 5  -3435871.048 5
  24756894.922      137435.403 2     35951.688 1
  23424185.766    -5904644.834 6  -4094896.764 5
  21612608.977    -2956102.071 7  -2198948.077 9
  21349251.102   -16225480.889 7 -12568674.974 8
  20532367.922   -20794153.387 7 -16093583.491 9
 95  2 19 22 19 30.0000000  0  7  7 18 16 31  2 19 27
  23156841.094    -7803634.606 5  -5915341.814 6
  23686580.352    -4385207.075 5  -3349993.741 5
  24765735.164      183891.450 3     72151.120 1
  23441228.156    -5815089.458 6  -4025113.381 5
  21607723.078    -2981758.433 7  -2218940.019 9
  21356843.766   -16185582.358 7 -12537585.226 8
  20527611.695   -20819166.696 7 -16113074.370 9
 95  2 19 22 20  0.0000000  0  7  7 18 16 31  2 19 27
  23137902.508    -7903161.603 5  -5992895.183 6
  23707571.719    -4274897.409 5  -3264038.257 5
  24774637.531      230673.131 3    108604.290 2
  23458334.180    -5725203.504 5  -3955072.432 5
  21602894.039    -3007160.036 7  -2238733.457 9
  21364491.125   -16145392.903 7 -12506268.773 9
  20522907.078   -20843864.802 7 -16132319.627 9
 95  2 19 22 20 30.0000000  0  7  7 18 16 31  2 19 27
  23118992.156    -8002531.547 5  -6070326.210 6
  23728579.258    -4164503.674 5  -3178017.211 5
  24783591.227      277746.631 2    145284.834 1
  23475499.469    -5634996.714 6  -3884781.474 6
  21598098.258    -3032334.287 7  -2258349.734 8
  21372193.117   -16104919.135 7 -12474730.777 9
  20518268.492   -20868263.463 7 -16151331.559 9
 95  2 19 22 21  0.0000000  0  8  7 18 16 31  2 15 19 27
  23100117.023    -8101719.541 5  -6147615.433 6
  23749611.289    -4053992.091 5  -3091904.369 4
  24792609.570      325108.532 2
  23492734.570    -5544429.705 6  -3814209.816 5
  21593359.453    -3057260.790 7  -2277772.964 9
  24909900.008          -0.90313
  21379955.812   -16064125.841 7 -12442943.798 8
  20513683.305   -20892342.173 7 -16170094.181 9
 95  2 19 22 21 30.0000000  0  8  7 18 16 31  2 15 19 27
  23081274.828    -8200740.256 5  -6224774.319 6
  23770661.383    -3943359.566 5  -3005697.284 4
  24801668.758      372732.906 2        -0.08211
  23510039.453    -5453486.936 5  -3743345.343 5
  21588654.820    -3081969.207 7  -2297026.256 9
  24897802.742      -63579.340 3        -0.49213
  21387776.344   -16023030.659 7 -12410921.584 9
  20509161.453   -20916126.151 7 -16188627.141 9
 95  2 19 22 22  0.0000000  0  8  7 18 16 31  2 15 19 27
  23062466.734    -8299582.882 5  -6301794.429 6
  23791736.422    -3832605.699 5  -2919395.636 4
  24810774.719      420617.575 2     37312.649 1
  23527419.828    -5362167.918 5  -3672187.712 5
  21583996.359    -3106468.754 7  -2316116.782 9
  24885727.258     -126993.505 3    -49414.002 2
  21395651.406   -15981642.089 7 -12378670.758 9
  20504687.789   -20939621.475 7 -16206935.168 9
 95  2 19 22 22 30.0000000  0  8  7 18 16 31  2 15 19 27
  23043697.195    -8398206.554 5  -6378643.933 6
  23812841.602    -3721703.156 5  -2832978.136 4
  24819941.398      468783.767 2     74844.652 1
  23544865.953    -5270468.591 5  -3600733.751 5
  21579379.344    -3130738.220 7  -2335028.026 9
  24873701.961     -190216.396 3    -98678.481 2
  21403587.750   -15939940.501 7 -12346176.036 9
  20500275.445   -20962797.391 7 -16224994.302 9
 95  2 19 22 23  0.0000000  0  8  7 18 16 31  2 15 19 27
  23024977.023    -8496588.605 6  -6455305.159 6
  23833971.930    -3610655.740 5  -2746447.766 5
  24829161.344      517245.552 3    112607.085 1
  23562384.391    -5178408.126 5  -3528998.359 5
  21574800.352    -3154774.454 7  -2353757.548 9
  24861711.242     -253236.980 3   -147785.331 2
  21411583.109   -15897928.410 7 -12313439.350 8
  20495930.781   -20985647.090 7 -16242799.241 9
 95  2 19 22 23 30.0000000  0  8  7 18 16 31  2 15 19 27
  23006300.711    -8594727.813 6  -6531777.166 6
  23855126.562    -3499491.633 5  -2659826.471 4
  24838448.734      566011.377 3
  23579967.258    -5086022.652 5  -3457009.730 5
  21570265.328    -3178598.779 7  -2372321.933 9
  24849756.977     -316065.095 3   -196742.161 2
  21419630.945   -15855632.296 7 -12280481.356 8
  20491644.367   -21008166.510 7 -16260346.830 9
 95  2 19 22 24  0.0000000  0  8  7 18 16 31  2 15 19 27
  22987673.672    -8692622.645 6  -6608058.734 6
  23876301.602    -3388221.670 5  -2573122.667 4
  24847779.016      615077.622 3
  23597600.844    -4993351.665 5  -3384798.615 5
  21565773.391    -3202209.219 7  -2390719.657 9
  24837844.094     -378698.264 3   -245547.128 2
  21427734.305   -15813045.456 7 -12247296.827 8
  20487424.992   -21030350.884 7 -16277633.346 9
 95  2 19 22 24 30.0000000  0  8  7 18 16 31  2 15 19 27
  22969088.094    -8790291.794 6  -6684164.480 6
  23897490.031    -3276855.167 5  -2486343.675 5
  24857176.359      664434.588 3
  23615284.328    -4900420.703 5  -3312384.947 5
  21561316.937    -3225631.515 7  -2408970.767 9
  24825958.562     -441138.795 3   -294201.938 4
  21435895.625   -15770164.945 7 -12213883.467 8
  20483265.867   -21052212.268 7 -16294668.176 9
 95  2 19 22 25  0.0000000  0  8  7 18 16 31  2 15 19 27
  22950544.039    -8887732.001 6  -6760091.807 6
  23918705.859    -3165381.575 5  -2399481.217 3
  24866628.586      714100.669 3
  23633024.195    -4807204.090 5  -3239748.691 5
  21556894.992    -3248866.887 7  -2427076.237 9
  24814113.320     -503370.349 3   -342693.937 3
  21444114.133   -15726975.752 7 -12180229.569 8
  20479166.422   -21073741.040 7 -16311443.831 9
 95  2 19 22 25 30.0000000  0  8  7 18 16 31  2 15 19 27
  22932038.484    -8984985.286 6  -6835873.489 6
  23939934.031    -3053823.198 5  -2312552.696 3
  24876128.812      764040.092 2
  23650814.117    -4713717.372 5  -3166901.958 5
  21552505.609    -3271944.111 7  -2445058.466 9
  24802303.047     -565417.678 3   -391042.351 3
  21452387.680   -15683496.973 7 -12146350.014 9
  20475124.562   -21094967.812 7 -16327984.147 9
 95  2 19 22 26  0.0000000  0  8  7 18 16 31  2 15 19 27
  22913567.539    -9082037.180 5  -6911498.237 6
  23961184.406    -2942168.165 5  -2225548.822 3
  24885688.531      814256.879 2
  23668660.172    -4619929.683 5  -3093820.691 5
  21548150.250    -3294831.879 7  -2462893.083 9
  24790538.180     -627256.862 4   -439228.611 4
  21460721.711   -15639705.466 7 -12112226.787 9
  20471142.125   -21115894.231 7 -16344290.434 9
 95  2 19 22 26 30.0000000  0  8  7 18 16 31  2 15 19 27
  22895141.078    -9178877.417 6  -6986958.065 6
  23982445.984    -2830428.673 5  -2138479.195 3
  24895290.414      864753.018 1
  23686568.320    -4525819.947 5  -3020488.474 5
  21543830.008    -3317522.796 7  -2480574.299 9
  24778805.891     -688883.730 4   -487249.415 3
  21469111.695   -15595611.344 7 -12077867.755 9
  20467222.914   -21136512.903 7 -16360356.927 9
 95  2 19 22 27  0.0000000  0  8  7 18 16 31  2 15 19 27
  22876752.195    -9275513.774 6  -7062259.040 6
  24003721.406    -2718623.013 5  -2051357.985 4
  24904950.492      915517.845 1
  23704537.484    -4431393.535 5  -2946909.525 5
  21539556.281    -3339999.994 7  -2498088.982 9
  24767121.195     -750303.583 4   -535108.906 5
  21477557.039   -15551227.838 7 -12043283.223 9
  20463357.023   -21156811.916 7 -16376174.339 9
 95  2 19 22 27 30.0000000  0  8  7 18 16 31  2 15 19 27
  22858404.359    -9371935.853 6  -7137393.050 6
  24025009.414    -2606757.021 5  -1964189.741 3
  24914653.469      966546.367 1
  23722565.492    -4336658.918 5  -2873090.399 5
  21535321.422    -3362238.955 7  -2515418.020 9
  24755477.227     -811510.990 4   -582802.855 4
  21486060.508   -15506549.304 7 -12008468.805 8
  20459559.945   -21176773.531 7 -16391728.851 8
 95  2 19 22 28  0.0000000  0  7  7 18 31  2 15 19 27
  22840096.281    -9468137.907 6  -7212355.608 5
  24046306.305    -2494838.540 5  -1876980.634 4
  23740648.742    -4241637.793 5  -2799048.036 5
  21531140.531    -3384229.380 7  -2532553.403 9
  24743868.055     -872506.230 4   -630331.486 3
  21494616.883   -15461579.431 7 -11973427.356 8
  20455826.813   -21196381.773 7 -16407007.991 9
 95  2 19 22 28 30.0000000  0  7  7 18 31  2 15 19 27
  22821828.883    -9564132.548 6  -7287156.550 5
  24067616.086    -2382857.162 5  -1789722.547 5
  23758781.680    -4146349.966 5  -2724797.861 5
  21526993.758    -3405995.534 7  -2549514.036 8
  24732294.961     -933295.134 4   -677699.340 4
  21503230.656   -15416313.732 7 -11938155.403 8
  20452170.633   -21215613.148 7 -16421993.467 9
 95  2 19 22 29  0.0000000  0  7  7 18 31  2 15 19 27
  22803599.492    -9659928.067 6  -7361802.336 6
  24088942.242    -2270803.396 5  -1702407.988 3
  23776962.039    -4050800.113 5  -2650343.493 5
  21522891.156    -3427557.197 7  -2566315.316 9
  24720773.531     -993878.837 4   -724907.307 4
  21511901.523   -15370747.705 7 -11902649.422 8
  20448579.805   -21234477.822 7 -16436693.205 9
